Ship Status Report: callsign 000000

sailwx.info

Track history (hours):
 
Tides and Currents Weather Stations Pressure Air Temp Water Temp Dewpoint Dewpoint Depression Visibility Wind Speed Wind Dir Waves Ship Positions

Callsign 000000 (name unknown)

Last reported at 2017-Mar-23 01:34 UTC. Time now 2017-Mar-23 02:16 UTC.
Position N 24°25' E 118°05'.

Type: Fishing. MMSI: 200007452.

Date/timePositionNaut miles runAvg speedWind from/ knotsBaromVisibWave heightAir tempDewpointWater temp
2017-Mar-23 01:34N 24°25' E 118°05'42790441.8
2017-Mar-23 01:33N 31°02' E 121°03'352000.5
2017-Mar-23 01:32N 31°21' E 121°37'153914.8
2017-Mar-23 01:32N 31°30' E 121°22'2453.4
2017-Mar-23 01:32N 31°30' E 121°25'0 7.7
2017-Mar-23 01:30N 31°29' E 121°25'34946.4
2017-Mar-23 01:28N 31°07' E 120°55'376297.7
2017-Mar-23 01:27N 31°38' E 121°18'49925.5
2017-Mar-23 01:24N 31°58' E 120°26'4315556.6
2017-Mar-23 01:24N 31°41' E 121°12'15133.1
2017-Mar-23 01:17N 31°29' E 121°25'0 9.6
2017-Mar-23 01:15N 31°29' E 121°25'332.0
2017-Mar-23 01:10N 31°30' E 121°22'459756.7
2017-Mar-23 00:33N 24°25' E 118°05'46522949.2
2017-Mar-23 00:32N 31°38' E 121°18'193240.5
2017-Mar-23 00:32N 31°24' E 121°32'10401.8
2017-Mar-23 00:30N 31°30' E 121°22'2207.2
2017-Mar-23 00:30N 31°29' E 121°25'0 0.3
2017-Mar-23 00:29N 31°29' E 121°25'272.6
2017-Mar-23 00:27N 31°30' E 121°22'33313.5
2017-Mar-23 00:21N 31°07' E 120°55'38208.5
2017-Mar-23 00:10N 31°23' E 121°35'457749.6
2017-Mar-22 23:33N 24°25' E 118°05'46529390.7
2017-Mar-22 23:32N 31°38' E 121°18'461743.1
2017-Mar-22 23:31N 31°00' E 120°47'4221495.5
2017-Mar-22 23:31N 31°30' E 121°22'331106.4
2017-Mar-22 23:29N 31°07' E 120°55'341398.0
2017-Mar-22 23:27N 31°29' E 121°25'0 0.1
2017-Mar-22 23:21N 31°29' E 121°25'0 5.5
2017-Mar-22 23:17N 31°29' E 121°25'2357.4
2017-Mar-22 23:16N 31°30' E 121°22'0 0.1
2017-Mar-22 22:33N 31°30' E 121°22'459413364.0
2017-Mar-22 22:33N 24°25' E 118°05'45911982.5
2017-Mar-22 22:31N 31°30' E 121°22'9728.7
2017-Mar-22 22:30N 31°38' E 121°18'62286.0
2017-Mar-22 22:30N 31°41' E 121°12'16860.3
2017-Mar-22 22:29N 31°29' E 121°25'0 1.0
2017-Mar-22 22:16N 31°29' E 121°25'0 2.8
2017-Mar-22 22:11N 31°29' E 121°25'1016.5
2017-Mar-22 21:33N 31°38' E 121°18'93648.0
2017-Mar-22 21:33N 31°30' E 121°22'459826774.2
2017-Mar-22 21:33N 24°25' E 118°05'46011341.0
2017-Mar-22 21:31N 31°29' E 121°25'253.3
2017-Mar-22 21:28N 31°30' E 121°22'14678.4
2017-Mar-22 21:27N 31°41' E 121°12'164472.2
2017-Mar-22 21:27N 31°29' E 121°25'0134.0
2017-Mar-22 21:27N 31°29' E 121°25'460517.4
2017-Mar-22 20:33N 24°25' E 118°05'46042498.7
2017-Mar-22 20:33N 31°31' E 121°22'3310.7
2017-Mar-22 20:32N 31°29' E 121°25'1863296.8
2017-Mar-22 20:32N 31°41' E 121°10'1611270.4
2017-Mar-22 20:32N 31°30' E 121°22'2191.7
2017-Mar-22 20:31N 31°29' E 121°25'2984.7
2017-Mar-22 20:31N 31°30' E 121°22'9285.3
2017-Mar-22 20:29N 31°38' E 121°18'1167.0
2017-Mar-22 20:20N 31°29' E 121°25'0129.0
2017-Mar-22 20:20N 31°29' E 121°25'460595.0
2017-Mar-22 19:33N 24°25' E 118°05'45991866.0
2017-Mar-22 19:33N 31°30' E 121°22'0 4.5
2017-Mar-22 19:32N 31°30' E 121°22'352.2
2017-Mar-22 19:29N 31°29' E 121°25'111770.4
2017-Mar-22 19:29N 31°38' E 121°18'11927.4
2017-Mar-22 19:28N 31°29' E 121°25'0 0.3
2017-Mar-22 19:26N 31°29' E 121°25'0 3.4
2017-Mar-22 19:22N 31°29' E 121°25'460572.0
2017-Mar-22 18:33N 24°25' E 118°05'460331060.8
2017-Mar-22 18:33N 31°29' E 121°25'113804.2
2017-Mar-22 18:33N 31°38' E 121°18'11141.4
2017-Mar-22 18:29N 31°29' E 121°25'0 7.9
2017-Mar-22 18:26N 31°29' E 121°25'0 1.3
2017-Mar-22 18:17N 31°30' E 121°25'2115.5
2017-Mar-22 18:16N 31°30' E 121°22'0 0.6
2017-Mar-22 18:10N 31°30' E 121°22'459746.1
2017-Mar-22 17:34N 24°25' E 118°05'45933746.7
2017-Mar-22 17:33N 31°30' E 121°22'2182.9
2017-Mar-22 17:32N 31°29' E 121°25'0 1.8
2017-Mar-22 17:32N 31°29' E 121°25'11396.1
2017-Mar-22 17:30N 31°38' E 121°18'9311.9
2017-Mar-22 17:28N 31°30' E 121°22'253.9
2017-Mar-22 17:26N 31°29' E 121°25'0 0.6
2017-Mar-22 17:06N 31°29' E 121°25'460837.5
2017-Mar-22 16:33N 24°25' E 118°05'46043572.6
2017-Mar-22 16:33N 31°29' E 121°25'361.9
2017-Mar-22 16:30N 31°30' E 121°22'2462.9
2017-Mar-22 16:30N 31°29' E 121°25'0 1.8
2017-Mar-22 16:30N 31°29' E 121°25'111520.3
2017-Mar-22 16:29N 31°38' E 121°18'11171.6
2017-Mar-22 16:26N 31°29' E 121°25'460527.7
2017-Mar-22 15:33N 24°25' E 118°05'465837665.7
2017-Mar-22 15:33N 31°38' E 121°18'111123.3
2017-Mar-22 15:33N 31°30' E 121°25'0 2.0
2017-Mar-22 15:26N 31°29' E 121°25'0 0.0
2017-Mar-22 15:24N 31°29' E 121°25'214.7
2017-Mar-22 15:15N 31°30' E 121°22'459662.0
2017-Mar-22 14:34N 24°25' E 118°05'459110240.6
2017-Mar-22 14:33N 31°30' E 121°22'9223.6
2017-Mar-22 14:31N 31°38' E 121°18'11117.4
2017-Mar-22 14:25N 31°29' E 121°25'0 7.7
2017-Mar-22 14:24N 31°30' E 121°25'212.9
2017-Mar-22 14:13N 31°30' E 121°22'459701.0
2017-Mar-22 13:34N 24°25' E 118°05'45912720.1
2017-Mar-22 13:31N 31°30' E 121°22'9482.8
2017-Mar-22 13:30N 31°38' E 121°18'111135.3
2017-Mar-22 13:30N 31°29' E 121°25'0 4.5
2017-Mar-22 13:25N 31°29' E 121°25'460535.2
2017-Mar-22 12:33N 24°25' E 118°05'46536420.7
2017-Mar-22 12:33N 31°38' E 121°18'9216.5
2017-Mar-22 12:30N 31°30' E 121°22'459485.6
2017-Mar-22 11:33N 24°25' E 118°05'46078850.9
2017-Mar-22 11:33N 31°29' E 121°25'111287.5
2017-Mar-22 11:32N 31°38' E 121°18'10334.5
2017-Mar-22 11:31N 31°29' E 121°25'10294.1
2017-Mar-22 11:28N 31°37' E 121°17'1096.7
2017-Mar-22 11:22N 31°29' E 121°25'460566.5
2017-Mar-22 10:34N 24°25' E 118°05'46246202.9
2017-Mar-22 10:33N 31°34' E 121°20'5235.8
2017-Mar-22 10:32N 31°38' E 121°18'93271.3
2017-Mar-22 10:32N 31°30' E 121°22'2258.8
2017-Mar-22 10:31N 31°30' E 121°25'0 9.8
2017-Mar-22 10:30N 31°29' E 121°25'0 3.8
2017-Mar-22 10:24N 31°29' E 121°25'460543.8
2017-Mar-22 09:33N 24°25' E 118°05'46010341.1
2017-Mar-22 09:31N 31°30' E 121°22'3 9.6
2017-Mar-22 09:15N 31°30' E 121°25'027.6
2017-Mar-22 09:14N 31°29' E 121°25'11201.1
2017-Mar-22 09:11N 31°38' E 121°18'11157.8
2017-Mar-22 09:07N 31°29' E 121°25'712.1
2017-Mar-22 08:33N 31°34' E 121°19'4621662051.8
2017-Mar-22 08:33N 24°25' E 118°04'465167531.1
2017-Mar-22 08:33N 31°38' E 121°18'11431.3
2017-Mar-22 08:32N 31°29' E 121°25'0 7.7
2017-Mar-22 08:29N 31°29' E 121°25'3121.0
2017-Mar-22 08:27N 31°31' E 121°22'387.5
2017-Mar-22 08:26N 31°30' E 121°25'0 0.6
2017-Mar-22 08:04N 31°29' E 121°25'460904.1
2017-Mar-22 07:33N 24°25' E 118°05'4641669981.1
2017-Mar-22 07:33N 31°37' E 121°15'21354.6
2017-Mar-22 07:33N 31°38' E 121°18'11426.5
2017-Mar-22 07:32N 31°29' E 121°25'0 0.0
2017-Mar-22 07:29N 31°29' E 121°25'0 4.4
2017-Mar-22 07:26N 31°29' E 121°25'0 7.4
2017-Mar-22 07:25N 31°29' E 121°25'460538.1
2017-Mar-22 06:33N 24°25' E 118°05'466419025.3
2017-Mar-22 06:33N 31°41' E 121°11'6626.3
2017-Mar-22 06:33N 31°38' E 121°18'11338.0
2017-Mar-22 06:31N 31°29' E 121°25'0 7.8
2017-Mar-22 06:29N 31°29' E 121°25'0 0.3
2017-Mar-22 06:28N 31°29' E 121°25'0295.2
2017-Mar-22 06:28N 31°29' E 121°25'0 0.3
2017-Mar-22 05:33N 31°30' E 121°25'46078854.0
2017-Mar-22 05:33N 24°25' E 118°05'46588175.9
2017-Mar-22 05:33N 31°38' E 121°18'11237.8
2017-Mar-22 05:30N 31°29' E 121°25'0492.5
2017-Mar-22 05:30N 31°29' E 121°25'0 3.1
2017-Mar-22 05:30N 31°29' E 121°25'12275.7
2017-Mar-22 05:27N 31°22' E 121°36'910.0
2017-Mar-22 04:34N 31°15' E 121°30'44894907.4
2017-Mar-22 04:33N 24°25' E 118°04'46514443.7
2017-Mar-22 04:31N 31°38' E 121°18'11144.8
2017-Mar-22 04:27N 31°29' E 121°25'0 5.5
2017-Mar-22 04:23N 31°29' E 121°25'0 0.1
2017-Mar-22 04:19N 31°29' E 121°25'460603.5
2017-Mar-22 03:34N 24°25' E 118°04'46037636.6
2017-Mar-22 03:33N 31°30' E 121°25'111160.1
2017-Mar-22 03:32N 31°38' E 121°18'11258.8
2017-Mar-22 03:30N 31°29' E 121°25'3127.4
2017-Mar-22 03:29N 31°31' E 121°22'355.0
2017-Mar-22 03:26N 31°29' E 121°25'041.7
2017-Mar-22 03:25N 31°29' E 121°25'58195.6
2017-Mar-22 03:07N 31°58' E 120°26'470828.6
2017-Mar-22 02:33N 24°25' E 118°04'46545281.1
2017-Mar-22 02:33N 31°38' E 121°18'112534.9
2017-Mar-22 02:32N 31°29' E 121°25'0 0.6
2017-Mar-22 02:32N 31°29' E 121°25'012.8
2017-Mar-22 02:31N 31°29' E 121°25'0 1.2
2017-Mar-22 02:22N 31°29' E 121°25'460568.8
2017-Mar-22 01:33N 24°25' E 118°04'4608155.1
2017-Mar-22 01:30N 31°29' E 121°25'0 0.2
2017-Mar-22 01:28N 31°29' E 121°25'11190.0
2017-Mar-22 01:24N 31°38' E 121°18'11111.2
2017-Mar-22 01:19N 31°30' E 121°25'34443.4
2017-Mar-22 01:14N 31°07' E 120°55'34386.1
2017-Mar-22 01:09N 31°29' E 121°25'3 4.8
2017-Mar-22 00:33N 31°31' E 121°22'46144823.8
2017-Mar-22 00:32N 24°25' E 118°04'46625019.6
2017-Mar-22 00:31N 31°38' E 121°18'11424.9
2017-Mar-22 00:30N 31°29' E 121°25'0 0.0
2017-Mar-22 00:21N 31°29' E 121°25'0 0.8
2017-Mar-22 00:05N 31°30' E 121°25'1120.1
2017-Mar-21 23:33N 31°38' E 121°18'466139697.3
2017-Mar-21 23:33N 24°25' E 118°04'46027616.9
2017-Mar-21 23:32N 31°29' E 121°25'017.8
2017-Mar-21 23:31N 31°29' E 121°25'0 0.1
2017-Mar-21 23:27N 31°29' E 121°25'0 0.6
2017-Mar-21 23:07N 31°30' E 121°25'460828.1
2017-Mar-21 22:33N 24°25' E 118°04'461118670.6
2017-Mar-21 22:33N 31°33' E 121°19'53886.4
2017-Mar-21 22:33N 31°38' E 121°18'102223.2
2017-Mar-21 22:33N 31°29' E 121°25'0 6.0
2017-Mar-21 22:31N 31°30' E 121°25'038.1
2017-Mar-21 22:30N 31°29' E 121°25'052.8
2017-Mar-21 22:30N 31°29' E 121°25'460488.8
2017-Mar-21 21:33N 24°25' E 118°04'46053435.6
2017-Mar-21 21:33N 31°29' E 121°25'10629.6
2017-Mar-21 21:32N 31°38' E 121°18'112114.0
2017-Mar-21 21:32N 31°30' E 121°25'0 1.8
2017-Mar-21 21:25N 31°29' E 121°25'017.8
2017-Mar-21 21:23N 31°29' E 121°25'0 0.3
2017-Mar-21 20:33N 31°30' E 121°25'46055231.2
2017-Mar-21 20:33N 24°25' E 118°04'46612060.8
2017-Mar-21 20:30N 31°38' E 121°18'10786.6
2017-Mar-21 20:30N 31°29' E 121°25'0 0.1
2017-Mar-21 20:23N 31°29' E 121°25'015.8
2017-Mar-21 20:22N 31°29' E 121°25'460573.5
2017-Mar-21 19:33N 24°25' E 118°04'46059172.0
2017-Mar-21 19:33N 31°29' E 121°25'014.5
2017-Mar-21 19:32N 31°29' E 121°25'113450.3
2017-Mar-21 19:32N 31°38' E 121°18'119763.3
2017-Mar-21 19:32N 31°29' E 121°25'022.8
2017-Mar-21 19:31N 31°29' E 121°25'1011.0
2017-Mar-21 18:33N 31°38' E 121°18'466167625.7
2017-Mar-21 18:33N 24°25' E 118°04'46021235.3
2017-Mar-21 18:32N 31°29' E 121°25'087.6
2017-Mar-21 18:32N 31°29' E 121°25'020.0
2017-Mar-21 18:31N 31°29' E 121°25'019.0
2017-Mar-21 18:30N 31°29' E 121°25'460488.6
2017-Mar-21 17:33N 24°25' E 118°04'46023335.6
2017-Mar-21 17:32N 31°29' E 121°25'11373.1
2017-Mar-21 17:30N 31°38' E 121°18'11955.3
2017-Mar-21 17:30N 31°29' E 121°25'0 4.9
2017-Mar-21 17:27N 31°29' E 121°25'460513.3
2017-Mar-21 16:33N 24°25' E 118°04'46018822.0
2017-Mar-21 16:32N 31°29' E 121°25'019.7
2017-Mar-21 16:31N 31°29' E 121°25'113176.8
2017-Mar-21 16:31N 31°38' E 121°18'1194.6
2017-Mar-21 16:24N 31°29' E 121°25'0 1.0
2017-Mar-21 16:04N 31°29' E 121°25'460917.4
2017-Mar-21 15:33N 24°25' E 118°04'466279376.2
2017-Mar-21 15:33N 31°38' E 121°18'11910.3
2017-Mar-21 15:33N 31°29' E 121°25'010.4
2017-Mar-21 15:31N 31°29' E 121°25'0 0.0
2017-Mar-21 15:30N 31°29' E 121°25'0 5.1
2017-Mar-21 15:26N 31°29' E 121°25'460528.3
2017-Mar-21 14:33N 24°25' E 118°04'460103518.3
2017-Mar-21 14:33N 31°29' E 121°25'0 0.3
2017-Mar-21 14:32N 31°29' E 121°25'111083.9
2017-Mar-21 14:31N 31°38' E 121°18'11169.8
2017-Mar-21 14:28N 31°29' E 121°25'0 7.9
2017-Mar-21 14:26N 31°29' E 121°25'58781.2
2017-Mar-21 14:22N 31°60' E 120°27'707881.0
2017-Mar-21 14:21N 31°22' E 121°36'457573.4
2017-Mar-21 13:33N 24°25' E 118°04'466139688.1
2017-Mar-21 13:33N 31°38' E 121°18'111311.8
2017-Mar-21 13:33N 31°29' E 121°25'0 0.7
2017-Mar-21 13:32N 31°29' E 121°25'010.1
2017-Mar-21 13:30N 31°29' E 121°25'0 8.1
2017-Mar-21 13:29N 31°29' E 121°25'182739.4
2017-Mar-21 13:28N 31°19' E 121°42'77901.5
2017-Mar-21 13:23N 31°58' E 120°25'470565.5
2017-Mar-21 12:33N 24°25' E 118°04'46053444.2
2017-Mar-21 12:33N 31°29' E 121°25'8466.2
2017-Mar-21 12:32N 31°24' E 121°31'1323043.9
2017-Mar-21 12:32N 31°18' E 121°44'201231.5
2017-Mar-21 12:31N 31°29' E 121°25'0 0.0
2017-Mar-21 12:30N 31°29' E 121°25'11181.7
2017-Mar-21 12:26N 31°38' E 121°18'11114.4
2017-Mar-21 12:21N 31°29' E 121°25'460583.1
2017-Mar-21 11:33N 24°25' E 118°04'46043599.3
2017-Mar-21 11:33N 31°29' E 121°25'121304.1
2017-Mar-21 11:32N 31°22' E 121°36'232637.1
2017-Mar-21 11:32N 31°38' E 121°18'11702.5
2017-Mar-21 11:31N 31°29' E 121°25'0 2.0
2017-Mar-21 11:29N 31°29' E 121°25'0 1.9
2017-Mar-21 11:16N 31°29' E 121°25'460649.7
2017-Mar-21 10:33N 24°25' E 118°04'466167627.7
2017-Mar-21 10:33N 31°38' E 121°18'296049.9
2017-Mar-21 10:33N 31°19' E 121°43'202459.8
2017-Mar-21 10:32N 31°30' E 121°22'270.4
2017-Mar-21 10:31N 31°29' E 121°25'013.8
2017-Mar-21 10:30N 31°29' E 121°25'58843.8
2017-Mar-21 10:26N 31°58' E 120°25'165.5
2017-Mar-21 10:25N 31°58' E 120°26'58657.7
2017-Mar-21 10:20N 31°29' E 121°25'0 2.5
2017-Mar-21 10:10N 31°29' E 121°25'460756.3
2017-Mar-21 09:33N 24°25' E 118°04'46631042.5
2017-Mar-21 09:32N 31°38' E 121°18'92179.6
2017-Mar-21 09:32N 31°30' E 121°22'222748.9
2017-Mar-21 09:32N 31°17' E 121°44'7835121.8
2017-Mar-21 09:32N 31°58' E 120°26'1310.3
2017-Mar-21 09:31N 31°58' E 120°25'581285.8
2017-Mar-21 09:29N 31°29' E 121°25'0 4.4
2017-Mar-21 09:26N 31°29' E 121°25'5866.7
2017-Mar-21 08:34N 31°58' E 120°26'50180129.0
2017-Mar-21 08:33N 31°36' E 121°18'243729.3
2017-Mar-21 08:33N 31°20' E 121°40'457274272.0
2017-Mar-21 08:33N 24°25' E 118°04'460184079.4
2017-Mar-21 08:33N 31°29' E 121°25'013.6
2017-Mar-21 08:31N 31°29' E 121°25'101048.9
2017-Mar-21 08:30N 31°38' E 121°18'9235.1
2017-Mar-21 08:28N 31°30' E 121°22'2116.4
2017-Mar-21 08:27N 31°29' E 121°25'0 4.2
2017-Mar-21 08:23N 31°29' E 121°25'460555.2
2017-Mar-21 07:34N 24°25' E 118°04'46226799.1
2017-Mar-21 07:33N 31°32' E 121°23'84793.0
2017-Mar-21 07:32N 31°38' E 121°18'212991.0
2017-Mar-21 07:32N 31°23' E 121°34'121042.9
2017-Mar-21 07:31N 31°30' E 121°22'2576.5
2017-Mar-21 07:31N 31°29' E 121°25'061.3
2017-Mar-21 07:31N 31°29' E 121°25'0 5.4
2017-Mar-21 07:29N 31°29' E 121°25'0322.3
2017-Mar-21 07:29N 31°29' E 121°25'581298.0
2017-Mar-21 07:26N 31°58' E 120°26'136.6
2017-Mar-21 07:25N 31°58' E 120°25'1 0.8
2017-Mar-21 06:33N 31°58' E 120°26'5667118.7
2017-Mar-21 06:33N 31°30' E 121°22'460551527.1
2017-Mar-21 06:33N 24°25' E 118°04'46050191.3
2017-Mar-21 06:33N 31°29' E 121°25'0 0.4
2017-Mar-21 06:32N 31°29' E 121°25'0 9.2
2017-Mar-21 06:30N 31°29' E 121°25'5914073.7
2017-Mar-21 06:29N 31°58' E 120°25'49963.6
2017-Mar-21 06:26N 31°38' E 121°18'6495.2
2017-Mar-21 06:26N 31°40' E 121°12'16185.9
2017-Mar-21 06:21N 31°29' E 121°25'460584.6
2017-Mar-21 05:33N 24°25' E 118°04'47089138.0
2017-Mar-21 05:33N 31°58' E 120°26'4810097.9
2017-Mar-21 05:33N 31°37' E 121°16'484809.9
2017-Mar-21 05:32N 31°58' E 120°25'596407.5
2017-Mar-21 05:32N 31°29' E 121°25'035.8
2017-Mar-21 05:31N 31°29' E 121°25'0 6.0
2017-Mar-21 05:29N 31°29' E 121°25'0 3.0
2017-Mar-21 05:24N 31°29' E 121°25'112104.6
2017-Mar-21 05:24N 31°38' E 121°18'9509.0
2017-Mar-21 05:23N 31°30' E 121°22'1669.1
2017-Mar-21 05:09N 31°21' E 121°38'72119.5
2017-Mar-21 04:33N 31°58' E 120°26'470188175.5
2017-Mar-21 04:33N 24°25' E 118°04'46051708.4
2017-Mar-21 04:33N 31°30' E 121°22'42460.5
2017-Mar-21 04:33N 31°34' E 121°20'6832.3
2017-Mar-21 04:32N 31°29' E 121°25'18358.3
2017-Mar-21 04:29N 31°19' E 121°42'182197.1
2017-Mar-21 04:29N 31°29' E 121°25'111121.2
2017-Mar-21 04:28N 31°38' E 121°18'466510.9
2017-Mar-21 03:34N 24°25' E 118°04'460206833.5
2017-Mar-21 03:33N 31°30' E 121°22'94047.4
2017-Mar-21 03:33N 31°38' E 121°18'101002.8
2017-Mar-21 03:33N 31°31' E 121°25'178.0
2017-Mar-21 03:32N 31°29' E 121°25'0 0.4
2017-Mar-21 03:31N 31°29' E 121°25'213342.6
2017-Mar-21 03:31N 31°16' E 121°44'363048.2
2017-Mar-21 03:30N 31°39' E 121°13'145741.9
2017-Mar-21 03:30N 31°29' E 121°25'581517.3
2017-Mar-21 03:27N 31°58' E 120°26'584884.8
2017-Mar-21 03:27N 31°29' E 121°25'460519.2
2017-Mar-21 02:33N 24°25' E 118°04'460551555.9
2017-Mar-21 02:33N 31°30' E 121°22'9498.1
2017-Mar-21 02:32N 31°38' E 121°18'493806.3
2017-Mar-21 02:32N 31°58' E 120°26'792769.4
2017-Mar-21 02:30N 31°16' E 121°44'791320.9
2017-Mar-21 02:26N 31°60' E 120°27'582330.6
2017-Mar-21 02:25N 31°29' E 121°25'10169.4
2017-Mar-21 02:21N 31°36' E 121°16'1047.6
2017-Mar-21 02:09N 31°29' E 121°25'015.8
2017-Mar-21 02:08N 31°29' E 121°25'460797.7
2017-Mar-21 01:33N 24°25' E 118°04'456102603.7
2017-Mar-21 01:33N 31°17' E 121°44'7940382.6
2017-Mar-21 01:33N 31°58' E 120°26'491805.0
2017-Mar-21 01:31N 31°38' E 121°18'9660.8
2017-Mar-21 01:31N 31°30' E 121°22'2176.2
2017-Mar-21 01:30N 31°29' E 121°25'0 0.1
2017-Mar-21 01:24N 31°29' E 121°25'024.6
2017-Mar-21 01:23N 31°29' E 121°25'0 2.6
2017-Mar-21 01:19N 31°29' E 121°25'460607.8
2017-Mar-21 00:33N 24°25' E 118°04'466419076.8
2017-Mar-21 00:33N 31°38' E 121°18'115419.4
2017-Mar-21 00:33N 31°29' E 121°25'132165.4
2017-Mar-21 00:33N 31°21' E 121°37'13695.4
2017-Mar-21 00:32N 31°29' E 121°25'0 2.7
2017-Mar-21 00:28N 31°29' E 121°25'2162.8
2017-Mar-21 00:27N 31°30' E 121°22'388.4
2017-Mar-21 00:25N 31°30' E 121°25'015.8
2017-Mar-21 00:24N 31°29' E 121°25'460548.8
2017-Mar-20 23:33N 24°25' E 118°04'46091994.2
2017-Mar-20 23:33N 31°29' E 121°25'0 1.9
2017-Mar-20 23:29N 31°29' E 121°25'10177.9
2017-Mar-20 23:25N 31°38' E 121°18'112268.6
2017-Mar-20 23:25N 31°29' E 121°25'0 1.5
2017-Mar-20 23:20N 31°29' E 121°25'14371.9
2017-Mar-20 23:17N 31°39' E 121°13'465634.7
2017-Mar-20 22:34N 24°25' E 118°04'460184061.9
2017-Mar-20 22:33N 31°29' E 121°25'105363.9
2017-Mar-20 22:33N 31°38' E 121°18'11176.1
2017-Mar-20 22:30N 31°30' E 121°25'141206.5
2017-Mar-20 22:29N 31°39' E 121°13'14118.6
2017-Mar-20 22:22N 31°29' E 121°25'0 3.6
2017-Mar-20 22:14N 31°29' E 121°25'460663.8
2017-Mar-20 21:33N 24°25' E 118°04'46622056.3
2017-Mar-20 21:31N 31°38' E 121°18'11217.5
2017-Mar-20 21:28N 31°29' E 121°25'0 4.9
2017-Mar-20 21:26N 31°30' E 121°25'065.9
2017-Mar-20 21:26N 31°29' E 121°25'0 4.1
2017-Mar-20 21:24N 31°29' E 121°25'141092.1
2017-Mar-20 21:23N 31°39' E 121°13'4 5.1
2017-Mar-20 20:33N 31°38' E 121°18'466335259.5
2017-Mar-20 20:33N 24°25' E 118°04'4606205.8
2017-Mar-20 20:29N 31°29' E 121°25'0324.0
2017-Mar-20 20:29N 31°29' E 121°25'012.1
2017-Mar-20 20:28N 31°29' E 121°25'53871212151.6
2017-Mar-20 20:27N 49°18' W 123°02'538834389.0
2017-Mar-20 20:18N 31°36' E 121°18'937.2
2017-Mar-20 20:04N 31°29' E 121°25'3 6.7
2017-Mar-20 19:33N 31°32' E 121°22'462276962.8
2017-Mar-20 19:33N 24°25' E 118°04'59001011488.8
2017-Mar-20 19:33N 49°18' W 123°02'53881293029.1
2017-Mar-20 19:33N 31°29' E 121°25'0774.1
2017-Mar-20 19:33N 31°29' E 121°25'020.1
2017-Mar-20 19:32N 31°29' E 121°25'10294.9
2017-Mar-20 19:30N 31°38' E 121°18'484.3
2017-Mar-20 19:27N 31°39' E 121°13'14125.0
2017-Mar-20 19:20N 31°29' E 121°25'0 1.8
2017-Mar-20 19:16N 31°29' E 121°25'460651.1
2017-Mar-20 18:33N 24°25' E 118°04'46082767.6
2017-Mar-20 18:33N 31°28' E 121°28'3283.3
2017-Mar-20 18:32N 31°29' E 121°25'11643.3
2017-Mar-20 18:31N 31°38' E 121°18'4185.2
2017-Mar-20 18:30N 31°40' E 121°13'143248.6
2017-Mar-20 18:30N 31°29' E 121°25'034.1
2017-Mar-20 18:29N 31°29' E 121°25'1293.1
2017-Mar-20 18:21N 31°22' E 121°36'12307.7
2017-Mar-20 18:19N 31°29' E 121°25'1114.0
2017-Mar-20 17:33N 31°38' E 121°18'466419091.8
2017-Mar-20 17:33N 24°25' E 118°04'46020199.4
2017-Mar-20 17:32N 31°29' E 121°25'055.8
2017-Mar-20 17:32N 31°29' E 121°25'010.5
2017-Mar-20 17:31N 31°29' E 121°25'19247.0
2017-Mar-20 17:26N 31°19' E 121°43'191551.2
2017-Mar-20 17:26N 31°29' E 121°25'14523.9
2017-Mar-20 17:24N 31°40' E 121°13'15265.8
2017-Mar-20 17:21N 31°29' E 121°25'460582.6
2017-Mar-20 16:33N 24°25' E 118°04'45658661.6
2017-Mar-20 16:33N 31°18' E 121°44'303880.9
2017-Mar-20 16:32N 31°38' E 121°18'11440.9
2017-Mar-20 16:31N 31°29' E 121°25'0 2.3
2017-Mar-20 16:28N 31°29' E 121°25'14656.4
2017-Mar-20 16:26N 31°40' E 121°13'15357.3
2017-Mar-20 16:24N 31°29' E 121°25'460543.2
2017-Mar-20 15:33N 24°25' E 118°04'46027162.0
2017-Mar-20 15:32N 31°29' E 121°25'12260.0
2017-Mar-20 15:29N 31°22' E 121°36'2310186.1
2017-Mar-20 15:29N 31°38' E 121°18'114219.0
2017-Mar-20 15:29N 31°29' E 121°25'040.6
2017-Mar-20 15:29N 31°29' E 121°25'141997.9
2017-Mar-20 15:28N 31°40' E 121°13'337.6
2017-Mar-20 15:24N 31°41' E 121°10'17186.1
2017-Mar-20 15:19N 31°29' E 121°25'28127.6
2017-Mar-20 15:06N 31°19' E 120°55'441817.3
2017-Mar-20 14:33N 24°25' E 118°04'46043579.2
2017-Mar-20 14:33N 31°29' E 121°25'022.0
2017-Mar-20 14:32N 31°29' E 121°25'265440.1
2017-Mar-20 14:31N 31°20' E 120°57'256983.0
2017-Mar-20 14:31N 31°38' E 121°18'41281.5
2017-Mar-20 14:31N 31°40' E 121°13'1594.7
2017-Mar-20 14:22N 31°29' E 121°25'1490.9
2017-Mar-20 14:12N 31°39' E 121°13'465713.3
2017-Mar-20 13:33N 24°25' E 118°04'46562000.3
2017-Mar-20 13:33N 31°39' E 121°13'4392.6
2017-Mar-20 13:32N 31°38' E 121°18'115409.5
2017-Mar-20 13:32N 31°29' E 121°25'017.5
2017-Mar-20 13:32N 31°29' E 121°25'4926537347.7
2017-Mar-20 13:31S 20°14' E 057°21'4926213654.0
2017-Mar-20 13:30N 31°29' E 121°25'15243.1
2017-Mar-20 13:26N 31°40' E 121°13'49155556.9
2017-Mar-20 12:33S 20°09' E 057°27'45121804791.6
2017-Mar-20 12:33N 24°25' E 118°04'460207044.1
2017-Mar-20 12:33N 31°29' E 121°25'14254.6
2017-Mar-20 12:29N 31°40' E 121°13'151537.3
2017-Mar-20 12:29N 31°29' E 121°25'11035.3
2017-Mar-20 12:29N 31°28' E 121°25'115.5
2017-Mar-20 12:25N 31°29' E 121°25'11117.7
2017-Mar-20 12:19N 31°38' E 121°18'111024.4
2017-Mar-20 12:19N 31°29' E 121°25'460611.5
2017-Mar-20 11:34N 24°25' E 118°04'466279602.9
2017-Mar-20 11:33N 31°40' E 121°14'110.7
2017-Mar-20 11:30N 31°40' E 121°13'462.5
2017-Mar-20 11:26N 31°38' E 121°18'111996.6
2017-Mar-20 11:26N 31°29' E 121°25'062.6
2017-Mar-20 11:26N 31°29' E 121°25'093.9
2017-Mar-20 11:26N 31°29' E 121°25'0 5.7
2017-Mar-20 11:24N 31°29' E 121°25'127.7
2017-Mar-20 11:22N 31°28' E 121°25'459573.1
2017-Mar-20 10:33N 24°25' E 118°04'4668736.9
2017-Mar-20 10:30N 31°40' E 121°13'1526149.7
2017-Mar-20 10:30N 31°29' E 121°25'1374.5
2017-Mar-20 10:30N 31°28' E 121°25'1275.2
2017-Mar-20 10:30N 31°29' E 121°25'111145.8
2017-Mar-20 10:29N 31°38' E 121°18'101511.1
2017-Mar-20 10:29N 31°29' E 121°25'20763.9
2017-Mar-20 10:27N 31°10' E 121°28'14475.0
2017-Mar-20 10:25N 31°24' E 121°31'827.2
2017-Mar-20 10:09N 31°29' E 121°25'5899.2
2017-Mar-20 09:33N 31°58' E 120°26'4919439.8
2017-Mar-20 09:33N 31°38' E 121°18'114817.3
2017-Mar-20 09:33N 31°29' E 121°25'460828476.4
2017-Mar-20 09:33N 24°25' E 118°04'45927555.7
2017-Mar-20 09:32N 31°28' E 121°25'157.6
2017-Mar-20 09:31N 31°29' E 121°25'0 4.2
2017-Mar-20 09:29N 31°29' E 121°25'075.2
2017-Mar-20 09:29N 31°30' E 121°25'17105.9
2017-Mar-20 09:19N 31°13' E 121°30'11123.1
2017-Mar-20 09:14N 31°24' E 121°31'6596.9
2017-Mar-20 08:33N 31°58' E 120°26'470338720.1
2017-Mar-20 08:33N 24°25' E 118°04'457274068.7
2017-Mar-20 08:33N 31°24' E 121°31'92800.3
2017-Mar-20 08:33N 31°15' E 121°31'261880.5
2017-Mar-20 08:32N 31°38' E 121°18'101632.5
2017-Mar-20 08:32N 31°29' E 121°25'077.2
2017-Mar-20 08:32N 31°29' E 121°25'7447.4
2017-Mar-20 08:31N 31°24' E 121°31'7211.7
2017-Mar-20 08:29N 31°29' E 121°25'1415.1
2017-Mar-20 07:34N 31°21' E 121°38'457149600.4
2017-Mar-20 07:33N 24°25' E 118°04'47049812.4
2017-Mar-20 07:33N 31°58' E 120°26'442188.4
2017-Mar-20 07:32N 31°40' E 121°13'4905.1
2017-Mar-20 07:31N 31°38' E 121°18'1861.7
2017-Mar-20 07:14N 31°24' E 121°31'19284.2
2017-Mar-20 07:10N 31°38' E 121°15'465765.4
2017-Mar-20 06:33N 24°25' E 118°04'47065139.3
2017-Mar-20 06:33N 31°58' E 120°26'4911675.6
2017-Mar-20 06:33N 31°38' E 121°18'22304.0
2017-Mar-20 06:33N 31°36' E 121°18'9558.1
2017-Mar-20 06:32N 31°29' E 121°25'0 6.4
2017-Mar-20 06:27N 31°29' E 121°25'0 0.8
2017-Mar-20 06:17N 31°29' E 121°25'760.4
2017-Mar-20 06:09N 31°24' E 121°31'2236.4
2017-Mar-20 05:33N 31°40' E 121°13'466335499.2
2017-Mar-20 05:33N 24°25' E 118°04'46069005.0
2017-Mar-20 05:33N 31°29' E 121°25'1787.3
2017-Mar-20 05:33N 31°28' E 121°25'5915142.0
2017-Mar-20 05:33N 31°58' E 120°26'538004.8
2017-Mar-20 05:32N 31°32' E 121°20'121008.7
2017-Mar-20 05:31N 31°23' E 121°30'18495.8
2017-Mar-20 05:29N 31°38' E 121°18'11482.3
2017-Mar-20 05:28N 31°29' E 121°25'0 5.7
2017-Mar-20 05:26N 31°29' E 121°25'460526.5
2017-Mar-20 04:33N 24°25' E 118°04'470112906.7
2017-Mar-20 04:33N 31°58' E 120°26'493725.9
2017-Mar-20 04:32N 31°38' E 121°18'11403.8
2017-Mar-20 04:31N 31°29' E 121°25'5487.7
2017-Mar-20 04:30N 31°31' E 121°20'1096.2
2017-Mar-20 04:24N 31°40' E 121°13'20445.0
2017-Mar-20 04:21N 31°26' E 121°29'458579.0
2017-Mar-20 03:34N 24°25' E 118°04'46071949.4
2017-Mar-20 03:33N 31°29' E 121°25'1110.6
2017-Mar-20 03:33N 31°29' E 121°25'026.1
2017-Mar-20 03:32N 31°29' E 121°25'11199.1
2017-Mar-20 03:28N 31°22' E 121°36'26803.4
2017-Mar-20 03:26N 31°40' E 121°13'4117.4
2017-Mar-20 03:24N 31°38' E 121°18'1164.5
2017-Mar-20 03:14N 31°29' E 121°25'0205.3
2017-Mar-20 03:14N 31°29' E 121°25'16115.0
2017-Mar-20 03:06N 31°20' E 121°40'2036.3
2017-Mar-20 02:33N 31°32' E 121°21'52377.6
2017-Mar-20 02:33N 31°29' E 121°25'163709.0
2017-Mar-20 02:33N 31°21' E 121°42'459236009.1
2017-Mar-20 02:33N 24°25' E 118°04'46027162.7
2017-Mar-20 02:32N 31°29' E 121°25'11302.4
2017-Mar-20 02:30N 31°38' E 121°18'11220.7
2017-Mar-20 02:27N 31°29' E 121°25'14196.9
2017-Mar-20 02:22N 31°40' E 121°13'26576.7
2017-Mar-20 02:20N 31°22' E 121°36'457593.6
2017-Mar-20 01:33N 24°25' E 118°04'463166821.2
2017-Mar-20 01:33N 31°36' E 121°17'285516.1
2017-Mar-20 01:33N 31°21' E 121°44'122465.8
2017-Mar-20 01:33N 31°24' E 121°31'183218.5
2017-Mar-20 01:32N 31°38' E 121°18'222939.5
2017-Mar-20 01:32N 31°22' E 121°36'121840.9
2017-Mar-20 01:31N 31°29' E 121°25'014.9
2017-Mar-20 01:31N 31°29' E 121°25'14362.7
2017-Mar-20 01:29N 31°40' E 121°13'152613.4
2017-Mar-20 01:28N 31°29' E 121°25'517.3
2017-Mar-20 01:12N 31°32' E 121°21'5224.4
2017-Mar-20 01:11N 31°29' E 121°25'460730.2
2017-Mar-20 00:33N 24°25' E 118°04'465104633.8
2017-Mar-20 00:33N 31°39' E 121°13'309921.2
2017-Mar-20 00:33N 31°21' E 121°42'27534.4
2017-Mar-20 00:30N 31°38' E 121°18'222489.6
2017-Mar-20 00:29N 31°22' E 121°36'121578.4
2017-Mar-20 00:29N 31°29' E 121°25'056.3
2017-Mar-20 00:29N 31°29' E 121°25'018.5
2017-Mar-20 00:28N 31°29' E 121°25'15420.0
2017-Mar-20 00:26N 31°40' E 121°13'14244.9
2017-Mar-20 00:22N 31°29' E 121°25'19128.9
2017-Mar-20 00:13N 31°43' E 121°08'467699.9
2017-Mar-19 23:33N 24°25' E 118°04'45721104.1
2017-Mar-19 23:32N 31°22' E 121°36'263149.8
2017-Mar-19 23:31N 31°40' E 121°13'14624.0
2017-Mar-19 23:30N 31°29' E 121°25'161386.9
2017-Mar-19 23:29N 31°20' E 121°40'16147.1
2017-Mar-19 23:23N 31°29' E 121°25'8226.0
2017-Mar-19 23:21N 31°24' E 121°31'181574.5
2017-Mar-19 23:20N 31°38' E 121°18'56912.9
2017-Mar-19 23:16N 31°01' E 122°07'46485.7
2017-Mar-19 23:11N 31°29' E 121°25'1320.2
2017-Mar-19 22:33N 31°22' E 121°37'4571646355.5
2017-Mar-19 22:33N 24°25' E 118°04'451202983.8
2017-Mar-19 22:33N 31°04' E 122°02'481282.8
2017-Mar-19 22:31N 31°34' E 121°19'7390.1
2017-Mar-19 22:30N 31°29' E 121°25'111514.6
2017-Mar-19 22:29N 31°38' E 121°18'181344.2
2017-Mar-19 22:29N 31°24' E 121°31'5714.4
2017-Mar-19 22:28N 31°22' E 121°36'12275.4
2017-Mar-19 22:26N 31°29' E 121°25'7 8.3
2017-Mar-19 21:33N 31°24' E 121°31'457411735.3
2017-Mar-19 21:33N 24°25' E 118°04'451180568.3
2017-Mar-19 21:33N 31°07' E 121°55'341059.3
2017-Mar-19 21:31N 31°30' E 121°25'10590.5
2017-Mar-19 21:30N 31°38' E 121°18'10439.5
2017-Mar-19 21:29N 31°29' E 121°25'0 2.8
2017-Mar-19 21:19N 31°29' E 121°25'1114.1
2017-Mar-19 20:33N 31°38' E 121°18'466419124.3
2017-Mar-19 20:33N 24°25' E 118°04'453543485.2
2017-Mar-19 20:33N 31°11' E 121°50'281395.8
2017-Mar-19 20:32N 31°29' E 121°25'8147.9
2017-Mar-19 20:29N 31°24' E 121°31'6118328745.2
2017-Mar-19 20:28N 33°28' W 117°42'612095384.2
2017-Mar-19 20:24N 31°30' E 121°25'0 2.2
2017-Mar-19 20:13N 31°29' E 121°25'20230.5
2017-Mar-19 20:08N 31°43' E 121°08'1016.7
2017-Mar-19 19:33N 31°38' E 121°18'466335295.5
2017-Mar-19 19:33N 24°25' E 118°04'455136421.3
2017-Mar-19 19:33N 31°15' E 121°46'372250.5
2017-Mar-19 19:32N 31°39' E 121°14'31104.5
2017-Mar-19 19:32N 31°41' E 121°10'17447.2
2017-Mar-19 19:30N 31°29' E 121°25'8140.3
2017-Mar-19 19:26N 31°24' E 121°31'611880386.7
2017-Mar-19 19:22N 33°28' W 117°42'6120333845.1
2017-Mar-19 19:21N 31°29' E 121°25'021.1
2017-Mar-19 19:20N 31°29' E 121°25'0 0.1
2017-Mar-19 18:33N 31°29' E 121°25'1816576.2
2017-Mar-19 18:33N 31°18' E 121°42'196742.2
2017-Mar-19 18:33N 31°29' E 121°25'135673.2
2017-Mar-19 18:33N 31°39' E 121°14'465239220.4
2017-Mar-19 18:33N 24°25' E 118°04'46667059.1
2017-Mar-19 18:32N 31°38' E 121°18'3273.4
2017-Mar-19 18:32N 31°35' E 121°18'22568.8
2017-Mar-19 18:29N 31°15' E 121°30'15313.4
2017-Mar-19 18:26N 31°29' E 121°25'0 5.9
2017-Mar-19 18:23N 31°30' E 121°25'7152.0
2017-Mar-19 18:20N 31°24' E 121°31'611890270.3
2017-Mar-19 18:16N 33°28' W 117°42'65469241.5
2017-Mar-19 17:33N 24°25' E 118°04'45832946.4
2017-Mar-19 17:33N 31°22' E 121°38'2280229.0
2017-Mar-19 17:33N 31°36' E 121°18'7991.4
2017-Mar-19 17:32N 31°31' E 121°24'81006.0
2017-Mar-19 17:32N 31°38' E 121°18'106266.9
2017-Mar-19 17:32N 31°29' E 121°25'0 4.5
2017-Mar-19 17:30N 31°29' E 121°25'612145430.5
2017-Mar-19 17:22N 33°28' W 117°42'611878382.7
2017-Mar-19 17:17N 31°24' E 121°31'114.3
2017-Mar-19 17:15N 31°24' E 121°31'1 1.9
2017-Mar-19 16:33N 31°25' E 121°31'177728.7
2017-Mar-19 16:33N 31°38' E 121°18'46698605.7
2017-Mar-19 16:33N 24°25' E 118°04'46283137.1
2017-Mar-19 16:32N 31°33' E 121°21'5794.8
2017-Mar-19 16:32N 31°29' E 121°25'012.7
2017-Mar-19 16:31N 31°29' E 121°25'0173.1
2017-Mar-19 16:31N 31°29' E 121°25'6121127364.5
2017-Mar-19 16:28N 33°28' W 117°42'612086063.8
2017-Mar-19 16:24N 31°29' E 121°25'215.5
2017-Mar-19 16:16N 31°28' E 121°27'313.4
2017-Mar-19 16:04N 31°27' E 121°29'4 7.9
2017-Mar-19 15:33N 31°29' E 121°25'67367.9
2017-Mar-19 15:33N 31°25' E 121°31'65718.4
2017-Mar-19 15:33N 31°29' E 121°25'2258.7
2017-Mar-19 15:33N 31°30' E 121°23'079.2
2017-Mar-19 15:33N 31°30' E 121°23'970.2
2017-Mar-19 15:25N 31°38' E 121°18'86750.7
2017-Mar-19 15:25N 31°31' E 121°21'3399.4
2017-Mar-19 15:24N 31°29' E 121°25'0 1.1
2017-Mar-19 15:17N 31°29' E 121°25'6121400619.7
2017-Mar-19 15:16N 33°28' W 117°42'612050883.8
2017-Mar-19 15:09N 31°29' E 121°25'460785.3
2017-Mar-19 14:34N 24°25' E 118°04'462415605.7
2017-Mar-19 14:33N 31°33' E 121°19'32273.9
2017-Mar-19 14:33N 31°35' E 121°17'9752.2
2017-Mar-19 14:33N 31°29' E 121°25'156.5
2017-Mar-19 14:31N 31°28' E 121°25'5230.8
2017-Mar-19 14:30N 31°32' E 121°21'41625.1
2017-Mar-19 14:30N 31°29' E 121°25'6121191600.8
2017-Mar-19 14:28N 33°28' W 117°42'6120147876.1
2017-Mar-19 14:25N 31°29' E 121°25'9136.8
2017-Mar-19 14:21N 31°36' E 121°17'2 3.0
2017-Mar-19 13:33N 31°38' E 121°15'464417922.1
2017-Mar-19 13:33N 24°25' E 118°04'466839160.3
2017-Mar-19 13:33N 31°41' E 121°09'1810602.8
2017-Mar-19 13:33N 31°29' E 121°25'141736.9
2017-Mar-19 13:33N 31°39' E 121°12'14446.0
2017-Mar-19 13:31N 31°29' E 121°25'111186.0
2017-Mar-19 13:30N 31°38' E 121°18'1186.4
2017-Mar-19 13:23N 31°29' E 121°25'162.2
2017-Mar-19 13:22N 31°28' E 121°25'612163867.8
2017-Mar-19 13:16N 33°28' W 117°42'65469230.7
2017-Mar-19 12:33N 24°25' E 118°04'45939362.7
2017-Mar-19 12:33N 31°28' E 121°25'146.1
2017-Mar-19 12:31N 31°29' E 121°25'036.9
2017-Mar-19 12:31N 31°30' E 121°25'11264.4
2017-Mar-19 12:28N 31°38' E 121°18'11187.4
2017-Mar-19 12:25N 31°29' E 121°25'6121125193.6
2017-Mar-19 12:22N 33°28' W 117°42'65468106.6
2017-Mar-19 11:34N 24°25' E 118°04'46039428.8
2017-Mar-19 11:33N 31°29' E 121°25'0 9.4
2017-Mar-19 11:31N 31°29' E 121°25'050.1
2017-Mar-19 11:31N 31°29' E 121°25'1105.3
2017-Mar-19 11:30N 31°28' E 121°25'6121180609.7
2017-Mar-19 11:28N 33°28' W 117°42'6121137732.9
2017-Mar-19 11:25N 31°38' E 121°18'466539.0
2017-Mar-19 10:33N 24°25' E 118°04'46698608.7
2017-Mar-19 10:33N 31°38' E 121°18'11464.0
2017-Mar-19 10:32N 31°30' E 121°25'612095380.7
2017-Mar-19 10:28N 33°28' W 117°42'6120319330.3
2017-Mar-19 10:27N 31°29' E 121°25'0 2.5
2017-Mar-19 10:24N 31°29' E 121°25'460548.6
2017-Mar-19 09:33N 24°25' E 118°04'466279406.2
2017-Mar-19 09:33N 31°38' E 121°18'10246.2
2017-Mar-19 09:31N 31°29' E 121°25'110.0
2017-Mar-19 09:23N 31°28' E 121°25'1 4.7
2017-Mar-19 09:06N 31°29' E 121°25'1018.3
2017-Mar-19 08:33N 31°37' E 121°17'10439.0
2017-Mar-19 08:32N 31°30' E 121°25'612036061.5
2017-Mar-19 08:22N 33°28' W 117°42'6121361217.7
2017-Mar-19 08:21N 31°29' E 121°25'143.7
2017-Mar-19 08:19N 31°28' E 121°25'160.8
2017-Mar-19 08:18N 31°30' E 121°25'460622.7
2017-Mar-19 07:33N 24°25' E 118°04'46051766.4
2017-Mar-19 07:33N 31°29' E 121°25'5355.4
2017-Mar-19 07:32N 31°33' E 121°21'54534.2
2017-Mar-19 07:32N 31°30' E 121°25'0 1.9
2017-Mar-19 07:22N 31°29' E 121°25'111.9
2017-Mar-19 07:15N 31°28' E 121°25'17457.2
2017-Mar-19 07:13N 31°41' E 121°11'1523.6
2017-Mar-19 06:33N 31°30' E 121°24'46038541.2
2017-Mar-19 06:32N 24°25' E 118°04'4703038.1
2017-Mar-19 06:23N 31°58' E 120°24'50740.1
2017-Mar-19 06:19N 31°37' E 121°17'10303.0
2017-Mar-19 06:17N 31°29' E 121°25'1 7.6
2017-Mar-19 06:07N 31°28' E 121°25'59106.5
2017-Mar-19 05:33N 31°58' E 120°26'5813044.4
2017-Mar-19 05:33N 31°29' E 121°25'091.6
2017-Mar-19 05:33N 31°29' E 121°25'460207115.6
2017-Mar-19 05:33N 24°25' E 118°04'4607427.6
2017-Mar-19 05:29N 31°29' E 121°25'4802.5
2017-Mar-19 05:29N 31°32' E 121°21'6122579937.9
2017-Mar-19 05:28N 33°28' W 117°42'6121154086.6
2017-Mar-19 05:26N 31°28' E 121°25'223.7
2017-Mar-19 05:21N 31°30' E 121°24'460582.1
2017-Mar-19 04:33N 24°25' E 118°04'459183692.4
2017-Mar-19 04:33N 31°28' E 121°25'153.8
2017-Mar-19 04:31N 31°29' E 121°27'256.6
2017-Mar-19 04:30N 31°29' E 121°25'018.0
2017-Mar-19 04:29N 31°29' E 121°25'1100.0
2017-Mar-19 04:29N 31°30' E 121°24'6121667715.4
2017-Mar-19 04:28N 33°28' W 117°42'6121165669.7
2017-Mar-19 04:26N 31°29' E 121°25'460527.2
2017-Mar-19 03:33N 24°25' E 118°04'46016564.1
2017-Mar-19 03:32N 31°29' E 121°25'1643.8
2017-Mar-19 03:32N 31°28' E 121°25'5431.9
2017-Mar-19 03:31N 31°26' E 121°31'6250.7
2017-Mar-19 03:29N 31°29' E 121°25'166.3
2017-Mar-19 03:29N 31°30' E 121°24'6121489653.9
2017-Mar-19 03:28N 33°28' W 117°42'6120109615.5
2017-Mar-19 03:25N 31°29' E 121°25'460535.4
2017-Mar-19 02:33N 24°25' E 118°04'46097437.2
2017-Mar-19 02:33N 31°29' E 121°25'146.3
2017-Mar-19 02:32N 31°30' E 121°24'126.4
2017-Mar-19 02:30N 31°29' E 121°25'0 5.8
2017-Mar-19 02:27N 31°29' E 121°25'151255.1
2017-Mar-19 02:26N 31°15' E 121°29'1444.1
2017-Mar-19 02:07N 31°28' E 121°25'1 2.3
2017-Mar-19 01:33N 31°29' E 121°25'1144.3
2017-Mar-19 01:33N 31°30' E 121°24'1790.3
2017-Mar-19 01:33N 31°29' E 121°25'336947.7
2017-Mar-19 01:33N 31°06' E 120°58'42967208.5
2017-Mar-19 01:32N 24°25' E 118°04'46015780.2
2017-Mar-19 01:31N 31°29' E 121°25'71117.1
2017-Mar-19 01:30N 31°33' E 121°19'46719567.3
2017-Mar-19 01:29N 24°17' E 118°10'4541272.3
2017-Mar-19 01:07N 31°15' E 121°30'151255.0
2017-Mar-19 01:07N 31°30' E 121°25'461828.2
2017-Mar-19 00:33N 24°23' E 118°07'3281.0
2017-Mar-19 00:33N 24°25' E 118°04'460138092.7
2017-Mar-19 00:33N 31°30' E 121°24'144.0
2017-Mar-19 00:32N 31°29' E 121°25'194.3
2017-Mar-19 00:31N 31°28' E 121°25'144.2
2017-Mar-19 00:29N 31°29' E 121°25'134140.1
2017-Mar-19 00:29N 31°38' E 121°14'6124400861.0
2017-Mar-19 00:28N 33°28' W 117°42'612781094.4
2017-Mar-19 00:23N 31°12' E 121°29'18644.0
2017-Mar-19 00:22N 31°29' E 121°25'460572.1
2017-Mar-18 23:34N 24°25' E 118°04'65442.2
2017-Mar-18 23:33N 24°24' E 117°58'46345049.8
2017-Mar-18 23:33N 31°29' E 121°25'132.0
2017-Mar-18 23:31N 31°30' E 121°24'236.8
2017-Mar-18 23:28N 31°28' E 121°25'130.6
2017-Mar-18 23:26N 31°29' E 121°25'0 8.5
2017-Mar-18 23:24N 31°29' E 121°25'460547.4
2017-Mar-18 22:33N 24°25' E 118°04'46066241.3
2017-Mar-18 22:33N 31°29' E 121°25'46442806.7
2017-Mar-18 22:32N 24°26' E 117°50'46423850.6
2017-Mar-18 22:31N 31°29' E 121°24'1125.5
2017-Mar-18 22:31N 31°28' E 121°25'143.0
2017-Mar-18 22:29N 31°29' E 121°25'0 0.8
2017-Mar-18 22:13N 31°30' E 121°25'460703.0
2017-Mar-18 21:33N 24°25' E 118°04'46075283.3
2017-Mar-18 21:33N 31°29' E 121°25'81312.2
2017-Mar-18 21:33N 31°24' E 121°32'8178.0
2017-Mar-18 21:30N 31°29' E 121°25'146.4
2017-Mar-18 21:28N 31°28' E 121°25'140.8
2017-Mar-18 21:26N 31°30' E 121°25'121.3
2017-Mar-18 21:24N 31°30' E 121°24'114.2
2017-Mar-18 21:21N 31°30' E 121°25'460584.2
2017-Mar-18 20:34N 24°25' E 118°04'46026294.0
2017-Mar-18 20:32N 31°29' E 121°25'1808.3
2017-Mar-18 20:32N 31°28' E 121°25'1685.6
2017-Mar-18 20:32N 31°30' E 121°25'017.2
2017-Mar-18 20:31N 31°29' E 121°25'1 7.1
2017-Mar-18 20:25N 31°30' E 121°24'460527.3
2017-Mar-18 19:33N 24°25' E 118°04'460828527.5
2017-Mar-18 19:33N 31°30' E 121°25'018.1
2017-Mar-18 19:32N 31°29' E 121°25'143.7
2017-Mar-18 19:30N 31°28' E 121°25'238.8
2017-Mar-18 19:27N 31°30' E 121°24'117.1
2017-Mar-18 19:24N 31°29' E 121°25'460544.6
2017-Mar-18 18:33N 24°25' E 118°04'45925435.2
2017-Mar-18 18:32N 31°28' E 121°25'155.7
2017-Mar-18 18:31N 31°29' E 121°25'138.5
2017-Mar-18 18:30N 31°30' E 121°24'158.5
2017-Mar-18 18:29N 31°29' E 121°25'0 4.9
2017-Mar-18 18:26N 31°30' E 121°25'1641.7
2017-Mar-18 18:04N 31°14' E 121°29'718536.4
2017-Mar-18 18:03N 31°58' E 120°24'470950.6
2017-Mar-18 17:33N 24°25' E 118°04'4707231.0
2017-Mar-18 17:30N 31°58' E 120°24'59921.6
2017-Mar-18 17:26N 31°30' E 121°25'0 5.6
2017-Mar-18 17:24N 31°29' E 121°25'131.0
2017-Mar-18 17:22N 31°30' E 121°24'138.9
2017-Mar-18 17:21N 31°30' E 121°25'0 6.0
2017-Mar-18 17:19N 31°29' E 121°25'460607.9
2017-Mar-18 16:33N 24°25' E 118°04'46038521.2
2017-Mar-18 16:33N 31°29' E 121°25'132.5
2017-Mar-18 16:31N 31°30' E 121°24'1115.4
2017-Mar-18 16:31N 31°29' E 121°25'147.7
2017-Mar-18 16:29N 31°28' E 121°25'1159.3
2017-Mar-18 16:29N 31°29' E 121°25'460499.7
2017-Mar-18 15:34N 24°25' E 118°04'459206661.4
2017-Mar-18 15:33N 31°28' E 121°25'144.7
2017-Mar-18 15:32N 31°29' E 121°25'151.1
2017-Mar-18 15:31N 31°30' E 121°24'125.2
2017-Mar-18 15:29N 31°29' E 121°25'0 6.1
2017-Mar-18 15:27N 31°29' E 121°25'460519.3
2017-Mar-18 14:34N 24°25' E 118°04'47434147.3
2017-Mar-18 14:33N 32°03' E 120°25'611421.2
2017-Mar-18 14:30N 31°29' E 121°25'1307.3
2017-Mar-18 14:30N 31°28' E 121°25'124.2
2017-Mar-18 14:27N 31°29' E 121°25'123.7
2017-Mar-18 14:25N 31°30' E 121°24'1 6.4
2017-Mar-18 14:18N 31°29' E 121°25'13109.3
2017-Mar-18 14:11N 31°22' E 121°37'457729.0
2017-Mar-18 13:33N 24°25' E 118°04'46020719.3
2017-Mar-18 13:32N 31°31' E 121°22'385.6
2017-Mar-18 13:30N 31°29' E 121°25'097.6
2017-Mar-18 13:30N 31°29' E 121°25'1148.6
2017-Mar-18 13:29N 31°28' E 121°25'127.6
2017-Mar-18 13:27N 31°29' E 121°25'0 1.9
2017-Mar-18 13:21N 31°30' E 121°25'1 5.4
2017-Mar-18 13:14N 31°30' E 121°24'460685.4
2017-Mar-18 12:33N 24°25' E 118°04'46012748.5
2017-Mar-18 12:31N 31°30' E 121°24'137.4
2017-Mar-18 12:30N 31°29' E 121°25'0427.0
2017-Mar-18 12:30N 31°29' E 121°25'102094.4
2017-Mar-18 12:29N 31°36' E 121°16'11530.6
2017-Mar-18 12:28N 31°28' E 121°25'1 4.8
2017-Mar-18 12:13N 31°29' E 121°25'460699.4
2017-Mar-18 11:33N 24°25' E 118°04'457273913.3
2017-Mar-18 11:33N 31°19' E 121°42'18987.7
2017-Mar-18 11:32N 31°29' E 121°25'016.0
2017-Mar-18 11:32N 31°29' E 121°25'114.6
2017-Mar-18 11:29N 31°30' E 121°24'22329.9
2017-Mar-18 11:29N 31°28' E 121°25'123.1
2017-Mar-18 11:25N 31°30' E 121°25'11452.0
2017-Mar-18 11:24N 31°23' E 121°34'10227.6
2017-Mar-18 11:21N 31°30' E 121°25'460583.2
2017-Mar-18 10:34N 24°25' E 118°04'45635684.2
2017-Mar-18 10:33N 31°17' E 121°46'2211349.8
2017-Mar-18 10:33N 31°29' E 121°25'145.5
2017-Mar-18 10:31N 31°28' E 121°25'1269.8
2017-Mar-18 10:31N 31°30' E 121°25'0 2.2
2017-Mar-18 10:28N 31°29' E 121°25'134.1
2017-Mar-18 10:27N 31°30' E 121°24'129.5
2017-Mar-18 10:25N 31°29' E 121°25'460537.8
2017-Mar-18 09:34N 24°25' E 118°04'45760929.1
2017-Mar-18 09:33N 31°20' E 121°39'9230.8
2017-Mar-18 09:31N 31°23' E 121°30'89683.3
2017-Mar-18 09:31N 31°29' E 121°25'4647913.0
2017-Mar-18 09:27N 24°26' E 117°50'1313.8
2017-Mar-18 08:33N 24°25' E 118°04'4572521.0
2017-Mar-18 08:22N 31°21' E 121°40'169408.5
2017-Mar-18 08:22N 31°29' E 121°25'91177.7
2017-Mar-18 08:21N 31°23' E 121°33'960.1
2017-Mar-18 08:12N 31°29' E 121°25'0 2.5
2017-Mar-18 08:08N 31°30' E 121°25'120.1
2017-Mar-18 08:05N 31°30' E 121°24'460865.9
2017-Mar-18 07:33N 24°25' E 118°04'47153033.4
2017-Mar-18 07:33N 31°59' E 120°27'7911435.6
2017-Mar-18 07:32N 31°17' E 121°45'222005.9
2017-Mar-18 07:32N 31°29' E 121°25'181646.2
2017-Mar-18 07:31N 31°12' E 121°29'44920735.2
2017-Mar-18 07:30N 24°26' E 117°50'4644540.4
2017-Mar-18 07:24N 31°30' E 121°24'22112.8
2017-Mar-18 07:12N 31°45' E 121°06'11181.1
2017-Mar-18 07:08N 31°38' E 121°15'11185.3
2017-Mar-18 07:05N 31°29' E 121°25'1833.9
2017-Mar-18 06:33N 31°19' E 121°41'4571644233.6
2017-Mar-18 06:33N 24°25' E 118°04'46634252.5
2017-Mar-18 06:32N 31°41' E 121°11'151288.6
2017-Mar-18 06:32N 31°30' E 121°24'5209.2
2017-Mar-18 06:30N 31°34' E 121°20'112.9
2017-Mar-18 06:26N 31°35' E 121°19'7113.1
2017-Mar-18 06:22N 31°30' E 121°25'0 9.1
2017-Mar-18 06:20N 31°29' E 121°25'1 5.4
2017-Mar-18 06:05N 31°28' E 121°25'459861.1
2017-Mar-18 05:33N 24°25' E 118°04'4631667325.8
2017-Mar-18 05:33N 31°35' E 121°19'212372.9
2017-Mar-18 05:33N 31°21' E 121°38'14367.2
2017-Mar-18 05:31N 31°30' E 121°24'1231.6
2017-Mar-18 05:30N 31°29' E 121°25'0 4.8
2017-Mar-18 05:29N 31°29' E 121°25'165.4
2017-Mar-18 05:28N 31°28' E 121°25'9707.4
2017-Mar-18 05:27N 31°23' E 121°34'1054.9
2017-Mar-18 05:16N 31°29' E 121°25'460654.1
2017-Mar-18 04:33N 24°25' E 118°04'45742214.6
2017-Mar-18 04:33N 31°24' E 121°32'9995.6
2017-Mar-18 04:32N 31°30' E 121°25'177.2
2017-Mar-18 04:31N 31°29' E 121°26'1452.4
2017-Mar-18 04:31N 31°29' E 121°25'122.8
2017-Mar-18 04:29N 31°30' E 121°24'1176.1
2017-Mar-18 04:29N 31°29' E 121°25'0 1.4
2017-Mar-18 04:20N 31°29' E 121°25'111.4
2017-Mar-18 04:14N 31°30' E 121°24'460677.6
2017-Mar-18 03:33N 24°25' E 118°04'46027139.7
2017-Mar-18 03:32N 31°29' E 121°24'81910.5
2017-Mar-18 03:32N 31°24' E 121°32'81581.1
2017-Mar-18 03:32N 31°29' E 121°25'042.9
2017-Mar-18 03:32N 31°29' E 121°25'1109.8
2017-Mar-18 03:31N 31°30' E 121°24'110.7
2017-Mar-18 03:25N 31°29' E 121°25'139.9
2017-Mar-18 03:23N 31°30' E 121°24'4643231.6
2017-Mar-18 03:15N 24°26' E 117°50'4565490.6
2017-Mar-18 03:10N 31°17' E 121°34'452742.6
2017-Mar-18 02:33N 24°25' E 118°04'46313889.4
2017-Mar-18 02:31N 31°35' E 121°17'81911.3
2017-Mar-18 02:31N 31°29' E 121°25'118.1
2017-Mar-18 02:29N 31°30' E 121°24'0 4.4
2017-Mar-18 02:24N 31°30' E 121°24'460544.1
2017-Mar-18 01:33N 24°25' E 118°04'46055213.1
2017-Mar-18 01:33N 31°29' E 121°25'026.7
2017-Mar-18 01:32N 31°29' E 121°25'167.7
2017-Mar-18 01:32N 31°30' E 121°24'012.1
2017-Mar-18 01:30N 31°30' E 121°24'1 8.2
2017-Mar-18 01:22N 31°29' E 121°25'460565.4
2017-Mar-18 00:34N 24°25' E 118°04'13430.8
2017-Mar-18 00:32N 24°26' E 117°50'464167068.3
2017-Mar-18 00:32N 31°30' E 121°24'127.1
2017-Mar-18 00:30N 31°29' E 121°25'175.4
2017-Mar-18 00:29N 31°30' E 121°24'045.6
2017-Mar-18 00:29N 31°30' E 121°24'232314.5
2017-Mar-18 00:28N 31°08' E 121°28'22260.4
2017-Mar-18 00:23N 31°29' E 121°25'0 5.6
2017-Mar-18 00:21N 31°29' E 121°25'460583.9
2017-Mar-17 23:33N 24°25' E 118°04'46218918.1
2017-Mar-17 23:32N 31°34' E 121°18'71574.0
2017-Mar-17 23:32N 31°29' E 121°25'143.3
2017-Mar-17 23:30N 31°30' E 121°24'012.9
2017-Mar-17 23:29N 31°30' E 121°24'117.2
2017-Mar-17 23:26N 31°29' E 121°25'4641511.7
2017-Mar-17 23:07N 24°26' E 117°50'1322.2
2017-Mar-17 22:33N 24°25' E 118°04'46122405.3
2017-Mar-17 22:32N 31°30' E 121°24'131297.8
2017-Mar-17 22:32N 31°39' E 121°13'14633.6
2017-Mar-17 22:30N 31°29' E 121°25'130.1
2017-Mar-17 22:28N 31°28' E 121°26'139.2
2017-Mar-17 22:26N 31°29' E 121°25'1111.0
2017-Mar-17 22:25N 31°30' E 121°24'1562.6
2017-Mar-17 22:11N 31°41' E 121°12'1625.2
2017-Mar-17 21:34N 31°29' E 121°25'460184138.4
2017-Mar-17 21:33N 24°25' E 118°04'461150723.5
2017-Mar-17 21:33N 31°30' E 121°24'15727.3
2017-Mar-17 21:32N 31°41' E 121°12'15311.8
2017-Mar-17 21:29N 31°30' E 121°24'1 3.4
2017-Mar-17 21:14N 31°30' E 121°25'0 2.8
2017-Mar-17 21:08N 31°29' E 121°25'460800.8
2017-Mar-17 20:33N 24°25' E 118°04'46564395.8
2017-Mar-17 20:33N 31°38' E 121°15'111472.5
2017-Mar-17 20:32N 31°30' E 121°24'0 7.8
2017-Mar-17 20:31N 31°30' E 121°24'18336.4
2017-Mar-17 20:27N 31°42' E 121°09'19473.9
2017-Mar-17 20:25N 31°29' E 121°25'0 0.7
2017-Mar-17 20:14N 31°29' E 121°25'016.2
2017-Mar-17 20:13N 31°30' E 121°25'1185.5
2017-Mar-17 20:05N 31°20' E 121°33'455871.0
2017-Mar-17 19:33N 24°25' E 118°04'460118372.7
2017-Mar-17 19:33N 31°29' E 121°25'464151820.7
2017-Mar-17 19:33N 24°26' E 117°50'468153300.5
2017-Mar-17 19:33N 31°38' E 121°15'63073.2
2017-Mar-17 19:33N 31°34' E 121°20'5310.5
2017-Mar-17 19:32N 31°30' E 121°24'9302.2
2017-Mar-17 19:30N 31°23' E 121°30'93861.6
2017-Mar-17 19:30N 31°30' E 121°24'1 9.2
2017-Mar-17 19:24N 31°30' E 121°25'0 2.9
2017-Mar-17 19:17N 31°29' E 121°25'141444.4
2017-Mar-17 19:17N 31°39' E 121°13'11172.1
2017-Mar-17 19:13N 31°31' E 121°22'17116.2
2017-Mar-17 19:04N 31°17' E 121°34'3058.8
2017-Mar-17 18:33N 31°41' E 121°11'466419765.0
2017-Mar-17 18:33N 24°25' E 118°04'4571646891.5
2017-Mar-17 18:33N 31°21' E 121°39'1510607.8
2017-Mar-17 18:33N 31°29' E 121°25'0 4.5
2017-Mar-17 18:31N 31°29' E 121°25'15516.7
2017-Mar-17 18:30N 31°15' E 121°30'17597.6
2017-Mar-17 18:28N 31°31' E 121°22'1187.2
2017-Mar-17 18:27N 31°30' E 121°24'017.4
2017-Mar-17 18:27N 31°30' E 121°24'142.8
2017-Mar-17 18:24N 31°30' E 121°26'915560.4
2017-Mar-17 18:24N 31°22' E 121°30'868.1
2017-Mar-17 18:17N 31°14' E 121°30'161476.2
2017-Mar-17 18:17N 31°30' E 121°25'460636.3
2017-Mar-17 17:33N 24°25' E 118°04'46192104.6
2017-Mar-17 17:33N 31°30' E 121°24'1244394.0
2017-Mar-17 17:33N 31°20' E 121°33'204286.4
2017-Mar-17 17:33N 31°36' E 121°17'102503.6
2017-Mar-17 17:33N 31°29' E 121°27'131036.9
2017-Mar-17 17:32N 31°21' E 121°38'14678.5
2017-Mar-17 17:31N 31°29' E 121°25'151536.4
2017-Mar-17 17:30N 31°15' E 121°31'162628.0
2017-Mar-17 17:30N 31°30' E 121°24'117.5
2017-Mar-17 17:27N 31°29' E 121°25'0109.7
2017-Mar-17 17:27N 31°30' E 121°25'21167.3
2017-Mar-17 17:19N 31°17' E 121°45'14171.0
2017-Mar-17 17:14N 31°25' E 121°31'458671.9
2017-Mar-17 16:33N 24°25' E 118°04'45991712.0
2017-Mar-17 16:33N 31°25' E 121°31'1017803.3
2017-Mar-17 16:33N 31°32' E 121°23'2236.3
2017-Mar-17 16:33N 31°30' E 121°24'231153.7
2017-Mar-17 16:31N 31°17' E 121°46'121698.6
2017-Mar-17 16:31N 31°23' E 121°35'112696.8
2017-Mar-17 16:31N 31°30' E 121°24'184.5
2017-Mar-17 16:30N 31°29' E 121°25'571754.2
2017-Mar-17 16:28N 31°58' E 120°26'581699.4
2017-Mar-17 16:26N 31°29' E 121°25'014.2
2017-Mar-17 16:25N 31°29' E 121°25'221112.3
2017-Mar-17 16:24N 31°17' E 121°46'12228.0
2017-Mar-17 16:21N 31°15' E 121°32'7158.8
2017-Mar-17 16:18N 31°22' E 121°30'455609.4
2017-Mar-17 15:33N 24°25' E 118°04'4581648491.2
2017-Mar-17 15:33N 31°20' E 121°42'1730560.8
2017-Mar-17 15:33N 31°29' E 121°25'8385.2
2017-Mar-17 15:32N 31°24' E 121°32'93896.9
2017-Mar-17 15:32N 31°15' E 121°32'15783.8
2017-Mar-17 15:31N 31°29' E 121°25'194.2
2017-Mar-17 15:30N 31°30' E 121°24'2311918.4
2017-Mar-17 15:30N 31°17' E 121°46'221584.9
2017-Mar-17 15:29N 31°29' E 121°25'221617.8
2017-Mar-17 15:28N 31°17' E 121°46'231870.5
2017-Mar-17 15:28N 31°30' E 121°24'2425.9
2017-Mar-17 14:33N 31°16' E 121°46'456109329.9
2017-Mar-17 14:33N 24°25' E 118°04'462332719.0
2017-Mar-17 14:33N 31°34' E 121°19'291193.0
2017-Mar-17 14:32N 31°17' E 121°46'0 4.3
2017-Mar-17 14:32N 31°17' E 121°46'251612.4
2017-Mar-17 14:31N 31°31' E 121°23'2109.9
2017-Mar-17 14:30N 31°30' E 121°24'144.2
2017-Mar-17 14:29N 31°29' E 121°25'128.9
2017-Mar-17 14:27N 31°30' E 121°24'234.5
2017-Mar-17 14:23N 31°29' E 121°26'1492.7
2017-Mar-17 14:23N 31°29' E 121°25'16404.4
2017-Mar-17 14:20N 31°15' E 121°32'450573.2
2017-Mar-17 13:33N 24°25' E 118°04'454544366.0
2017-Mar-17 13:33N 31°12' E 121°50'294302.4
2017-Mar-17 13:33N 31°30' E 121°24'232582.1
2017-Mar-17 13:32N 31°17' E 121°46'223076.2
2017-Mar-17 13:32N 31°29' E 121°25'2280006.0
2017-Mar-17 13:32N 31°17' E 121°46'124690.5
2017-Mar-17 13:32N 31°15' E 121°33'19491.0
2017-Mar-17 13:29N 31°32' E 121°21'3207.2
2017-Mar-17 13:29N 31°30' E 121°24'1153.3
2017-Mar-17 13:28N 31°29' E 121°25'0 5.8
2017-Mar-17 13:26N 31°29' E 121°25'435.7
2017-Mar-17 13:19N 31°32' E 121°21'2026.1
2017-Mar-17 12:33N 31°20' E 121°40'457411504.3
2017-Mar-17 12:33N 24°25' E 118°04'461552691.1
2017-Mar-17 12:33N 31°30' E 121°24'188.2
2017-Mar-17 12:33N 31°29' E 121°25'3219402.6
2017-Mar-17 12:33N 31°09' E 121°54'321201.6
2017-Mar-17 12:31N 31°29' E 121°25'223339.4
2017-Mar-17 12:31N 31°17' E 121°46'233218.4
2017-Mar-17 12:30N 31°30' E 121°24'16490.7
2017-Mar-17 12:28N 31°15' E 121°33'24503.9
2017-Mar-17 12:25N 31°36' E 121°17'92610.8
2017-Mar-17 12:25N 31°29' E 121°25'10190.5
2017-Mar-17 12:22N 31°36' E 121°17'2834.0
2017-Mar-17 11:33N 31°19' E 121°42'182124.1
2017-Mar-17 11:33N 31°07' E 121°58'45285703.6
2017-Mar-17 11:32N 24°25' E 118°04'45726998.1
2017-Mar-17 11:31N 31°24' E 121°32'880.2
2017-Mar-17 11:25N 31°29' E 121°25'152922.9
2017-Mar-17 11:25N 31°15' E 121°33'15289.6
2017-Mar-17 11:22N 31°29' E 121°25'122.3
2017-Mar-17 11:19N 31°30' E 121°24'118.4
2017-Mar-17 11:15N 31°30' E 121°25'148.5
2017-Mar-17 11:14N 31°30' E 121°24'16465.6
2017-Mar-17 11:12N 31°41' E 121°11'26926.5
2017-Mar-17 11:10N 31°24' E 121°35'459743.2
2017-Mar-17 10:33N 24°25' E 118°04'45050664.1
2017-Mar-17 10:33N 31°16' E 121°33'92627.2
2017-Mar-17 10:33N 31°24' E 121°35'107306.1
2017-Mar-17 10:33N 31°29' E 121°25'104179.2
2017-Mar-17 10:32N 31°23' E 121°34'11202.0
2017-Mar-17 10:29N 31°30' E 121°24'1111.1
2017-Mar-17 10:29N 31°30' E 121°25'245.8
2017-Mar-17 10:25N 31°31' E 121°23'2414.7
2017-Mar-17 10:25N 31°29' E 121°25'1 4.5
2017-Mar-17 10:11N 31°30' E 121°24'460727.7
2017-Mar-17 09:34N 24°25' E 118°04'46018403.4
2017-Mar-17 09:32N 31°29' E 121°25'183.3
2017-Mar-17 09:31N 31°30' E 121°24'149.2
2017-Mar-17 09:30N 31°30' E 121°25'139.6
2017-Mar-17 09:29N 31°30' E 121°24'111640.9
2017-Mar-17 09:28N 31°24' E 121°35'9127.5
2017-Mar-17 09:24N 31°16' E 121°33'153982.4
2017-Mar-17 09:24N 31°29' E 121°25'1040.0
2017-Mar-17 09:10N 31°21' E 121°30'455757.3
2017-Mar-17 08:34N 24°25' E 118°04'460828637.5
2017-Mar-17 08:33N 31°30' E 121°24'028.3
2017-Mar-17 08:33N 31°30' E 121°24'142.3
2017-Mar-17 08:32N 31°29' E 121°25'2213.4
2017-Mar-17 08:31N 31°31' E 121°22'266.2
2017-Mar-17 08:29N 31°29' E 121°25'0 3.2
2017-Mar-17 08:25N 31°30' E 121°25'10129.2
2017-Mar-17 08:20N 31°24' E 121°35'465583.6
2017-Mar-17 07:33N 24°15' E 118°13'132256.2
2017-Mar-17 07:32N 24°25' E 118°04'46021523.7
2017-Mar-17 07:31N 31°30' E 121°24'191095.8
2017-Mar-17 07:30N 31°43' E 121°08'351163.0
2017-Mar-17 07:28N 31°15' E 121°33'181225.0
2017-Mar-17 07:27N 31°31' E 121°22'3398.2
2017-Mar-17 07:27N 31°30' E 121°25'0 9.8
2017-Mar-17 07:25N 31°29' E 121°25'137.2
2017-Mar-17 07:23N 31°30' E 121°24'11622.8
2017-Mar-17 07:22N 31°38' E 121°15'465571.9
2017-Mar-17 06:34N 24°25' E 118°04'465239266.4
2017-Mar-17 06:33N 31°38' E 121°15'121198.5
2017-Mar-17 06:33N 31°29' E 121°25'6296.0
2017-Mar-17 06:32N 31°34' E 121°20'6378.3
2017-Mar-17 06:31N 31°29' E 121°25'1589.3
2017-Mar-17 06:30N 31°30' E 121°24'0 9.2
2017-Mar-17 06:29N 31°30' E 121°24'18787.5
2017-Mar-17 06:27N 31°28' E 121°45'19356.3
2017-Mar-17 06:24N 31°13' E 121°30'17465.0
2017-Mar-17 06:22N 31°30' E 121°25'338.2
2017-Mar-17 06:18N 31°31' E 121°22'4642338.0
2017-Mar-17 06:06N 24°26' E 117°51'465856.7
2017-Mar-17 05:33N 31°33' E 121°21'47733.8
2017-Mar-17 05:33N 31°29' E 121°25'460828689.2
2017-Mar-17 05:33N 24°25' E 118°04'461150977.2
2017-Mar-17 05:33N 31°30' E 121°25'124.0
2017-Mar-17 05:31N 31°30' E 121°25'136.7
2017-Mar-17 05:30N 31°30' E 121°24'91199.6
2017-Mar-17 05:29N 31°23' E 121°30'7122.2
2017-Mar-17 05:26N 31°15' E 121°33'16367.0
2017-Mar-17 05:23N 31°30' E 121°24'153.1
2017-Mar-17 05:22N 31°29' E 121°25'2 8.6
2017-Mar-17 05:05N 31°31' E 121°22'461873.3
2017-Mar-17 04:34N 24°25' E 118°04'46053430.7
2017-Mar-17 04:33N 31°28' E 121°28'4522.8
2017-Mar-17 04:33N 31°30' E 121°24'173361.0
2017-Mar-17 04:32N 31°21' E 121°41'1761351.9
2017-Mar-17 04:32N 31°30' E 121°24'1143.6
2017-Mar-17 04:32N 31°30' E 121°25'155539.5
2017-Mar-17 04:32N 31°16' E 121°33'151134.7
2017-Mar-17 04:31N 31°29' E 121°25'17659.6
2017-Mar-17 04:29N 31°29' E 121°45'17425.4
2017-Mar-17 04:27N 31°29' E 121°25'759.8
2017-Mar-17 04:20N 31°25' E 121°31'17115.8
2017-Mar-17 04:11N 31°36' E 121°17'10266.4
2017-Mar-17 04:09N 31°30' E 121°25'460783.3
2017-Mar-17 03:33N 24°25' E 118°04'457329061.7
2017-Mar-17 03:33N 31°24' E 121°31'162997.6
2017-Mar-17 03:33N 31°15' E 121°47'12827.7
2017-Mar-17 03:32N 31°16' E 121°33'91625.2
2017-Mar-17 03:32N 31°24' E 121°34'101421.0
2017-Mar-17 03:31N 31°30' E 121°24'175.0
2017-Mar-17 03:31N 31°29' E 121°25'172781.9
2017-Mar-17 03:30N 31°29' E 121°45'121411.1
2017-Mar-17 03:30N 31°17' E 121°44'222084.0
2017-Mar-17 03:29N 31°30' E 121°24'1162.2
2017-Mar-17 03:29N 31°29' E 121°25'2143.0
2017-Mar-17 03:28N 31°31' E 121°23'46316356.3
2017-Mar-17 03:26N 24°21' E 118°07'4182954.2
2017-Mar-17 03:18N 30°27' E 121°53'416559.9
2017-Mar-17 02:33N 24°25' E 118°04'456109380.8
2017-Mar-17 02:33N 31°17' E 121°44'211637.3
2017-Mar-17 02:32N 31°29' E 121°25'303612.5
2017-Mar-17 02:32N 31°10' E 121°52'171012.6
2017-Mar-17 02:30N 31°16' E 121°33'573853.8
2017-Mar-17 02:30N 30°21' E 121°53'57858.1
2017-Mar-17 02:26N 31°17' E 121°34'163829.5
2017-Mar-17 02:25N 31°30' E 121°24'161182.6
2017-Mar-17 02:25N 31°15' E 121°33'1518555.8
2017-Mar-17 02:24N 31°29' E 121°25'1730600.4
2017-Mar-17 02:24N 31°29' E 121°45'18842.6
2017-Mar-17 02:23N 31°30' E 121°24'4248.1
2017-Mar-17 02:22N 31°27' E 121°28'345.5
2017-Mar-17 02:18N 31°29' E 121°25'2237.2
2017-Mar-17 02:17N 31°28' E 121°26'0 1.7
2017-Mar-17 02:04N 31°28' E 121°26'2039.3
2017-Mar-17 01:33N 31°16' E 121°45'2342121.5
2017-Mar-17 01:33N 31°30' E 121°23'460414348.7
2017-Mar-17 01:33N 24°25' E 118°04'460331467.0
2017-Mar-17 01:33N 31°29' E 121°25'31100.4
2017-Mar-17 01:33N 31°31' E 121°21'3656.5
2017-Mar-17 01:33N 31°29' E 121°25'353805.4
2017-Mar-17 01:32N 31°08' E 121°57'364529.9
2017-Mar-17 01:32N 31°30' E 121°23'1813275.0
2017-Mar-17 01:32N 31°13' E 121°30'184389.8
2017-Mar-17 01:31N 31°30' E 121°24'809975.2
2017-Mar-17 01:31N 30°14' E 121°55'649628.2
2017-Mar-17 01:30N 31°16' E 121°33'16331.2
2017-Mar-17 01:28N 31°30' E 121°24'110.3
2017-Mar-17 01:23N 31°29' E 121°25'211.3
2017-Mar-17 01:10N 31°31' E 121°23'4 6.7
2017-Mar-17 00:34N 31°34' E 121°19'144687.9
2017-Mar-17 00:33N 31°23' E 121°30'45682097.1
2017-Mar-17 00:33N 24°25' E 118°04'464208744.7
2017-Mar-17 00:33N 31°36' E 121°16'2631059.9
2017-Mar-17 00:33N 31°20' E 121°40'172761.5
2017-Mar-17 00:32N 31°30' E 121°24'876547.0
2017-Mar-17 00:32N 30°08' E 121°57'865363.2
2017-Mar-17 00:31N 31°29' E 121°25'15879.6
2017-Mar-17 00:30N 31°16' E 121°33'103879.2
2017-Mar-17 00:29N 31°07' E 121°28'241796.4
2017-Mar-17 00:29N 31°31' E 121°23'2154.3
2017-Mar-17 00:28N 31°30' E 121°24'8411.8
2017-Mar-17 00:27N 31°35' E 121°17'9117.1
2017-Mar-17 00:22N 31°29' E 121°25'19141.0
2017-Mar-17 00:14N 31°19' E 121°43'19467.8
2017-Mar-17 00:12N 31°29' E 121°25'0 3.9
2017-Mar-17 00:09N 31°30' E 121°25'915.0
2017-Mar-16 23:33N 31°24' E 121°33'45854907.9
2017-Mar-16 23:33N 24°25' E 118°04'461165789.0
2017-Mar-16 23:32N 31°30' E 121°24'1149.5
2017-Mar-16 23:32N 31°29' E 121°25'151042.7
2017-Mar-16 23:31N 31°40' E 121°12'126312.6
2017-Mar-16 23:31N 31°31' E 121°23'1715239.7
2017-Mar-16 23:31N 31°21' E 121°39'15687.6
2017-Mar-16 23:30N 31°29' E 121°25'1393.9
2017-Mar-16 23:30N 31°30' E 121°24'12574.6
2017-Mar-16 23:28N 31°38' E 121°14'13619.7
2017-Mar-16 23:27N 31°29' E 121°25'101337.0
2017-Mar-16 23:27N 31°24' E 121°35'68317.1
2017-Mar-16 23:14N 31°58' E 120°26'77475.2
2017-Mar-16 23:04N 31°03' E 121°29'437842.4
2017-Mar-16 22:33N 24°25' E 118°04'45055867.3
2017-Mar-16 22:33N 31°15' E 121°32'7118239.7
2017-Mar-16 22:32N 31°58' E 120°26'571956.9
2017-Mar-16 22:31N 31°30' E 121°24'103060.1
2017-Mar-16 22:30N 31°24' E 121°33'10380.2
2017-Mar-16 22:29N 31°30' E 121°24'1352.3
2017-Mar-16 22:29N 31°29' E 121°25'0 3.9
2017-Mar-16 22:24N 31°29' E 121°25'0 9.5
2017-Mar-16 22:23N 31°29' E 121°25'1069.2
2017-Mar-16 22:14N 31°24' E 121°35'459662.5
2017-Mar-16 21:33N 24°25' E 118°04'4609920.6
2017-Mar-16 21:30N 31°29' E 121°25'16542.4
2017-Mar-16 21:28N 31°15' E 121°32'161962.9
2017-Mar-16 21:28N 31°30' E 121°24'070.3
2017-Mar-16 21:27N 31°30' E 121°24'1113313.0
2017-Mar-16 21:27N 31°24' E 121°35'68914.4
2017-Mar-16 21:23N 31°58' E 120°26'57636.6
2017-Mar-16 21:17N 31°29' E 121°25'222.9
2017-Mar-16 21:11N 31°31' E 121°22'5740888.3
2017-Mar-16 21:11N 31°58' E 120°24'470752.3
2017-Mar-16 20:33N 24°25' E 118°04'4616553.2
2017-Mar-16 20:29N 31°30' E 121°24'568838.1
2017-Mar-16 20:29N 31°58' E 120°26'572401.1
2017-Mar-16 20:27N 31°30' E 121°24'1139043.0
2017-Mar-16 20:27N 31°24' E 121°35'10928.7
2017-Mar-16 20:27N 31°29' E 121°25'0 3.3
2017-Mar-16 20:24N 31°29' E 121°25'2111.2
2017-Mar-16 20:22N 31°31' E 121°22'18217.4
2017-Mar-16 20:17N 31°15' E 121°32'29148.4
2017-Mar-16 20:06N 31°39' E 121°13'465863.2
2017-Mar-16 19:33N 24°25' E 118°04'46740967.8
2017-Mar-16 19:33N 31°41' E 121°13'14557.6
2017-Mar-16 19:31N 31°30' E 121°24'1317.6
2017-Mar-16 19:31N 31°29' E 121°25'101588.1
2017-Mar-16 19:31N 31°24' E 121°35'11632.2
2017-Mar-16 19:30N 31°30' E 121°24'125.0
2017-Mar-16 19:28N 31°29' E 121°25'57878.9
2017-Mar-16 19:24N 31°58' E 120°26'471558.4
2017-Mar-16 18:33N 24°25' E 118°04'46157207.6
2017-Mar-16 18:33N 31°31' E 121°22'2303.7
2017-Mar-16 18:32N 31°30' E 121°25'127.7
2017-Mar-16 18:30N 31°30' E 121°24'73135.9
2017-Mar-16 18:30N 31°35' E 121°18'184964.9
2017-Mar-16 18:30N 31°24' E 121°35'10309.4
2017-Mar-16 18:28N 31°30' E 121°25'168022.3
2017-Mar-16 18:28N 31°14' E 121°29'372.7
2017-Mar-16 18:26N 31°15' E 121°32'161157.7
2017-Mar-16 18:25N 31°30' E 121°24'57598.5
2017-Mar-16 18:19N 31°58' E 120°26'238.3
2017-Mar-16 18:16N 31°58' E 120°24'591297.7
2017-Mar-16 18:13N 31°29' E 121°25'181886.0
2017-Mar-16 18:13N 31°42' E 121°09'467713.3
2017-Mar-16 17:33N 24°25' E 118°04'46646591.5
2017-Mar-16 17:33N 31°40' E 121°13'1410345.9
2017-Mar-16 17:33N 31°29' E 121°25'152643.3
2017-Mar-16 17:32N 31°40' E 121°13'258882.0
2017-Mar-16 17:32N 31°24' E 121°35'23886.8
2017-Mar-16 17:31N 31°39' E 121°14'13714.0
2017-Mar-16 17:30N 31°30' E 121°25'161255.0
2017-Mar-16 17:29N 31°15' E 121°32'17485.3
2017-Mar-16 17:27N 31°30' E 121°24'197.0
2017-Mar-16 17:26N 31°29' E 121°25'1 5.4
2017-Mar-16 17:18N 31°30' E 121°24'133334.3
2017-Mar-16 17:18N 31°20' E 121°33'693262.8
2017-Mar-16 17:16N 31°58' E 120°26'462684.5
2017-Mar-16 17:15N 31°38' E 121°15'465667.2
2017-Mar-16 16:34N 24°25' E 118°04'46342755.7
2017-Mar-16 16:33N 31°35' E 121°19'2395.1
2017-Mar-16 16:33N 31°37' E 121°18'244831.7
2017-Mar-16 16:32N 31°15' E 121°31'151826.2
2017-Mar-16 16:32N 31°30' E 121°25'101382.3
2017-Mar-16 16:31N 31°24' E 121°35'1018245.1
2017-Mar-16 16:31N 31°29' E 121°25'91247.4
2017-Mar-16 16:31N 31°24' E 121°33'10969.2
2017-Mar-16 16:30N 31°30' E 121°24'054.1
2017-Mar-16 16:30N 31°30' E 121°24'8609.3
2017-Mar-16 16:29N 31°35' E 121°18'2267.4
2017-Mar-16 16:29N 31°37' E 121°17'10143.9
2017-Mar-16 16:25N 31°29' E 121°25'212.9
2017-Mar-16 16:14N 31°31' E 121°22'55644.1
2017-Mar-16 16:09N 31°58' E 120°26'5085.4
2017-Mar-16 15:33N 31°35' E 121°19'52539.7
2017-Mar-16 15:33N 31°32' E 121°23'2035742.6
2017-Mar-16 15:33N 31°19' E 121°41'45753051.2
2017-Mar-16 15:33N 24°25' E 118°04'462138450.4
2017-Mar-16 15:33N 31°32' E 121°20'4765.4
2017-Mar-16 15:32N 31°30' E 121°24'8567.4
2017-Mar-16 15:31N 31°37' E 121°18'72253.7
2017-Mar-16 15:31N 31°31' E 121°23'3655.8
2017-Mar-16 15:31N 31°29' E 121°25'5817308.7
2017-Mar-16 15:31N 31°58' E 120°26'5734094.5
2017-Mar-16 15:31N 31°30' E 121°24'16178.9
2017-Mar-16 15:25N 31°15' E 121°31'15664.5
2017-Mar-16 15:24N 31°29' E 121°25'10394.2
2017-Mar-16 15:22N 31°24' E 121°35'10145.5
2017-Mar-16 15:18N 31°29' E 121°25'460615.1
2017-Mar-16 14:33N 24°25' E 118°04'465557595.5
2017-Mar-16 14:33N 31°37' E 121°18'51633.9
2017-Mar-16 14:33N 31°33' E 121°21'247061.1
2017-Mar-16 14:33N 31°18' E 121°43'201491.2
2017-Mar-16 14:32N 31°30' E 121°24'41387.4
2017-Mar-16 14:32N 31°32' E 121°20'2117.1
2017-Mar-16 14:31N 31°31' E 121°23'2111.1
2017-Mar-16 14:30N 31°30' E 121°24'1118993.1
2017-Mar-16 14:30N 31°24' E 121°35'10639.1
2017-Mar-16 14:29N 31°29' E 121°25'0 6.6
2017-Mar-16 14:27N 31°29' E 121°25'0 1.7
2017-Mar-16 14:24N 31°29' E 121°25'583771.0
2017-Mar-16 14:23N 31°58' E 120°26'57723.6
2017-Mar-16 14:18N 31°30' E 121°24'16441.4
2017-Mar-16 14:16N 31°15' E 121°31'13139.4
2017-Mar-16 14:10N 31°28' E 121°27'459741.2
2017-Mar-16 13:33N 24°25' E 118°04'46147376.0
2017-Mar-16 13:33N 31°30' E 121°24'0110.6
2017-Mar-16 13:33N 31°30' E 121°24'1118964.4
2017-Mar-16 13:33N 31°23' E 121°34'1468.5
2017-Mar-16 13:32N 31°24' E 121°35'101036.5
2017-Mar-16 13:32N 31°29' E 121°25'154.8
2017-Mar-16 13:31N 31°30' E 121°24'14195.7
2017-Mar-16 13:31N 31°29' E 121°25'91235.8
2017-Mar-16 13:30N 31°37' E 121°18'51017.5
2017-Mar-16 13:30N 31°32' E 121°20'5493.2
2017-Mar-16 13:29N 31°29' E 121°25'58207590.4
2017-Mar-16 13:29N 31°58' E 120°26'551274.1
2017-Mar-16 13:27N 31°31' E 121°22'17296.7
2017-Mar-16 13:23N 31°15' E 121°31'449539.4
2017-Mar-16 12:33N 24°25' E 118°04'461184446.5
2017-Mar-16 12:33N 31°32' E 121°20'153590.3
2017-Mar-16 12:33N 31°24' E 121°35'106016.6
2017-Mar-16 12:33N 31°29' E 121°25'151652.0
2017-Mar-16 12:32N 31°15' E 121°31'2225837.8
2017-Mar-16 12:32N 31°34' E 121°18'382.3
2017-Mar-16 12:30N 31°37' E 121°18'497694.9
2017-Mar-16 12:30N 31°58' E 120°26'583397.0
2017-Mar-16 12:29N 31°30' E 121°25'0 3.5
2017-Mar-16 12:26N 31°29' E 121°25'144.7
2017-Mar-16 12:25N 31°30' E 121°24'1636.2
2017-Mar-16 12:24N 31°29' E 121°25'156.4
2017-Mar-16 12:24N 31°30' E 121°24'461548.0
2017-Mar-16 11:33N 24°25' E 118°04'46539870.9
2017-Mar-16 11:33N 31°39' E 121°13'4423.7
2017-Mar-16 11:32N 31°37' E 121°18'58771.9
2017-Mar-16 11:32N 31°32' E 121°20'1553689.5
2017-Mar-16 11:32N 31°24' E 121°35'92829.4
2017-Mar-16 11:32N 31°15' E 121°31'1518143.9
2017-Mar-16 11:32N 31°29' E 121°25'1116.1
2017-Mar-16 11:31N 31°30' E 121°24'163.4
2017-Mar-16 11:30N 31°29' E 121°25'0 4.0
2017-Mar-16 11:27N 31°29' E 121°25'140.6
2017-Mar-16 11:26N 31°30' E 121°24'016.2
2017-Mar-16 11:25N 31°30' E 121°24'461539.6
2017-Mar-16 10:33N 24°25' E 118°04'461150912.6
2017-Mar-16 10:33N 31°32' E 121°20'192568.2
2017-Mar-16 10:33N 31°15' E 121°31'163799.0
2017-Mar-16 10:33N 31°30' E 121°24'131.6
2017-Mar-16 10:31N 31°29' E 121°25'9435.0
2017-Mar-16 10:30N 31°37' E 121°18'814958.7
2017-Mar-16 10:30N 31°30' E 121°24'1192.2
2017-Mar-16 10:30N 31°30' E 121°24'126.3
2017-Mar-16 10:28N 31°29' E 121°25'1233.6
2017-Mar-16 10:08N 31°20' E 121°33'12258.3
2017-Mar-16 10:05N 31°30' E 121°25'460870.6
2017-Mar-16 09:33N 24°25' E 118°04'46011750.7
2017-Mar-16 09:31N 31°29' E 121°25'0 7.5
2017-Mar-16 09:30N 31°29' E 121°25'0575.7
2017-Mar-16 09:30N 31°30' E 121°25'151405.8
2017-Mar-16 09:29N 31°15' E 121°31'93397.3
2017-Mar-16 09:29N 31°24' E 121°35'11647.2
2017-Mar-16 09:28N 31°30' E 121°24'051.3
2017-Mar-16 09:28N 31°30' E 121°24'016.4
2017-Mar-16 09:27N 31°30' E 121°24'8892.5
2017-Mar-16 09:26N 31°37' E 121°18'17335.4
2017-Mar-16 09:23N 31°23' E 121°31'10108.1
2017-Mar-16 09:17N 31°31' E 121°22'212.2
2017-Mar-16 09:05N 31°32' E 121°20'2 4.5
2017-Mar-16 08:33N 31°31' E 121°22'461236992.7
2017-Mar-16 08:33N 24°25' E 118°04'46518389.3
2017-Mar-16 08:31N 31°37' E 121°18'51969.5
2017-Mar-16 08:31N 31°32' E 121°20'41333.3
2017-Mar-16 08:31N 31°30' E 121°24'1179.9
2017-Mar-16 08:31N 31°30' E 121°25'101653.3
2017-Mar-16 08:30N 31°24' E 121°35'2517.9
2017-Mar-16 08:30N 31°22' E 121°36'4920300213.9
2017-Mar-16 08:29S 20°09' E 057°29'4916376518.9
2017-Mar-16 08:28N 31°30' E 121°24'16579.9
2017-Mar-16 08:26N 31°15' E 121°31'15677.0
2017-Mar-16 08:25N 31°29' E 121°25'197.3
2017-Mar-16 08:25N 31°30' E 121°24'1 9.1
2017-Mar-16 08:19N 31°30' E 121°25'14172.9
2017-Mar-16 08:14N 31°17' E 121°34'5 7.1
2017-Mar-16 07:33N 31°22' E 121°36'457548754.5
2017-Mar-16 07:33N 24°25' E 118°04'46023340.3
2017-Mar-16 07:32N 31°30' E 121°25'018.2
2017-Mar-16 07:31N 31°29' E 121°25'1202.1
2017-Mar-16 07:31N 31°30' E 121°24'1546.6
2017-Mar-16 07:31N 31°30' E 121°25'9704.5
2017-Mar-16 07:30N 31°37' E 121°18'1969159.4
2017-Mar-16 07:30N 31°24' E 121°35'11404.0
2017-Mar-16 07:29N 31°30' E 121°24'2143.0
2017-Mar-16 07:28N 31°31' E 121°22'156.7
2017-Mar-16 07:26N 31°30' E 121°24'161706.1
2017-Mar-16 07:26N 31°15' E 121°31'789.5
2017-Mar-16 07:21N 31°22' E 121°30'456573.6
2017-Mar-16 06:33N 24°25' E 118°04'465278894.2
2017-Mar-16 06:33N 31°37' E 121°18'2115248.9
2017-Mar-16 06:33N 31°23' E 121°36'111591.6
2017-Mar-16 06:33N 31°28' E 121°25'11427.4
2017-Mar-16 06:31N 31°22' E 121°36'13902.6
2017-Mar-16 06:30N 31°30' E 121°24'13635.2
2017-Mar-16 06:29N 31°40' E 121°13'143269.1
2017-Mar-16 06:29N 31°30' E 121°24'160.4
2017-Mar-16 06:28N 31°29' E 121°25'0 2.1
2017-Mar-16 06:22N 31°30' E 121°25'0 6.6
2017-Mar-16 06:19N 31°29' E 121°25'2208.2
2017-Mar-16 06:18N 31°31' E 121°22'461619.0
2017-Mar-16 05:33N 24°25' E 118°04'463208491.6
2017-Mar-16 05:33N 31°35' E 121°19'294674.8
2017-Mar-16 05:33N 31°17' E 121°45'11432.5
2017-Mar-16 05:31N 31°24' E 121°35'11666.3
2017-Mar-16 05:30N 31°30' E 121°24'1108.7
2017-Mar-16 05:30N 31°29' E 121°25'16215.3
2017-Mar-16 05:25N 31°14' E 121°29'20361.2
2017-Mar-16 05:22N 31°32' E 121°20'176106.7
2017-Mar-16 05:22N 31°22' E 121°36'21361.0
2017-Mar-16 05:18N 31°37' E 121°18'972.1
2017-Mar-16 05:11N 31°30' E 121°25'115.1
2017-Mar-16 05:05N 31°28' E 121°25'459866.3
2017-Mar-16 04:34N 24°25' E 118°04'45654754.1
2017-Mar-16 04:33N 31°18' E 121°44'214120.9
2017-Mar-16 04:33N 31°30' E 121°25'13463.9
2017-Mar-16 04:31N 31°22' E 121°36'178710.8
2017-Mar-16 04:31N 31°32' E 121°20'151352.3
2017-Mar-16 04:30N 31°24' E 121°35'1120046.1
2017-Mar-16 04:30N 31°30' E 121°24'289.4
2017-Mar-16 04:29N 31°28' E 121°25'138.5
2017-Mar-16 04:27N 31°29' E 121°25'122.5
2017-Mar-16 04:25N 31°30' E 121°24'176.8
2017-Mar-16 04:24N 31°29' E 121°25'024.7
2017-Mar-16 04:24N 31°29' E 121°25'0 4.5
2017-Mar-16 04:23N 31°30' E 121°25'994.3
2017-Mar-16 04:17N 31°37' E 121°18'24127.1
2017-Mar-16 04:06N 31°15' E 121°31'449834.4
2017-Mar-16 03:33N 24°25' E 118°04'4578756.7
2017-Mar-16 03:30N 31°22' E 121°36'81086.1
2017-Mar-16 03:30N 31°15' E 121°31'2518255.2
2017-Mar-16 03:30N 31°38' E 121°17'6477.7
2017-Mar-16 03:29N 31°32' E 121°20'5311.4
2017-Mar-16 03:28N 31°29' E 121°25'162236.2
2017-Mar-16 03:28N 31°20' E 121°40'167189.0
2017-Mar-16 03:27N 31°29' E 121°25'1105.2
2017-Mar-16 03:27N 31°28' E 121°25'2498.0
2017-Mar-16 03:27N 31°30' E 121°24'5714745.2
2017-Mar-16 03:26N 32°00' E 120°27'581006.2
2017-Mar-16 03:23N 31°29' E 121°25'101158.0
2017-Mar-16 03:22N 31°24' E 121°35'11130.9
2017-Mar-16 03:17N 31°30' E 121°24'72212.6
2017-Mar-16 03:17N 31°26' E 121°31'25313.1
2017-Mar-16 03:12N 31°09' E 121°10'436670.2
2017-Mar-16 02:33N 24°25' E 118°04'466129061.2
2017-Mar-16 02:33N 31°40' E 121°11'1614259.8
2017-Mar-16 02:33N 31°29' E 121°25'109240.6
2017-Mar-16 02:33N 31°23' E 121°34'21500.8
2017-Mar-16 02:33N 31°22' E 121°36'814661.8
2017-Mar-16 02:33N 31°15' E 121°31'156819.4
2017-Mar-16 02:33N 31°29' E 121°25'179.1
2017-Mar-16 02:32N 31°30' E 121°24'4347.7
2017-Mar-16 02:31N 31°32' E 121°20'15147.5
2017-Mar-16 02:25N 31°24' E 121°35'11218.4
2017-Mar-16 02:22N 31°30' E 121°24'313.0
2017-Mar-16 02:09N 31°28' E 121°26'273.4
2017-Mar-16 02:08N 31°29' E 121°25'460797.6
2017-Mar-16 01:33N 24°25' E 118°04'459550359.1
2017-Mar-16 01:33N 31°24' E 121°35'1322684.5
2017-Mar-16 01:33N 31°31' E 121°22'174736.5
2017-Mar-16 01:33N 31°15' E 121°31'16254.3
2017-Mar-16 01:29N 31°30' E 121°24'1432.4
2017-Mar-16 01:29N 31°29' E 121°25'1101.2
2017-Mar-16 01:29N 31°30' E 121°24'129.5
2017-Mar-16 01:27N 31°29' E 121°25'126137.6
2017-Mar-16 01:27N 31°22' E 121°36'7356.6
2017-Mar-16 01:26N 31°15' E 121°33'202751.2
2017-Mar-16 01:25N 31°32' E 121°20'6278.1
2017-Mar-16 01:24N 31°28' E 121°25'1 6.1
2017-Mar-16 01:12N 31°29' E 121°25'460717.8
2017-Mar-16 00:33N 24°25' E 118°04'4611657889.8
2017-Mar-16 00:33N 31°30' E 121°24'151.2
2017-Mar-16 00:32N 31°29' E 121°25'054.8
2017-Mar-16 00:32N 31°29' E 121°25'151326.6
2017-Mar-16 00:31N 31°15' E 121°31'245046.7
2017-Mar-16 00:31N 31°36' E 121°17'191619.4
2017-Mar-16 00:30N 31°24' E 121°35'15816.3
2017-Mar-16 00:29N 31°32' E 121°20'6629.8
2017-Mar-16 00:29N 31°28' E 121°25'2153.7
2017-Mar-16 00:28N 31°30' E 121°24'1 8.9
2017-Mar-16 00:22N 31°29' E 121°25'58216.4
2017-Mar-16 00:06N 31°58' E 120°25'470873.0
2017-Mar-15 23:33N 24°25' E 118°04'460552344.7
2017-Mar-15 23:33N 31°29' E 121°25'51111.2
2017-Mar-15 23:33N 31°32' E 121°20'194085.1
2017-Mar-15 23:33N 31°15' E 121°31'702165.6
2017-Mar-15 23:31N 31°58' E 120°25'575276.8
2017-Mar-15 23:30N 31°30' E 121°24'021.2
2017-Mar-15 23:30N 31°30' E 121°24'2105.0
2017-Mar-15 23:29N 31°28' E 121°25'176.5
2017-Mar-15 23:28N 31°29' E 121°25'10483.3
2017-Mar-15 23:26N 31°24' E 121°35'10176.0
2017-Mar-15 23:23N 31°29' E 121°25'0 0.7
2017-Mar-15 23:08N 31°30' E 121°25'0 0.3
2017-Mar-15 22:33N 31°29' E 121°25'4601656669.1
2017-Mar-15 22:33N 24°25' E 118°04'44944919.1
2017-Mar-15 22:33N 31°15' E 121°31'16390.0
2017-Mar-15 22:30N 31°30' E 121°24'111210.3
2017-Mar-15 22:30N 31°24' E 121°35'103606.4
2017-Mar-15 22:30N 31°29' E 121°25'5539.1
2017-Mar-15 22:29N 31°32' E 121°20'4831.3
2017-Mar-15 22:29N 31°30' E 121°24'256.8
2017-Mar-15 22:27N 31°31' E 121°23'222.8
2017-Mar-15 22:21N 31°30' E 121°25'0 4.4
2017-Mar-15 22:18N 31°29' E 121°25'110.6
2017-Mar-15 22:11N 31°28' E 121°25'6 9.6
2017-Mar-15 21:34N 31°32' E 121°20'4775.3
2017-Mar-15 21:33N 31°30' E 121°24'461110523.3
2017-Mar-15 21:33N 24°25' E 118°04'459550352.9
2017-Mar-15 21:33N 31°24' E 121°35'95668.9
2017-Mar-15 21:33N 31°15' E 121°31'17579.0
2017-Mar-15 21:31N 31°31' E 121°23'2511.6
2017-Mar-15 21:31N 31°29' E 121°25'018.3
2017-Mar-15 21:30N 31°30' E 121°25'1289.3
2017-Mar-15 21:30N 31°28' E 121°25'1256.8
2017-Mar-15 21:29N 31°29' E 121°25'1154.2
2017-Mar-15 21:29N 31°30' E 121°24'1 4.2
2017-Mar-15 21:20N 31°30' E 121°25'460594.1
2017-Mar-15 20:33N 24°25' E 118°04'461331796.3
2017-Mar-15 20:33N 31°31' E 121°22'17707.9
2017-Mar-15 20:32N 31°15' E 121°31'199972.7
2017-Mar-15 20:32N 31°32' E 121°20'41501.0
2017-Mar-15 20:32N 31°30' E 121°24'248.9
2017-Mar-15 20:29N 31°28' E 121°25'9706.3
2017-Mar-15 20:28N 31°24' E 121°35'11368.3
2017-Mar-15 20:26N 31°30' E 121°24'141858.0
2017-Mar-15 20:26N 31°25' E 121°08'154528.4
2017-Mar-15 20:26N 31°29' E 121°25'010.2
2017-Mar-15 20:25N 31°30' E 121°25'0 4.1
2017-Mar-15 20:20N 31°29' E 121°25'1 0.9
2017-Mar-15 19:33N 31°30' E 121°24'1190.8
2017-Mar-15 19:33N 31°29' E 121°25'460207080.9
2017-Mar-15 19:32N 24°25' E 118°04'45934397.9
2017-Mar-15 19:32N 31°24' E 121°35'9706.3
2017-Mar-15 19:31N 31°28' E 121°25'64389.2
2017-Mar-15 19:31N 31°32' E 121°20'5274.6
2017-Mar-15 19:30N 31°29' E 121°25'152890.6
2017-Mar-15 19:29N 31°15' E 121°31'15573.2
2017-Mar-15 19:28N 31°30' E 121°25'1242.1
2017-Mar-15 19:27N 31°30' E 121°24'1561.7
2017-Mar-15 19:27N 31°31' E 121°22'461514.1
2017-Mar-15 18:34N 24°25' E 118°04'449101068.0
2017-Mar-15 18:33N 31°15' E 121°31'194992.5
2017-Mar-15 18:33N 31°32' E 121°20'4517.6
2017-Mar-15 18:33N 31°30' E 121°24'149.8
2017-Mar-15 18:32N 31°29' E 121°25'0 5.8
2017-Mar-15 18:30N 31°29' E 121°25'1133.6
2017-Mar-15 18:30N 31°28' E 121°25'91202.5
2017-Mar-15 18:29N 31°24' E 121°35'11542.1
2017-Mar-15 18:28N 31°30' E 121°24'15489.6
2017-Mar-15 18:26N 31°41' E 121°11'14271.0
2017-Mar-15 18:23N 31°31' E 121°22'1852.4
2017-Mar-15 18:03N 31°14' E 121°29'1733.7
2017-Mar-15 17:33N 31°30' E 121°24'461184207.0
2017-Mar-15 17:33N 24°25' E 118°04'4491617088.8
2017-Mar-15 17:33N 31°15' E 121°31'15578.8
2017-Mar-15 17:32N 31°30' E 121°25'5403.7
2017-Mar-15 17:31N 31°32' E 121°20'157741.0
2017-Mar-15 17:31N 31°24' E 121°35'96495.7
2017-Mar-15 17:31N 31°28' E 121°25'9193.2
2017-Mar-15 17:28N 31°35' E 121°18'8445.2
2017-Mar-15 17:27N 31°29' E 121°25'226.9
2017-Mar-15 17:21N 31°31' E 121°22'2110.8
2017-Mar-15 17:21N 31°30' E 121°24'154.7
2017-Mar-15 17:20N 31°29' E 121°25'460598.5
2017-Mar-15 16:34N 24°25' E 118°04'46018012.8
2017-Mar-15 16:32N 31°29' E 121°25'10806.7
2017-Mar-15 16:31N 31°24' E 121°35'112797.9
2017-Mar-15 16:31N 31°30' E 121°24'224.4
2017-Mar-15 16:26N 31°28' E 121°25'1950.3
2017-Mar-15 16:26N 31°29' E 121°25'130.5
2017-Mar-15 16:24N 31°30' E 121°25'145.7
2017-Mar-15 16:23N 31°30' E 121°25'5432.5
2017-Mar-15 16:22N 31°32' E 121°20'484.3
2017-Mar-15 16:19N 31°30' E 121°24'16117.0
2017-Mar-15 16:11N 31°15' E 121°31'17158.0
2017-Mar-15 16:04N 31°31' E 121°22'461866.7
2017-Mar-15 15:33N 24°25' E 118°04'46123716.0
2017-Mar-15 15:31N 31°32' E 121°20'192103.6
2017-Mar-15 15:31N 31°15' E 121°31'91999.2
2017-Mar-15 15:31N 31°24' E 121°35'10838.7
2017-Mar-15 15:30N 31°29' E 121°25'1334.0
2017-Mar-15 15:30N 31°30' E 121°24'281.4
2017-Mar-15 15:28N 31°29' E 121°25'56100251.8
2017-Mar-15 15:28N 32°01' E 120°32'5532993.8
2017-Mar-15 15:28N 31°29' E 121°25'158.3
2017-Mar-15 15:27N 31°30' E 121°24'154.4
2017-Mar-15 15:26N 31°29' E 121°25'3 7.1
2017-Mar-15 15:05N 31°31' E 121°23'461887.2
2017-Mar-15 14:33N 24°25' E 118°04'44985114.0
2017-Mar-15 14:33N 31°15' E 121°31'15658.4
2017-Mar-15 14:32N 31°29' E 121°25'5283.5
2017-Mar-15 14:31N 31°32' E 121°20'4407.9
2017-Mar-15 14:30N 31°30' E 121°24'111733.4
2017-Mar-15 14:30N 31°24' E 121°35'10183.7
2017-Mar-15 14:26N 31°30' E 121°24'010.4
2017-Mar-15 14:25N 31°30' E 121°25'112.6
2017-Mar-15 14:22N 31°30' E 121°24'461575.0
2017-Mar-15 13:33N 24°25' E 118°04'460828838.9
2017-Mar-15 13:33N 31°30' E 121°24'111177.1
2017-Mar-15 13:33N 31°24' E 121°35'112049.8
2017-Mar-15 13:33N 31°30' E 121°24'4271.7
2017-Mar-15 13:32N 31°32' E 121°20'4245.6
2017-Mar-15 13:31N 31°29' E 121°24'2309.3
2017-Mar-15 13:30N 31°31' E 121°23'274.8
2017-Mar-15 13:28N 31°29' E 121°25'15383.8
2017-Mar-15 13:26N 31°15' E 121°31'152304.5
2017-Mar-15 13:26N 31°30' E 121°24'0 7.4
2017-Mar-15 13:22N 31°29' E 121°25'0 4.1
2017-Mar-15 13:19N 31°30' E 121°25'0 4.0
2017-Mar-15 13:16N 31°29' E 121°25'460646.6
2017-Mar-15 12:33N 24°25' E 118°04'46253626.4
2017-Mar-15 12:33N 31°33' E 121°19'203201.4
2017-Mar-15 12:32N 31°15' E 121°31'94252.6
2017-Mar-15 12:32N 31°24' E 121°35'104470.3
2017-Mar-15 12:32N 31°29' E 121°25'050.9
2017-Mar-15 12:32N 31°29' E 121°25'1207.2
2017-Mar-15 12:32N 31°30' E 121°24'0126.7
2017-Mar-15 12:31N 31°30' E 121°24'1626.4
2017-Mar-15 12:31N 31°29' E 121°25'192403.7
2017-Mar-15 12:31N 31°42' E 121°08'141018.4
2017-Mar-15 12:30N 31°32' E 121°20'5229.9
2017-Mar-15 12:29N 31°30' E 121°25'460497.6
2017-Mar-15 11:33N 24°25' E 118°04'46016742.3
2017-Mar-15 11:32N 31°29' E 121°25'152098.7
2017-Mar-15 11:31N 31°15' E 121°31'151157.7
2017-Mar-15 11:30N 31°29' E 121°25'118.7
2017-Mar-15 11:28N 31°30' E 121°24'137.2
2017-Mar-15 11:27N 31°29' E 121°25'131155.4
2017-Mar-15 11:26N 31°38' E 121°14'101781.9
2017-Mar-15 11:26N 31°31' E 121°23'23936.8
2017-Mar-15 11:26N 31°30' E 121°25'121.5
2017-Mar-15 11:23N 31°30' E 121°24'4770.6
2017-Mar-15 11:23N 31°32' E 121°20'1599.1
2017-Mar-15 11:14N 31°24' E 121°35'459675.8
2017-Mar-15 10:33N 24°25' E 118°04'46124043.0
2017-Mar-15 10:32N 31°31' E 121°23'285.5
2017-Mar-15 10:30N 31°29' E 121°25'174.4
2017-Mar-15 10:30N 31°30' E 121°24'1452.9
2017-Mar-15 10:30N 31°29' E 121°25'9585641.8
2017-Mar-15 10:30N 30°15' E 122°33'9624743.8
2017-Mar-15 10:29N 31°30' E 121°24'1150.3
2017-Mar-15 10:29N 31°29' E 121°25'071.0
2017-Mar-15 10:29N 31°30' E 121°25'5399.9
2017-Mar-15 10:28N 31°32' E 121°20'14344.1
2017-Mar-15 10:26N 31°42' E 121°08'297367.6
2017-Mar-15 10:25N 31°24' E 121°35'1011.5
2017-Mar-15 09:33N 31°29' E 121°25'460414134.0
2017-Mar-15 09:33N 24°25' E 118°04'46022390.0
2017-Mar-15 09:32N 31°29' E 121°25'15698.4
2017-Mar-15 09:30N 31°15' E 121°31'164120.0
2017-Mar-15 09:30N 31°30' E 121°24'129.0
2017-Mar-15 09:29N 31°30' E 121°24'1036999.3
2017-Mar-15 09:29N 31°24' E 121°35'295728.1
2017-Mar-15 09:28N 31°42' E 121°08'19440.3
2017-Mar-15 09:26N 31°30' E 121°25'5187.3
2017-Mar-15 09:24N 31°32' E 121°20'472.8
2017-Mar-15 09:21N 31°30' E 121°24'268.3
2017-Mar-15 09:19N 31°31' E 121°23'1 1.7
2017-Mar-15 08:33N 31°30' E 121°24'46192103.5
2017-Mar-15 08:33N 24°25' E 118°04'4607815.3
2017-Mar-15 08:29N 31°29' E 121°25'1018203.5
2017-Mar-15 08:29N 31°24' E 121°35'101206.5
2017-Mar-15 08:29N 31°29' E 121°25'191175.2
2017-Mar-15 08:28N 31°42' E 121°08'18902.6
2017-Mar-15 08:27N 31°30' E 121°24'067.9
2017-Mar-15 08:26N 31°30' E 121°24'240.3
2017-Mar-15 08:24N 31°31' E 121°22'17750.8
2017-Mar-15 08:22N 31°15' E 121°31'449552.7
2017-Mar-15 07:34N 24°25' E 118°04'46131882.9
2017-Mar-15 07:33N 31°30' E 121°24'161006.3
2017-Mar-15 07:32N 31°15' E 121°31'17716.0
2017-Mar-15 07:30N 31°31' E 121°22'2133.6
2017-Mar-15 07:29N 31°29' E 121°25'061.7
2017-Mar-15 07:29N 31°30' E 121°24'18425.2
2017-Mar-15 07:26N 31°42' E 121°08'291747.3
2017-Mar-15 07:25N 31°24' E 121°35'10440.1
2017-Mar-15 07:24N 31°29' E 121°25'13615.8
2017-Mar-15 07:24N 31°30' E 121°24'414.8
2017-Mar-15 07:08N 31°32' E 121°20'588.6
2017-Mar-15 07:05N 31°30' E 121°25'460887.4
2017-Mar-15 06:34N 24°25' E 118°04'461829480.9
2017-Mar-15 06:33N 31°31' E 121°22'46442859.7
2017-Mar-15 06:33N 24°26' E 117°51'464128456.7
2017-Mar-15 06:33N 31°30' E 121°24'101697.4
2017-Mar-15 06:32N 31°24' E 121°35'1120064.1
2017-Mar-15 06:32N 31°30' E 121°24'1273.1
2017-Mar-15 06:32N 31°29' E 121°25'113.4
2017-Mar-15 06:29N 31°30' E 121°24'112.8
2017-Mar-15 06:25N 31°29' E 121°25'15998.2
2017-Mar-15 06:24N 31°15' E 121°31'191519.5
2017-Mar-15 06:23N 31°32' E 121°20'5121.0
2017-Mar-15 06:21N 31°30' E 121°25'460578.2
2017-Mar-15 05:33N 24°25' E 118°04'45986899.9
2017-Mar-15 05:33N 31°24' E 121°35'10940.2
2017-Mar-15 05:32N 31°29' E 121°25'0 3.3
2017-Mar-15 05:28N 31°30' E 121°24'010.6
2017-Mar-15 05:26N 31°29' E 121°25'1382.8
2017-Mar-15 05:26N 31°30' E 121°24'010.5
2017-Mar-15 05:24N 31°30' E 121°24'227.5
2017-Mar-15 05:21N 31°31' E 121°22'339.1
2017-Mar-15 05:17N 31°32' E 121°20'19129.9
2017-Mar-15 05:08N 31°15' E 121°31'449787.7
2017-Mar-15 04:34N 24°25' E 118°04'46034521.7
2017-Mar-15 04:33N 31°30' E 121°24'51430.7
2017-Mar-15 04:33N 31°33' E 121°21'5357.1
2017-Mar-15 04:32N 31°29' E 121°25'152386.1
2017-Mar-15 04:31N 31°15' E 121°31'151713.7
2017-Mar-15 04:31N 31°29' E 121°25'10183.3
2017-Mar-15 04:27N 31°24' E 121°35'11295.1
2017-Mar-15 04:25N 31°30' E 121°24'1219.2
2017-Mar-15 04:25N 31°31' E 121°22'21022.7
2017-Mar-15 04:25N 31°30' E 121°24'134.7
2017-Mar-15 04:23N 31°30' E 121°25'19229.5
2017-Mar-15 04:18N 31°42' E 121°08'1453.9
2017-Mar-15 04:03N 31°32' E 121°20'461935.3
2017-Mar-15 03:33N 24°25' E 118°04'46040409.9
2017-Mar-15 03:33N 31°29' E 121°25'192917.1
2017-Mar-15 03:32N 31°42' E 121°08'187038.1
2017-Mar-15 03:32N 31°30' E 121°24'41062.4
2017-Mar-15 03:32N 31°32' E 121°20'5213.7
2017-Mar-15 03:31N 31°30' E 121°24'020.6
2017-Mar-15 03:30N 31°29' E 121°25'2141.5
2017-Mar-15 03:29N 31°31' E 121°22'2176.7
2017-Mar-15 03:29N 31°30' E 121°24'113231.8
2017-Mar-15 03:28N 31°24' E 121°35'1063.0
2017-Mar-15 03:19N 31°29' E 121°25'0 3.1
2017-Mar-15 03:15N 31°30' E 121°25'8325.1
2017-Mar-15 03:13N 31°24' E 121°32'458676.2
2017-Mar-15 02:33N 24°25' E 118°04'44930512.6
2017-Mar-15 02:32N 31°15' E 121°31'151008.4
2017-Mar-15 02:31N 31°29' E 121°25'1137.1
2017-Mar-15 02:31N 31°30' E 121°24'109268.5
2017-Mar-15 02:30N 31°21' E 121°31'112374.5
2017-Mar-15 02:30N 31°30' E 121°24'4515.6
2017-Mar-15 02:30N 31°32' E 121°20'15573.1
2017-Mar-15 02:28N 31°24' E 121°35'10115.8
2017-Mar-15 02:23N 31°30' E 121°25'2179.8
2017-Mar-15 02:22N 31°31' E 121°23'233.5
2017-Mar-15 02:18N 31°29' E 121°25'460624.1
2017-Mar-15 01:33N 24°25' E 118°04'450180092.9
2017-Mar-15 01:33N 31°15' E 121°33'1629581.7
2017-Mar-15 01:33N 31°30' E 121°24'16663.4
2017-Mar-15 01:32N 31°15' E 121°31'197706.7
2017-Mar-15 01:32N 31°32' E 121°20'561.0
2017-Mar-15 01:27N 31°30' E 121°25'011.8
2017-Mar-15 01:26N 31°30' E 121°25'1369.2
2017-Mar-15 01:26N 31°30' E 121°24'168.9
2017-Mar-15 01:25N 31°29' E 121°25'10843.1
2017-Mar-15 01:24N 31°24' E 121°35'10468.2
2017-Mar-15 01:23N 31°29' E 121°25'19208.6
2017-Mar-15 01:18N 31°42' E 121°08'19649.8
2017-Mar-15 01:16N 31°29' E 121°25'460649.5
2017-Mar-15 00:33N 24°25' E 118°04'46075315.2
2017-Mar-15 00:33N 31°29' E 121°25'016.9
2017-Mar-15 00:32N 31°30' E 121°25'1315.0
2017-Mar-15 00:32N 31°30' E 121°24'16599.2
2017-Mar-15 00:30N 31°15' E 121°31'194989.8
2017-Mar-15 00:30N 31°32' E 121°20'231247.9
2017-Mar-15 00:29N 31°10' E 121°28'19365.7
2017-Mar-15 00:26N 31°29' E 121°25'1127.1
2017-Mar-15 00:25N 31°30' E 121°24'11798.5
2017-Mar-15 00:24N 31°24' E 121°35'459539.4
2017-Mar-14 23:33N 24°25' E 118°04'46053452.4
2017-Mar-14 23:33N 31°30' E 121°25'111277.0
2017-Mar-14 23:32N 31°37' E 121°15'122195.3
2017-Mar-14 23:32N 31°29' E 121°25'0 6.8
2017-Mar-14 23:31N 31°29' E 121°25'064.1
2017-Mar-14 23:31N 31°29' E 121°25'261857.2
2017-Mar-14 23:30N 31°03' E 121°28'205976.0
2017-Mar-14 23:30N 31°11' E 121°50'293460.7
2017-Mar-14 23:29N 31°30' E 121°24'16982.6
2017-Mar-14 23:28N 31°15' E 121°31'16469.4
2017-Mar-14 23:26N 31°30' E 121°24'461523.5
2017-Mar-14 22:33N 24°25' E 118°04'46693281.4
2017-Mar-14 22:33N 31°42' E 121°08'2794.0
2017-Mar-14 22:33N 31°41' E 121°10'2797121.8
2017-Mar-14 22:33N 31°24' E 121°35'101117.6
2017-Mar-14 22:33N 31°29' E 121°25'182447.2
2017-Mar-14 22:32N 31°19' E 121°42'183015.0
2017-Mar-14 22:32N 31°29' E 121°25'154187.2
2017-Mar-14 22:31N 31°15' E 121°31'179938.1
2017-Mar-14 22:31N 30°60' E 121°24'30529.9
2017-Mar-14 22:28N 31°30' E 121°25'134.1
2017-Mar-14 22:27N 31°30' E 121°24'114.9
2017-Mar-14 22:25N 31°30' E 121°25'1129.4
2017-Mar-14 22:24N 31°30' E 121°24'1103.6
2017-Mar-14 22:24N 31°29' E 121°25'460550.4
2017-Mar-14 21:33N 24°25' E 118°04'44955761.7
2017-Mar-14 21:33N 31°15' E 121°31'1611530.8
2017-Mar-14 21:33N 31°30' E 121°24'183182.3
2017-Mar-14 21:33N 31°42' E 121°08'295430.2
2017-Mar-14 21:32N 31°24' E 121°35'274252.9
2017-Mar-14 21:32N 30°59' E 121°22'311934.1
2017-Mar-14 21:31N 31°30' E 121°25'0306.4
2017-Mar-14 21:31N 31°29' E 121°25'034.7
2017-Mar-14 21:31N 31°29' E 121°25'21744.8
2017-Mar-14 21:29N 31°43' E 121°06'219518.8
2017-Mar-14 21:29N 31°29' E 121°25'161.2
2017-Mar-14 21:28N 31°30' E 121°24'2 7.3
2017-Mar-14 21:14N 31°31' E 121°23'461676.3
2017-Mar-14 20:33N 24°25' E 118°04'46026312.0
2017-Mar-14 20:32N 31°30' E 121°24'162620.0
2017-Mar-14 20:32N 31°15' E 121°31'1017267.3
2017-Mar-14 20:32N 31°22' E 121°39'148445.4
2017-Mar-14 20:32N 31°29' E 121°25'071.7
2017-Mar-14 20:32N 31°29' E 121°25'034.6
2017-Mar-14 20:31N 31°30' E 121°25'025.5
2017-Mar-14 20:30N 31°30' E 121°24'111.1
2017-Mar-14 20:26N 31°29' E 121°25'319.1
2017-Mar-14 20:18N 31°31' E 121°22'461620.8
2017-Mar-14 19:33N 24°25' E 118°04'46022695.9
2017-Mar-14 19:32N 31°29' E 121°25'163215.4
2017-Mar-14 19:32N 31°20' E 121°40'92241.7
2017-Mar-14 19:32N 31°15' E 121°31'162634.9
2017-Mar-14 19:31N 31°30' E 121°24'1287.3
2017-Mar-14 19:31N 31°30' E 121°24'0 8.4
2017-Mar-14 19:29N 31°29' E 121°25'2205.4
2017-Mar-14 19:28N 31°31' E 121°22'3106.1
2017-Mar-14 19:27N 31°33' E 121°20'5251.0
2017-Mar-14 19:26N 31°30' E 121°24'571298.8
2017-Mar-14 19:23N 31°58' E 120°26'76622.9
2017-Mar-14 19:16N 30°59' E 121°22'431614.1
2017-Mar-14 18:34N 24°25' E 118°04'464417511.5
2017-Mar-14 18:33N 31°36' E 121°16'248016.1
2017-Mar-14 18:33N 31°15' E 121°31'95604.3
2017-Mar-14 18:33N 31°20' E 121°40'1614500.3
2017-Mar-14 18:33N 31°29' E 121°25'053.3
2017-Mar-14 18:33N 31°29' E 121°25'120.1
2017-Mar-14 18:31N 31°30' E 121°24'252.7
2017-Mar-14 18:29N 31°31' E 121°22'321115.2
2017-Mar-14 18:27N 30°59' E 121°22'311433.4
2017-Mar-14 18:26N 31°30' E 121°24'1118.2
2017-Mar-14 18:25N 31°30' E 121°24'112.8
2017-Mar-14 18:20N 31°30' E 121°25'1520.0
2017-Mar-14 17:33N 31°20' E 121°39'1759800.2
2017-Mar-14 17:33N 31°30' E 121°24'461552620.9
2017-Mar-14 17:33N 24°25' E 118°04'449107805.9
2017-Mar-14 17:33N 31°15' E 121°31'153974.1
2017-Mar-14 17:33N 31°30' E 121°24'141004.2
2017-Mar-14 17:32N 31°39' E 121°13'14790.2
2017-Mar-14 17:31N 31°29' E 121°25'2592.2
2017-Mar-14 17:31N 31°31' E 121°22'283.4
2017-Mar-14 17:29N 31°29' E 121°25'20245.0
2017-Mar-14 17:24N 31°10' E 121°28'440.4
2017-Mar-14 17:18N 31°13' E 121°30'34871.2
2017-Mar-14 17:15N 31°42' E 121°08'18311.5
2017-Mar-14 17:12N 31°30' E 121°24'461716.5
2017-Mar-14 16:33N 24°25' E 118°04'4481611960.0
2017-Mar-14 16:33N 31°14' E 121°30'17947.8
2017-Mar-14 16:32N 31°30' E 121°24'121848.4
2017-Mar-14 16:32N 31°23' E 121°35'122411.6
2017-Mar-14 16:32N 31°30' E 121°24'116.0
2017-Mar-14 16:29N 31°29' E 121°25'056.1
2017-Mar-14 16:28N 31°30' E 121°24'0 4.6
2017-Mar-14 16:25N 31°29' E 121°25'224.0
2017-Mar-14 16:19N 31°31' E 121°22'17149.5
2017-Mar-14 16:12N 31°15' E 121°31'449693.4
2017-Mar-14 15:33N 24°25' E 118°04'46027157.2
2017-Mar-14 15:32N 31°29' E 121°25'011.3
2017-Mar-14 15:30N 31°29' E 121°25'128.4
2017-Mar-14 15:28N 31°30' E 121°24'18440.7
2017-Mar-14 15:25N 31°42' E 121°08'1688.1
2017-Mar-14 15:14N 31°31' E 121°22'243.8
2017-Mar-14 15:12N 31°30' E 121°24'127.1
2017-Mar-14 15:10N 31°29' E 121°25'11191.4
2017-Mar-14 15:07N 31°23' E 121°35'11386.9
2017-Mar-14 15:05N 31°30' E 121°25'460877.7
2017-Mar-14 14:34N 24°25' E 118°04'44995127.4
2017-Mar-14 14:33N 31°15' E 121°31'168251.5
2017-Mar-14 14:33N 31°30' E 121°24'138.7
2017-Mar-14 14:32N 31°29' E 121°25'11527.6
2017-Mar-14 14:30N 31°23' E 121°35'11507.9
2017-Mar-14 14:29N 31°29' E 121°25'130.2
2017-Mar-14 14:27N 31°30' E 121°24'122.0
2017-Mar-14 14:25N 31°29' E 121°25'0 2.1
2017-Mar-14 14:17N 31°30' E 121°25'0 7.4
2017-Mar-14 14:15N 31°30' E 121°25'222.2
2017-Mar-14 14:08N 31°31' E 121°23'461795.3
2017-Mar-14 13:33N 24°25' E 118°04'45712968.0
2017-Mar-14 13:31N 31°23' E 121°35'111146.7
2017-Mar-14 13:31N 31°30' E 121°24'1177.9
2017-Mar-14 13:30N 31°29' E 121°25'0210.0
2017-Mar-14 13:30N 31°29' E 121°25'192105.3
2017-Mar-14 13:30N 31°42' E 121°08'181983.8
2017-Mar-14 13:29N 31°30' E 121°24'123.9
2017-Mar-14 13:27N 31°29' E 121°25'228.3
2017-Mar-14 13:22N 31°31' E 121°23'10187.9
2017-Mar-14 13:18N 31°24' E 121°31'886.1
2017-Mar-14 13:13N 31°30' E 121°25'460700.9
2017-Mar-14 12:33N 24°25' E 118°04'46075319.3
2017-Mar-14 12:33N 31°30' E 121°25'124.7
2017-Mar-14 12:32N 31°30' E 121°24'1199.3
2017-Mar-14 12:31N 31°29' E 121°25'0 4.1
2017-Mar-14 12:30N 31°29' E 121°25'4385.2
2017-Mar-14 12:29N 31°27' E 121°28'467.0
2017-Mar-14 12:26N 31°29' E 121°25'116.0
2017-Mar-14 12:21N 31°30' E 121°24'138.3
2017-Mar-14 12:19N 31°31' E 121°23'221.4
2017-Mar-14 12:13N 31°29' E 121°24'1531091.3
2017-Mar-14 12:05N 29°18' E 122°55'391744.5
2017-Mar-14 11:34N 24°25' E 118°04'46133220.5
2017-Mar-14 11:33N 31°32' E 121°20'156140079.1
2017-Mar-14 11:33N 29°20' E 122°55'13611421.4
2017-Mar-14 11:32N 31°15' E 121°31'151072.8
2017-Mar-14 11:31N 31°29' E 121°24'2119.0
2017-Mar-14 11:30N 31°31' E 121°23'2428.2
2017-Mar-14 11:30N 31°30' E 121°24'111794.8
2017-Mar-14 11:29N 31°23' E 121°35'119629.2
2017-Mar-14 11:29N 31°29' E 121°25'1932.4
2017-Mar-14 11:29N 31°30' E 121°24'162.0
2017-Mar-14 11:28N 31°29' E 121°25'0 3.3
2017-Mar-14 11:23N 31°30' E 121°25'1012.6
2017-Mar-14 10:34N 31°24' E 121°35'458117871.1
2017-Mar-14 10:33N 24°25' E 118°04'460127458.1
2017-Mar-14 10:33N 31°29' E 121°25'151110.9
2017-Mar-14 10:32N 31°15' E 121°31'166331.7
2017-Mar-14 10:32N 31°30' E 121°24'121.1
2017-Mar-14 10:30N 31°29' E 121°25'138.1
2017-Mar-14 10:28N 31°30' E 121°24'110.9
2017-Mar-14 10:24N 31°30' E 121°25'022.8
2017-Mar-14 10:23N 31°29' E 121°25'0 4.6
2017-Mar-14 10:21N 31°30' E 121°25'252.6
2017-Mar-14 10:18N 31°31' E 121°23'11155.7
2017-Mar-14 10:14N 31°39' E 121°13'465696.7
2017-Mar-14 09:34N 24°25' E 118°04'4601654549.8
2017-Mar-14 09:34N 31°29' E 121°24'145.5
2017-Mar-14 09:32N 31°30' E 121°24'1238.3
2017-Mar-14 09:32N 31°30' E 121°25'020.6
2017-Mar-14 09:31N 31°29' E 121°25'10544.5
2017-Mar-14 09:30N 31°24' E 121°35'10603.7
2017-Mar-14 09:29N 31°29' E 121°25'241.7
2017-Mar-14 09:25N 31°31' E 121°23'2249.8
2017-Mar-14 09:25N 31°30' E 121°24'16325.6
2017-Mar-14 09:22N 31°15' E 121°31'1552.9
2017-Mar-14 09:05N 31°29' E 121°25'1 1.7
2017-Mar-14 08:34N 31°29' E 121°24'460275758.3
2017-Mar-14 08:33N 24°25' E 118°04'459206330.8
2017-Mar-14 08:33N 31°24' E 121°35'10102.3
2017-Mar-14 08:27N 31°29' E 121°25'1 6.8
2017-Mar-14 08:21N 31°30' E 121°24'2286.0
2017-Mar-14 08:20N 31°31' E 121°22'2106.1
2017-Mar-14 08:19N 31°29' E 121°25'020.1
2017-Mar-14 08:18N 31°29' E 121°24'021.1
2017-Mar-14 08:17N 31°29' E 121°25'170.3
2017-Mar-14 08:16N 31°30' E 121°24'1 1.3
2017-Mar-14 07:33N 31°29' E 121°24'460330910.0
2017-Mar-14 07:33N 24°25' E 118°04'461828911.5
2017-Mar-14 07:33N 31°30' E 121°24'0 4.6
2017-Mar-14 07:30N 31°30' E 121°24'11194.2
2017-Mar-14 07:26N 31°24' E 121°35'10245.4
2017-Mar-14 07:24N 31°29' E 121°25'0 4.0
2017-Mar-14 07:22N 31°29' E 121°25'0 4.3
2017-Mar-14 07:18N 31°30' E 121°25'0 6.1
2017-Mar-14 07:14N 31°30' E 121°24'460685.3
2017-Mar-14 06:33N 24°25' E 118°04'46024740.9
2017-Mar-14 06:32N 31°30' E 121°25'11028.9
2017-Mar-14 06:32N 31°30' E 121°24'10600.8
2017-Mar-14 06:31N 31°37' E 121°16'10672.7
2017-Mar-14 06:30N 31°29' E 121°24'120.7
2017-Mar-14 06:28N 31°29' E 121°25'0 3.5
2017-Mar-14 06:25N 31°29' E 121°25'1119.9
2017-Mar-14 06:24N 31°30' E 121°24'1 9.5
2017-Mar-14 06:21N 31°30' E 121°24'1 1.0
2017-Mar-14 05:33N 31°29' E 121°24'460551529.8
2017-Mar-14 05:33N 24°25' E 118°04'460552368.4
2017-Mar-14 05:33N 31°29' E 121°25'015.2
2017-Mar-14 05:33N 31°29' E 121°25'0145.3
2017-Mar-14 05:33N 31°30' E 121°24'1367.6
2017-Mar-14 05:33N 31°30' E 121°24'11288.3
2017-Mar-14 05:30N 31°24' E 121°35'132983.9
2017-Mar-14 05:30N 31°32' E 121°22'324.7
2017-Mar-14 05:22N 31°30' E 121°25'312.9
2017-Mar-14 05:10N 31°31' E 121°22'120.3
2017-Mar-14 05:06N 31°30' E 121°24'461846.7
2017-Mar-14 04:34N 24°25' E 118°04'45917376.9
2017-Mar-14 04:32N 31°24' E 121°35'911250.7
2017-Mar-14 04:32N 31°15' E 121°31'161812.1
2017-Mar-14 04:31N 31°30' E 121°24'153.2
2017-Mar-14 04:30N 31°31' E 121°22'2414.7
2017-Mar-14 04:29N 31°29' E 121°25'019.9
2017-Mar-14 04:29N 31°30' E 121°24'175667.6
2017-Mar-14 04:29N 31°20' E 121°42'17272.7
2017-Mar-14 04:25N 31°29' E 121°25'111.7
2017-Mar-14 04:21N 31°30' E 121°24'54330070.3
2017-Mar-14 04:20N 22°30' E 120°20'5434209.8
2017-Mar-14 04:12N 31°30' E 121°25'460717.0
2017-Mar-14 03:33N 24°25' E 118°04'46010762.4
2017-Mar-14 03:31N 31°29' E 121°25'127.0
2017-Mar-14 03:30N 31°30' E 121°24'106239.8
2017-Mar-14 03:30N 31°24' E 121°35'10728.9
2017-Mar-14 03:29N 31°29' E 121°25'151307.6
2017-Mar-14 03:28N 31°15' E 121°31'161260.9
2017-Mar-14 03:27N 31°30' E 121°24'038.4
2017-Mar-14 03:27N 31°30' E 121°24'1 4.3
2017-Mar-14 03:16N 31°29' E 121°25'460648.3
2017-Mar-14 02:33N 24°25' E 118°04'46055220.3
2017-Mar-14 02:33N 31°29' E 121°25'153404.5
2017-Mar-14 02:33N 31°15' E 121°31'166211.5
2017-Mar-14 02:32N 31°30' E 121°24'11775.2
2017-Mar-14 02:32N 31°24' E 121°35'11395.0
2017-Mar-14 02:30N 31°30' E 121°24'026.1
2017-Mar-14 02:29N 31°30' E 121°24'112.8
2017-Mar-14 02:24N 31°29' E 121°25'327.0
2017-Mar-14 02:18N 31°31' E 121°23'296.5
2017-Mar-14 02:17N 31°30' E 121°25'4602673.9
2017-Mar-14 02:06N 24°26' E 118°02'2 4.2
2017-Mar-14 01:33N 24°25' E 118°04'45997104.9
2017-Mar-14 01:33N 31°24' E 121°35'104550.9
2017-Mar-14 01:33N 31°29' E 121°25'457117536.5
2017-Mar-14 01:33N 24°28' E 118°04'44624711.8
2017-Mar-14 01:32N 31°15' E 121°31'172141.3
2017-Mar-14 01:31N 31°31' E 121°23'31021.4
2017-Mar-14 01:31N 31°29' E 121°25'197.3
2017-Mar-14 01:30N 31°30' E 121°24'115.4
2017-Mar-14 01:27N 31°30' E 121°25'1 8.9
2017-Mar-14 01:24N 31°30' E 121°24'460548.9
2017-Mar-14 00:33N 24°25' E 118°04'466558710.6
2017-Mar-14 00:33N 31°40' E 121°13'29104134.6
2017-Mar-14 00:33N 31°15' E 121°31'16782.1
2017-Mar-14 00:32N 31°30' E 121°24'1199.5
2017-Mar-14 00:32N 31°29' E 121°25'10971.2
2017-Mar-14 00:31N 31°24' E 121°35'11703.9
2017-Mar-14 00:30N 31°30' E 121°24'1 8.8
2017-Mar-14 00:25N 31°30' E 121°25'250.4
2017-Mar-14 00:22N 31°31' E 121°23'249.1
2017-Mar-14 00:19N 31°29' E 121°25'0 1.5
2017-Mar-14 00:11N 31°30' E 121°25'1524.6
2017-Mar-13 23:33N 31°15' E 121°31'151382.2
2017-Mar-13 23:33N 31°30' E 121°25'10387.8
2017-Mar-13 23:31N 31°24' E 121°35'103594.7
2017-Mar-13 23:31N 31°29' E 121°25'042.7
2017-Mar-13 23:30N 31°29' E 121°25'1340.4
2017-Mar-13 23:30N 31°30' E 121°24'111.9
2017-Mar-13 23:25N 31°30' E 121°25'1104.3
2017-Mar-13 23:25N 31°30' E 121°24'227.9
2017-Mar-13 23:21N 31°31' E 121°23'461577.8
2017-Mar-13 22:33N 24°25' E 118°04'449404311.0
2017-Mar-13 22:33N 31°15' E 121°31'151556.4
2017-Mar-13 22:33N 31°29' E 121°25'2416.6
2017-Mar-13 22:32N 31°31' E 121°23'2154.0
2017-Mar-13 22:32N 31°30' E 121°24'113912.9
2017-Mar-13 22:32N 31°24' E 121°35'11581.6
2017-Mar-13 22:30N 31°30' E 121°24'194.0
2017-Mar-13 22:30N 31°30' E 121°25'039.9
2017-Mar-13 22:29N 31°29' E 121°25'460494.5
2017-Mar-13 21:33N 24°25' E 118°04'4491617244.1
2017-Mar-13 21:33N 31°15' E 121°31'11844.9
2017-Mar-13 21:33N 31°26' E 121°29'518321.4
2017-Mar-13 21:33N 31°29' E 121°25'187.7
2017-Mar-13 21:32N 31°30' E 121°24'146.8
2017-Mar-13 21:31N 31°29' E 121°25'1835.0
2017-Mar-13 21:31N 31°30' E 121°24'129.5
2017-Mar-13 21:29N 31°30' E 121°25'578567.7
2017-Mar-13 21:29N 31°59' E 120°27'556179.8
2017-Mar-13 21:28N 31°31' E 121°23'212.8
2017-Mar-13 21:17N 31°30' E 121°25'460632.6
2017-Mar-13 20:33N 24°25' E 118°04'460331558.1
2017-Mar-13 20:33N 31°30' E 121°24'1212.3
2017-Mar-13 20:33N 31°30' E 121°23'172705.1
2017-Mar-13 20:33N 31°15' E 121°31'15463.9
2017-Mar-13 20:31N 31°29' E 121°25'0 4.6
2017-Mar-13 20:28N 31°29' E 121°25'023.7
2017-Mar-13 20:27N 31°29' E 121°25'112.1
2017-Mar-13 20:23N 31°30' E 121°24'267.7
2017-Mar-13 20:21N 31°31' E 121°22'461582.1
2017-Mar-13 19:34N 24°25' E 118°04'449808660.9
2017-Mar-13 19:34N 31°15' E 121°31'224625.8
2017-Mar-13 19:33N 31°34' E 121°18'7923.3
2017-Mar-13 19:33N 31°30' E 121°25'018.2
2017-Mar-13 19:32N 31°29' E 121°25'012.3
2017-Mar-13 19:31N 31°29' E 121°25'1227.3
2017-Mar-13 19:30N 31°30' E 121°24'026.9
2017-Mar-13 19:30N 31°30' E 121°24'137.4
2017-Mar-13 19:29N 31°29' E 121°24'1111.8
2017-Mar-13 18:34N 31°37' E 121°16'4641671912.5
2017-Mar-13 18:34N 24°25' E 118°04'449539081.4
2017-Mar-13 18:33N 31°15' E 121°31'161400.0
2017-Mar-13 18:33N 31°30' E 121°24'171200.6
2017-Mar-13 18:32N 31°42' E 121°10'181260.7
2017-Mar-13 18:31N 31°30' E 121°25'059.2
2017-Mar-13 18:31N 31°30' E 121°24'113.8
2017-Mar-13 18:27N 31°30' E 121°24'130.0
2017-Mar-13 18:25N 31°29' E 121°25'213.1
2017-Mar-13 18:14N 31°31' E 121°22'461678.3
2017-Mar-13 17:33N 24°25' E 118°04'46124745.3
2017-Mar-13 17:32N 31°30' E 121°24'188249.2
2017-Mar-13 17:32N 31°43' E 121°08'31501.6
2017-Mar-13 17:32N 31°41' E 121°10'172714.6
2017-Mar-13 17:32N 31°30' E 121°24'1607.0
2017-Mar-13 17:32N 31°30' E 121°24'12568.0
2017-Mar-13 17:30N 31°38' E 121°14'131707.3
2017-Mar-13 17:30N 31°30' E 121°25'151020.5
2017-Mar-13 17:29N 31°15' E 121°31'15603.5
2017-Mar-13 17:27N 31°29' E 121°25'2 8.3
2017-Mar-13 17:10N 31°31' E 121°22'4 6.8
2017-Mar-13 16:33N 31°34' E 121°19'4631665948.9
2017-Mar-13 16:33N 24°25' E 118°04'461414755.3
2017-Mar-13 16:33N 31°31' E 121°22'103339.1
2017-Mar-13 16:33N 31°39' E 121°15'188.2
2017-Mar-13 16:33N 31°38' E 121°14'2749110.6
2017-Mar-13 16:33N 31°15' E 121°31'16518.4
2017-Mar-13 16:31N 31°30' E 121°24'156.6
2017-Mar-13 16:30N 31°29' E 121°25'0 7.1
2017-Mar-13 16:28N 31°30' E 121°24'115.3
2017-Mar-13 16:26N 31°30' E 121°24'1 6.3
2017-Mar-13 16:18N 31°30' E 121°25'1 1.1
2017-Mar-13 15:33N 31°30' E 121°24'461184216.0
2017-Mar-13 15:33N 24°25' E 118°04'46366644.9
2017-Mar-13 15:32N 31°34' E 121°19'225974.0
2017-Mar-13 15:32N 31°15' E 121°31'153910.1
2017-Mar-13 15:32N 31°29' E 121°25'0 9.9
2017-Mar-13 15:30N 31°29' E 121°25'159.1
2017-Mar-13 15:29N 31°30' E 121°26'13757.7
2017-Mar-13 15:28N 31°38' E 121°14'1286.1
2017-Mar-13 15:19N 31°30' E 121°24'126.5
2017-Mar-13 15:18N 31°30' E 121°24'1622.1
2017-Mar-13 14:34N 31°41' E 121°11'466839236.4
2017-Mar-13 14:33N 24°25' E 118°04'460110515.3
2017-Mar-13 14:33N 31°31' E 121°22'21197.4
2017-Mar-13 14:33N 31°29' E 121°25'152594.9
2017-Mar-13 14:33N 31°15' E 121°31'161752.3
2017-Mar-13 14:32N 31°30' E 121°24'0333.2
2017-Mar-13 14:32N 31°30' E 121°24'1139.7
2017-Mar-13 14:32N 31°29' E 121°25'0 7.8
2017-Mar-13 14:29N 31°30' E 121°25'240.4
2017-Mar-13 14:25N 31°31' E 121°23'16300.2
2017-Mar-13 14:22N 31°42' E 121°10'467574.4
2017-Mar-13 13:33N 24°25' E 118°04'466129142.1
2017-Mar-13 13:33N 31°41' E 121°11'1619329.2
2017-Mar-13 13:33N 31°29' E 121°25'1114.0
2017-Mar-13 13:33N 31°30' E 121°24'112.0
2017-Mar-13 13:28N 31°30' E 121°23'195.0
2017-Mar-13 13:27N 31°31' E 121°23'272.2
2017-Mar-13 13:25N 31°29' E 121°25'036.3
2017-Mar-13 13:25N 31°30' E 121°25'14146.4
2017-Mar-13 13:19N 31°40' E 121°14'13945.5
2017-Mar-13 13:18N 31°30' E 121°24'461599.1
2017-Mar-13 12:32N 24°25' E 118°04'461552623.3
2017-Mar-13 12:32N 31°30' E 121°24'12741.1
2017-Mar-13 12:31N 31°39' E 121°14'131214.5
2017-Mar-13 12:31N 31°30' E 121°25'1325.7
2017-Mar-13 12:31N 31°30' E 121°24'13652.7
2017-Mar-13 12:29N 31°39' E 121°14'1424711.6
2017-Mar-13 12:29N 31°29' E 121°25'0 7.5
2017-Mar-13 12:27N 31°29' E 121°25'59394.1
2017-Mar-13 12:18N 31°58' E 120°24'721093.7
2017-Mar-13 12:14N 31°15' E 121°32'9283.9
2017-Mar-13 12:12N 31°23' E 121°31'457708.9
2017-Mar-13 11:34N 24°25' E 118°04'460331154.0
2017-Mar-13 11:33N 31°30' E 121°23'1443.1
2017-Mar-13 11:33N 31°29' E 121°25'083.5
2017-Mar-13 11:33N 31°30' E 121°25'112072.1
2017-Mar-13 11:33N 31°38' E 121°16'11335.7
2017-Mar-13 11:31N 31°30' E 121°25'582877.2
2017-Mar-13 11:30N 31°58' E 120°25'561503.3
2017-Mar-13 11:27N 31°31' E 121°23'360.1
2017-Mar-13 11:25N 31°29' E 121°25'1144.7
2017-Mar-13 11:24N 31°30' E 121°24'0 8.1
2017-Mar-13 11:22N 31°30' E 121°24'163779.7
2017-Mar-13 11:22N 31°41' E 121°11'467577.1
2017-Mar-13 10:33N 24°25' E 118°04'459826760.1
2017-Mar-13 10:33N 31°31' E 121°18'51757.6
2017-Mar-13 10:33N 31°36' E 121°18'501163.2
2017-Mar-13 10:31N 31°58' E 120°25'583515.6
2017-Mar-13 10:30N 31°30' E 121°24'1162.4
2017-Mar-13 10:29N 31°30' E 121°23'2191.7
2017-Mar-13 10:29N 31°29' E 121°25'011.5
2017-Mar-13 10:27N 31°30' E 121°25'2718.2
2017-Mar-13 10:26N 31°31' E 121°23'167.6
2017-Mar-13 10:25N 31°30' E 121°24'1282.5
2017-Mar-13 10:16N 31°39' E 121°13'45320.9
2017-Mar-13 10:08N 32°00' E 120°27'473824.4
2017-Mar-13 09:33N 24°25' E 118°04'443113944.2
2017-Mar-13 09:33N 31°16' E 121°11'183562.6
2017-Mar-13 09:33N 31°30' E 121°25'0493.7
2017-Mar-13 09:33N 31°29' E 121°25'1719935.9
2017-Mar-13 09:33N 31°41' E 121°11'1711899.3
2017-Mar-13 09:33N 31°29' E 121°25'141196.7
2017-Mar-13 09:32N 31°39' E 121°13'91024.6
2017-Mar-13 09:31N 31°31' E 121°18'31070.3
2017-Mar-13 09:31N 31°33' E 121°20'5490.3
2017-Mar-13 09:31N 31°30' E 121°24'136.6
2017-Mar-13 09:29N 31°30' E 121°23'57566.9
2017-Mar-13 09:23N 31°58' E 120°25'578980.7
2017-Mar-13 09:23N 31°30' E 121°24'461555.8
2017-Mar-13 08:33N 24°25' E 118°04'443228029.2
2017-Mar-13 08:33N 31°17' E 121°09'1969805.7
2017-Mar-13 08:33N 31°35' E 121°18'6688.3
2017-Mar-13 08:33N 31°31' E 121°22'040.4
2017-Mar-13 08:32N 31°31' E 121°22'2367.4
2017-Mar-13 08:32N 31°29' E 121°25'1197.3
2017-Mar-13 08:31N 31°30' E 121°23'1114.8
2017-Mar-13 08:31N 31°30' E 121°24'115.8
2017-Mar-13 08:27N 31°29' E 121°25'1 9.4
2017-Mar-13 08:21N 31°30' E 121°24'31178.5
2017-Mar-13 08:11N 30°59' E 121°22'311080.1
2017-Mar-13 08:09N 31°29' E 121°24'1 0.9
2017-Mar-13 07:34N 31°30' E 121°24'4601657646.8
2017-Mar-13 07:34N 24°25' E 118°04'442122480.8
2017-Mar-13 07:33N 31°17' E 121°06'231336.5
2017-Mar-13 07:32N 31°39' E 121°13'13677.8
2017-Mar-13 07:31N 31°30' E 121°23'162240.8
2017-Mar-13 07:31N 31°41' E 121°11'16997.2
2017-Mar-13 07:30N 31°29' E 121°24'0 0.8
2017-Mar-13 07:15N 31°29' E 121°25'124.7
2017-Mar-13 07:12N 31°30' E 121°23'111.3
2017-Mar-13 07:08N 31°30' E 121°24'460796.2
2017-Mar-13 06:34N 24°25' E 118°04'4368177.3
2017-Mar-13 06:30N 31°01' E 121°29'293717.1
2017-Mar-13 06:30N 31°30' E 121°23'0 5.6
2017-Mar-13 06:27N 31°30' E 121°23'144.6
2017-Mar-13 06:26N 31°29' E 121°25'170.3
2017-Mar-13 06:25N 31°30' E 121°24'15409.4
2017-Mar-13 06:23N 31°41' E 121°11'16991.9
2017-Mar-13 06:22N 31°30' E 121°24'1 4.8
2017-Mar-13 06:11N 31°30' E 121°25'0 5.2
2017-Mar-13 06:06N 31°30' E 121°24'460845.0
2017-Mar-13 05:33N 24°25' E 118°04'46129605.6
2017-Mar-13 05:33N 31°30' E 121°24'084.7
2017-Mar-13 05:32N 31°30' E 121°24'15255.6
2017-Mar-13 05:29N 31°41' E 121°11'172291.2
2017-Mar-13 05:28N 31°30' E 121°25'1177.6
2017-Mar-13 05:28N 31°30' E 121°23'191.0
2017-Mar-13 05:27N 31°29' E 121°25'22424.4
2017-Mar-13 05:24N 31°08' E 121°28'221101.9
2017-Mar-13 05:23N 31°30' E 121°23'112.9
2017-Mar-13 05:17N 31°30' E 121°24'21145.1
2017-Mar-13 05:08N 31°45' E 121°06'468798.1
2017-Mar-13 04:33N 24°25' E 118°04'46130702.7
2017-Mar-13 04:32N 31°30' E 121°24'151539.6
2017-Mar-13 04:32N 31°41' E 121°11'11222.3
2017-Mar-13 04:32N 31°41' E 121°11'151549.8
2017-Mar-13 04:31N 31°30' E 121°24'1651.5
2017-Mar-13 04:31N 31°30' E 121°24'010.8
2017-Mar-13 04:29N 31°30' E 121°25'22863.8
2017-Mar-13 04:29N 31°30' E 121°23'0 2.6
2017-Mar-13 04:24N 31°30' E 121°23'18831.6
2017-Mar-13 04:22N 31°13' E 121°30'17987.8
2017-Mar-13 04:21N 31°29' E 121°25'1 1.3
2017-Mar-13 03:33N 31°30' E 121°24'461414467.3
2017-Mar-13 03:33N 24°25' E 118°04'463333302.2
2017-Mar-13 03:33N 31°34' E 121°19'7386.6
2017-Mar-13 03:32N 31°29' E 121°25'163287.1
2017-Mar-13 03:32N 31°41' E 121°11'32385.2
2017-Mar-13 03:27N 31°15' E 121°32'1659.4
2017-Mar-13 03:10N 31°30' E 121°23'130.6
2017-Mar-13 03:08N 31°30' E 121°25'133.9
2017-Mar-13 03:06N 31°30' E 121°24'189.3
2017-Mar-13 03:05N 31°30' E 121°23'0 0.4
2017-Mar-13 02:33N 31°30' E 121°23'4601655724.4
2017-Mar-13 02:33N 24°25' E 118°04'46040402.2
2017-Mar-13 02:33N 31°29' E 121°25'1173.1
2017-Mar-13 02:32N 31°30' E 121°23'1254.1
2017-Mar-13 02:32N 31°30' E 121°24'2650.7
2017-Mar-13 02:32N 31°29' E 121°26'282.7
2017-Mar-13 02:30N 31°30' E 121°24'1138.4
2017-Mar-13 02:30N 31°29' E 121°25'0 0.5
2017-Mar-13 02:10N 31°30' E 121°25'0468.5
2017-Mar-13 02:10N 31°29' E 121°24'111939.3
2017-Mar-13 02:09N 31°21' E 121°32'13387.4
2017-Mar-13 02:07N 31°31' E 121°22'16288.2
2017-Mar-13 02:04N 31°42' E 121°09'  
Track history (hours):
 
Tides and Currents Weather Stations Pressure Air Temp Water Temp Dewpoint Dewpoint Depression Visibility Wind Speed Wind Dir Waves Ship Positions

Callsign 000000 (name unknown)

Last reported at 2017-Mar-23 01:34 UTC. Time now 2017-Mar-23 02:16 UTC.
Position N 24°25' E 118°05'.

Type: Fishing. MMSI: 200007452.

Date/timePositionNaut miles runAvg speedWind from/ knotsBaromVisibWave heightAir tempDewpointWater temp
2017-Mar-23 01:34N 24°25' E 118°05'42790441.8
2017-Mar-23 01:33N 31°02' E 121°03'352000.5
2017-Mar-23 01:32N 31°21' E 121°37'153914.8
2017-Mar-23 01:32N 31°30' E 121°22'2453.4
2017-Mar-23 01:32N 31°30' E 121°25'0 7.7
2017-Mar-23 01:30N 31°29' E 121°25'34946.4
2017-Mar-23 01:28N 31°07' E 120°55'376297.7
2017-Mar-23 01:27N 31°38' E 121°18'49925.5
2017-Mar-23 01:24N 31°58' E 120°26'4315556.6
2017-Mar-23 01:24N 31°41' E 121°12'15133.1
2017-Mar-23 01:17N 31°29' E 121°25'0 9.6
2017-Mar-23 01:15N 31°29' E 121°25'332.0
2017-Mar-23 01:10N 31°30' E 121°22'459756.7
2017-Mar-23 00:33N 24°25' E 118°05'46522949.2
2017-Mar-23 00:32N 31°38' E 121°18'193240.5
2017-Mar-23 00:32N 31°24' E 121°32'10401.8
2017-Mar-23 00:30N 31°30' E 121°22'2207.2
2017-Mar-23 00:30N 31°29' E 121°25'0 0.3
2017-Mar-23 00:29N 31°29' E 121°25'272.6
2017-Mar-23 00:27N 31°30' E 121°22'33313.5
2017-Mar-23 00:21N 31°07' E 120°55'38208.5
2017-Mar-23 00:10N 31°23' E 121°35'457749.6
2017-Mar-22 23:33N 24°25' E 118°05'46529390.7
2017-Mar-22 23:32N 31°38' E 121°18'461743.1
2017-Mar-22 23:31N 31°00' E 120°47'4221495.5
2017-Mar-22 23:31N 31°30' E 121°22'331106.4
2017-Mar-22 23:29N 31°07' E 120°55'341398.0
2017-Mar-22 23:27N 31°29' E 121°25'0 0.1
2017-Mar-22 23:21N 31°29' E 121°25'0 5.5
2017-Mar-22 23:17N 31°29' E 121°25'2357.4
2017-Mar-22 23:16N 31°30' E 121°22'0 0.1
2017-Mar-22 22:33N 31°30' E 121°22'459413364.0
2017-Mar-22 22:33N 24°25' E 118°05'45911982.5
2017-Mar-22 22:31N 31°30' E 121°22'9728.7
2017-Mar-22 22:30N 31°38' E 121°18'62286.0
2017-Mar-22 22:30N 31°41' E 121°12'16860.3
2017-Mar-22 22:29N 31°29' E 121°25'0 1.0
2017-Mar-22 22:16N 31°29' E 121°25'0 2.8
2017-Mar-22 22:11N 31°29' E 121°25'1016.5
2017-Mar-22 21:33N 31°38' E 121°18'93648.0
2017-Mar-22 21:33N 31°30' E 121°22'459826774.2
2017-Mar-22 21:33N 24°25' E 118°05'46011341.0
2017-Mar-22 21:31N 31°29' E 121°25'253.3
2017-Mar-22 21:28N 31°30' E 121°22'14678.4
2017-Mar-22 21:27N 31°41' E 121°12'164472.2
2017-Mar-22 21:27N 31°29' E 121°25'0134.0
2017-Mar-22 21:27N 31°29' E 121°25'460517.4
2017-Mar-22 20:33N 24°25' E 118°05'46042498.7
2017-Mar-22 20:33N 31°31' E 121°22'3310.7
2017-Mar-22 20:32N 31°29' E 121°25'1863296.8
2017-Mar-22 20:32N 31°41' E 121°10'1611270.4
2017-Mar-22 20:32N 31°30' E 121°22'2191.7
2017-Mar-22 20:31N 31°29' E 121°25'2984.7
2017-Mar-22 20:31N 31°30' E 121°22'9285.3
2017-Mar-22 20:29N 31°38' E 121°18'1167.0
2017-Mar-22 20:20N 31°29' E 121°25'0129.0
2017-Mar-22 20:20N 31°29' E 121°25'460595.0
2017-Mar-22 19:33N 24°25' E 118°05'45991866.0
2017-Mar-22 19:33N 31°30' E 121°22'0 4.5
2017-Mar-22 19:32N 31°30' E 121°22'352.2
2017-Mar-22 19:29N 31°29' E 121°25'111770.4
2017-Mar-22 19:29N 31°38' E 121°18'11927.4
2017-Mar-22 19:28N 31°29' E 121°25'0 0.3
2017-Mar-22 19:26N 31°29' E 121°25'0 3.4
2017-Mar-22 19:22N 31°29' E 121°25'460572.0
2017-Mar-22 18:33N 24°25' E 118°05'460331060.8
2017-Mar-22 18:33N 31°29' E 121°25'113804.2
2017-Mar-22 18:33N 31°38' E 121°18'11141.4
2017-Mar-22 18:29N 31°29' E 121°25'0 7.9
2017-Mar-22 18:26N 31°29' E 121°25'0 1.3
2017-Mar-22 18:17N 31°30' E 121°25'2115.5
2017-Mar-22 18:16N 31°30' E 121°22'0 0.6
2017-Mar-22 18:10N 31°30' E 121°22'459746.1
2017-Mar-22 17:34N 24°25' E 118°05'45933746.7
2017-Mar-22 17:33N 31°30' E 121°22'2182.9
2017-Mar-22 17:32N 31°29' E 121°25'0 1.8
2017-Mar-22 17:32N 31°29' E 121°25'11396.1
2017-Mar-22 17:30N 31°38' E 121°18'9311.9
2017-Mar-22 17:28N 31°30' E 121°22'253.9
2017-Mar-22 17:26N 31°29' E 121°25'0 0.6
2017-Mar-22 17:06N 31°29' E 121°25'460837.5
2017-Mar-22 16:33N 24°25' E 118°05'46043572.6
2017-Mar-22 16:33N 31°29' E 121°25'361.9
2017-Mar-22 16:30N 31°30' E 121°22'2462.9
2017-Mar-22 16:30N 31°29' E 121°25'0 1.8
2017-Mar-22 16:30N 31°29' E 121°25'111520.3
2017-Mar-22 16:29N 31°38' E 121°18'11171.6
2017-Mar-22 16:26N 31°29' E 121°25'460527.7
2017-Mar-22 15:33N 24°25' E 118°05'465837665.7
2017-Mar-22 15:33N 31°38' E 121°18'111123.3
2017-Mar-22 15:33N 31°30' E 121°25'0 2.0
2017-Mar-22 15:26N 31°29' E 121°25'0 0.0
2017-Mar-22 15:24N 31°29' E 121°25'214.7
2017-Mar-22 15:15N 31°30' E 121°22'459662.0
2017-Mar-22 14:34N 24°25' E 118°05'459110240.6
2017-Mar-22 14:33N 31°30' E 121°22'9223.6
2017-Mar-22 14:31N 31°38' E 121°18'11117.4
2017-Mar-22 14:25N 31°29' E 121°25'0 7.7
2017-Mar-22 14:24N 31°30' E 121°25'212.9
2017-Mar-22 14:13N 31°30' E 121°22'459701.0
2017-Mar-22 13:34N 24°25' E 118°05'45912720.1
2017-Mar-22 13:31N 31°30' E 121°22'9482.8
2017-Mar-22 13:30N 31°38' E 121°18'111135.3
2017-Mar-22 13:30N 31°29' E 121°25'0 4.5
2017-Mar-22 13:25N 31°29' E 121°25'460535.2
2017-Mar-22 12:33N 24°25' E 118°05'46536420.7
2017-Mar-22 12:33N 31°38' E 121°18'9216.5
2017-Mar-22 12:30N 31°30' E 121°22'459485.6
2017-Mar-22 11:33N 24°25' E 118°05'46078850.9
2017-Mar-22 11:33N 31°29' E 121°25'111287.5
2017-Mar-22 11:32N 31°38' E 121°18'10334.5
2017-Mar-22 11:31N 31°29' E 121°25'10294.1
2017-Mar-22 11:28N 31°37' E 121°17'1096.7
2017-Mar-22 11:22N 31°29' E 121°25'460566.5
2017-Mar-22 10:34N 24°25' E 118°05'46246202.9
2017-Mar-22 10:33N 31°34' E 121°20'5235.8
2017-Mar-22 10:32N 31°38' E 121°18'93271.3
2017-Mar-22 10:32N 31°30' E 121°22'2258.8
2017-Mar-22 10:31N 31°30' E 121°25'0 9.8
2017-Mar-22 10:30N 31°29' E 121°25'0 3.8
2017-Mar-22 10:24N 31°29' E 121°25'460543.8
2017-Mar-22 09:33N 24°25' E 118°05'46010341.1
2017-Mar-22 09:31N 31°30' E 121°22'3 9.6
2017-Mar-22 09:15N 31°30' E 121°25'027.6
2017-Mar-22 09:14N 31°29' E 121°25'11201.1
2017-Mar-22 09:11N 31°38' E 121°18'11157.8
2017-Mar-22 09:07N 31°29' E 121°25'712.1
2017-Mar-22 08:33N 31°34' E 121°19'4621662051.8
2017-Mar-22 08:33N 24°25' E 118°04'465167531.1
2017-Mar-22 08:33N 31°38' E 121°18'11431.3
2017-Mar-22 08:32N 31°29' E 121°25'0 7.7
2017-Mar-22 08:29N 31°29' E 121°25'3121.0
2017-Mar-22 08:27N 31°31' E 121°22'387.5
2017-Mar-22 08:26N 31°30' E 121°25'0 0.6
2017-Mar-22 08:04N 31°29' E 121°25'460904.1
2017-Mar-22 07:33N 24°25' E 118°05'4641669981.1
2017-Mar-22 07:33N 31°37' E 121°15'21354.6
2017-Mar-22 07:33N 31°38' E 121°18'11426.5
2017-Mar-22 07:32N 31°29' E 121°25'0 0.0
2017-Mar-22 07:29N 31°29' E 121°25'0 4.4
2017-Mar-22 07:26N 31°29' E 121°25'0 7.4
2017-Mar-22 07:25N 31°29' E 121°25'460538.1
2017-Mar-22 06:33N 24°25' E 118°05'466419025.3
2017-Mar-22 06:33N 31°41' E 121°11'6626.3
2017-Mar-22 06:33N 31°38' E 121°18'11338.0
2017-Mar-22 06:31N 31°29' E 121°25'0 7.8
2017-Mar-22 06:29N 31°29' E 121°25'0 0.3
2017-Mar-22 06:28N 31°29' E 121°25'0295.2
2017-Mar-22 06:28N 31°29' E 121°25'0 0.3
2017-Mar-22 05:33N 31°30' E 121°25'46078854.0
2017-Mar-22 05:33N 24°25' E 118°05'46588175.9
2017-Mar-22 05:33N 31°38' E 121°18'11237.8
2017-Mar-22 05:30N 31°29' E 121°25'0492.5
2017-Mar-22 05:30N 31°29' E 121°25'0 3.1
2017-Mar-22 05:30N 31°29' E 121°25'12275.7
2017-Mar-22 05:27N 31°22' E 121°36'910.0
2017-Mar-22 04:34N 31°15' E 121°30'44894907.4
2017-Mar-22 04:33N 24°25' E 118°04'46514443.7
2017-Mar-22 04:31N 31°38' E 121°18'11144.8
2017-Mar-22 04:27N 31°29' E 121°25'0 5.5
2017-Mar-22 04:23N 31°29' E 121°25'0 0.1
2017-Mar-22 04:19N 31°29' E 121°25'460603.5
2017-Mar-22 03:34N 24°25' E 118°04'46037636.6
2017-Mar-22 03:33N 31°30' E 121°25'111160.1
2017-Mar-22 03:32N 31°38' E 121°18'11258.8
2017-Mar-22 03:30N 31°29' E 121°25'3127.4
2017-Mar-22 03:29N 31°31' E 121°22'355.0
2017-Mar-22 03:26N 31°29' E 121°25'041.7
2017-Mar-22 03:25N 31°29' E 121°25'58195.6
2017-Mar-22 03:07N 31°58' E 120°26'470828.6
2017-Mar-22 02:33N 24°25' E 118°04'46545281.1
2017-Mar-22 02:33N 31°38' E 121°18'112534.9
2017-Mar-22 02:32N 31°29' E 121°25'0 0.6
2017-Mar-22 02:32N 31°29' E 121°25'012.8
2017-Mar-22 02:31N 31°29' E 121°25'0 1.2
2017-Mar-22 02:22N 31°29' E 121°25'460568.8
2017-Mar-22 01:33N 24°25' E 118°04'4608155.1
2017-Mar-22 01:30N 31°29' E 121°25'0 0.2
2017-Mar-22 01:28N 31°29' E 121°25'11190.0
2017-Mar-22 01:24N 31°38' E 121°18'11111.2
2017-Mar-22 01:19N 31°30' E 121°25'34443.4
2017-Mar-22 01:14N 31°07' E 120°55'34386.1
2017-Mar-22 01:09N 31°29' E 121°25'3 4.8
2017-Mar-22 00:33N 31°31' E 121°22'46144823.8
2017-Mar-22 00:32N 24°25' E 118°04'46625019.6
2017-Mar-22 00:31N 31°38' E 121°18'11424.9
2017-Mar-22 00:30N 31°29' E 121°25'0 0.0
2017-Mar-22 00:21N 31°29' E 121°25'0 0.8
2017-Mar-22 00:05N 31°30' E 121°25'1120.1
2017-Mar-21 23:33N 31°38' E 121°18'466139697.3
2017-Mar-21 23:33N 24°25' E 118°04'46027616.9
2017-Mar-21 23:32N 31°29' E 121°25'017.8
2017-Mar-21 23:31N 31°29' E 121°25'0 0.1
2017-Mar-21 23:27N 31°29' E 121°25'0 0.6
2017-Mar-21 23:07N 31°30' E 121°25'460828.1
2017-Mar-21 22:33N 24°25' E 118°04'461118670.6
2017-Mar-21 22:33N 31°33' E 121°19'53886.4
2017-Mar-21 22:33N 31°38' E 121°18'102223.2
2017-Mar-21 22:33N 31°29' E 121°25'0 6.0
2017-Mar-21 22:31N 31°30' E 121°25'038.1
2017-Mar-21 22:30N 31°29' E 121°25'052.8
2017-Mar-21 22:30N 31°29' E 121°25'460488.8
2017-Mar-21 21:33N 24°25' E 118°04'46053435.6
2017-Mar-21 21:33N 31°29' E 121°25'10629.6
2017-Mar-21 21:32N 31°38' E 121°18'112114.0
2017-Mar-21 21:32N 31°30' E 121°25'0 1.8
2017-Mar-21 21:25N 31°29' E 121°25'017.8
2017-Mar-21 21:23N 31°29' E 121°25'0 0.3
2017-Mar-21 20:33N 31°30' E 121°25'46055231.2
2017-Mar-21 20:33N 24°25' E 118°04'46612060.8
2017-Mar-21 20:30N 31°38' E 121°18'10786.6
2017-Mar-21 20:30N 31°29' E 121°25'0 0.1
2017-Mar-21 20:23N 31°29' E 121°25'015.8
2017-Mar-21 20:22N 31°29' E 121°25'460573.5
2017-Mar-21 19:33N 24°25' E 118°04'46059172.0
2017-Mar-21 19:33N 31°29' E 121°25'014.5
2017-Mar-21 19:32N 31°29' E 121°25'113450.3
2017-Mar-21 19:32N 31°38' E 121°18'119763.3
2017-Mar-21 19:32N 31°29' E 121°25'022.8
2017-Mar-21 19:31N 31°29' E 121°25'1011.0
2017-Mar-21 18:33N 31°38' E 121°18'466167625.7
2017-Mar-21 18:33N 24°25' E 118°04'46021235.3
2017-Mar-21 18:32N 31°29' E 121°25'087.6
2017-Mar-21 18:32N 31°29' E 121°25'020.0
2017-Mar-21 18:31N 31°29' E 121°25'019.0
2017-Mar-21 18:30N 31°29' E 121°25'460488.6
2017-Mar-21 17:33N 24°25' E 118°04'46023335.6
2017-Mar-21 17:32N 31°29' E 121°25'11373.1
2017-Mar-21 17:30N 31°38' E 121°18'11955.3
2017-Mar-21 17:30N 31°29' E 121°25'0 4.9
2017-Mar-21 17:27N 31°29' E 121°25'460513.3
2017-Mar-21 16:33N 24°25' E 118°04'46018822.0
2017-Mar-21 16:32N 31°29' E 121°25'019.7
2017-Mar-21 16:31N 31°29' E 121°25'113176.8
2017-Mar-21 16:31N 31°38' E 121°18'1194.6
2017-Mar-21 16:24N 31°29' E 121°25'0 1.0
2017-Mar-21 16:04N 31°29' E 121°25'460917.4
2017-Mar-21 15:33N 24°25' E 118°04'466279376.2
2017-Mar-21 15:33N 31°38' E 121°18'11910.3
2017-Mar-21 15:33N 31°29' E 121°25'010.4
2017-Mar-21 15:31N 31°29' E 121°25'0 0.0
2017-Mar-21 15:30N 31°29' E 121°25'0 5.1
2017-Mar-21 15:26N 31°29' E 121°25'460528.3
2017-Mar-21 14:33N 24°25' E 118°04'460103518.3
2017-Mar-21 14:33N 31°29' E 121°25'0 0.3
2017-Mar-21 14:32N 31°29' E 121°25'111083.9
2017-Mar-21 14:31N 31°38' E 121°18'11169.8
2017-Mar-21 14:28N 31°29' E 121°25'0 7.9
2017-Mar-21 14:26N 31°29' E 121°25'58781.2
2017-Mar-21 14:22N 31°60' E 120°27'707881.0
2017-Mar-21 14:21N 31°22' E 121°36'457573.4
2017-Mar-21 13:33N 24°25' E 118°04'466139688.1
2017-Mar-21 13:33N 31°38' E 121°18'111311.8
2017-Mar-21 13:33N 31°29' E 121°25'0 0.7
2017-Mar-21 13:32N 31°29' E 121°25'010.1
2017-Mar-21 13:30N 31°29' E 121°25'0 8.1
2017-Mar-21 13:29N 31°29' E 121°25'182739.4
2017-Mar-21 13:28N 31°19' E 121°42'77901.5
2017-Mar-21 13:23N 31°58' E 120°25'470565.5
2017-Mar-21 12:33N 24°25' E 118°04'46053444.2
2017-Mar-21 12:33N 31°29' E 121°25'8466.2
2017-Mar-21 12:32N 31°24' E 121°31'1323043.9
2017-Mar-21 12:32N 31°18' E 121°44'201231.5
2017-Mar-21 12:31N 31°29' E 121°25'0 0.0
2017-Mar-21 12:30N 31°29' E 121°25'11181.7
2017-Mar-21 12:26N 31°38' E 121°18'11114.4
2017-Mar-21 12:21N 31°29' E 121°25'460583.1
2017-Mar-21 11:33N 24°25' E 118°04'46043599.3
2017-Mar-21 11:33N 31°29' E 121°25'121304.1
2017-Mar-21 11:32N 31°22' E 121°36'232637.1
2017-Mar-21 11:32N 31°38' E 121°18'11702.5
2017-Mar-21 11:31N 31°29' E 121°25'0 2.0
2017-Mar-21 11:29N 31°29' E 121°25'0 1.9
2017-Mar-21 11:16N 31°29' E 121°25'460649.7
2017-Mar-21 10:33N 24°25' E 118°04'466167627.7
2017-Mar-21 10:33N 31°38' E 121°18'296049.9
2017-Mar-21 10:33N 31°19' E 121°43'202459.8
2017-Mar-21 10:32N 31°30' E 121°22'270.4
2017-Mar-21 10:31N 31°29' E 121°25'013.8
2017-Mar-21 10:30N 31°29' E 121°25'58843.8
2017-Mar-21 10:26N 31°58' E 120°25'165.5
2017-Mar-21 10:25N 31°58' E 120°26'58657.7
2017-Mar-21 10:20N 31°29' E 121°25'0 2.5
2017-Mar-21 10:10N 31°29' E 121°25'460756.3
2017-Mar-21 09:33N 24°25' E 118°04'46631042.5
2017-Mar-21 09:32N 31°38' E 121°18'92179.6
2017-Mar-21 09:32N 31°30' E 121°22'222748.9
2017-Mar-21 09:32N 31°17' E 121°44'7835121.8
2017-Mar-21 09:32N 31°58' E 120°26'1310.3
2017-Mar-21 09:31N 31°58' E 120°25'581285.8
2017-Mar-21 09:29N 31°29' E 121°25'0 4.4
2017-Mar-21 09:26N 31°29' E 121°25'5866.7
2017-Mar-21 08:34N 31°58' E 120°26'50180129.0
2017-Mar-21 08:33N 31°36' E 121°18'243729.3
2017-Mar-21 08:33N 31°20' E 121°40'457274272.0
2017-Mar-21 08:33N 24°25' E 118°04'460184079.4
2017-Mar-21 08:33N 31°29' E 121°25'013.6
2017-Mar-21 08:31N 31°29' E 121°25'101048.9
2017-Mar-21 08:30N 31°38' E 121°18'9235.1
2017-Mar-21 08:28N 31°30' E 121°22'2116.4
2017-Mar-21 08:27N 31°29' E 121°25'0 4.2
2017-Mar-21 08:23N 31°29' E 121°25'460555.2
2017-Mar-21 07:34N 24°25' E 118°04'46226799.1
2017-Mar-21 07:33N 31°32' E 121°23'84793.0
2017-Mar-21 07:32N 31°38' E 121°18'212991.0
2017-Mar-21 07:32N 31°23' E 121°34'121042.9
2017-Mar-21 07:31N 31°30' E 121°22'2576.5
2017-Mar-21 07:31N 31°29' E 121°25'061.3
2017-Mar-21 07:31N 31°29' E 121°25'0 5.4
2017-Mar-21 07:29N 31°29' E 121°25'0322.3
2017-Mar-21 07:29N 31°29' E 121°25'581298.0
2017-Mar-21 07:26N 31°58' E 120°26'136.6
2017-Mar-21 07:25N 31°58' E 120°25'1 0.8
2017-Mar-21 06:33N 31°58' E 120°26'5667118.7
2017-Mar-21 06:33N 31°30' E 121°22'460551527.1
2017-Mar-21 06:33N 24°25' E 118°04'46050191.3
2017-Mar-21 06:33N 31°29' E 121°25'0 0.4
2017-Mar-21 06:32N 31°29' E 121°25'0 9.2
2017-Mar-21 06:30N 31°29' E 121°25'5914073.7
2017-Mar-21 06:29N 31°58' E 120°25'49963.6
2017-Mar-21 06:26N 31°38' E 121°18'6495.2
2017-Mar-21 06:26N 31°40' E 121°12'16185.9
2017-Mar-21 06:21N 31°29' E 121°25'460584.6
2017-Mar-21 05:33N 24°25' E 118°04'47089138.0
2017-Mar-21 05:33N 31°58' E 120°26'4810097.9
2017-Mar-21 05:33N 31°37' E 121°16'484809.9
2017-Mar-21 05:32N 31°58' E 120°25'596407.5
2017-Mar-21 05:32N 31°29' E 121°25'035.8
2017-Mar-21 05:31N 31°29' E 121°25'0 6.0
2017-Mar-21 05:29N 31°29' E 121°25'0 3.0
2017-Mar-21 05:24N 31°29' E 121°25'112104.6
2017-Mar-21 05:24N 31°38' E 121°18'9509.0
2017-Mar-21 05:23N 31°30' E 121°22'1669.1
2017-Mar-21 05:09N 31°21' E 121°38'72119.5
2017-Mar-21 04:33N 31°58' E 120°26'470188175.5
2017-Mar-21 04:33N 24°25' E 118°04'46051708.4
2017-Mar-21 04:33N 31°30' E 121°22'42460.5
2017-Mar-21 04:33N 31°34' E 121°20'6832.3
2017-Mar-21 04:32N 31°29' E 121°25'18358.3
2017-Mar-21 04:29N 31°19' E 121°42'182197.1
2017-Mar-21 04:29N 31°29' E 121°25'111121.2
2017-Mar-21 04:28N 31°38' E 121°18'466510.9
2017-Mar-21 03:34N 24°25' E 118°04'460206833.5
2017-Mar-21 03:33N 31°30' E 121°22'94047.4
2017-Mar-21 03:33N 31°38' E 121°18'101002.8
2017-Mar-21 03:33N 31°31' E 121°25'178.0
2017-Mar-21 03:32N 31°29' E 121°25'0 0.4
2017-Mar-21 03:31N 31°29' E 121°25'213342.6
2017-Mar-21 03:31N 31°16' E 121°44'363048.2
2017-Mar-21 03:30N 31°39' E 121°13'145741.9
2017-Mar-21 03:30N 31°29' E 121°25'581517.3
2017-Mar-21 03:27N 31°58' E 120°26'584884.8
2017-Mar-21 03:27N 31°29' E 121°25'460519.2
2017-Mar-21 02:33N 24°25' E 118°04'460551555.9
2017-Mar-21 02:33N 31°30' E 121°22'9498.1
2017-Mar-21 02:32N 31°38' E 121°18'493806.3
2017-Mar-21 02:32N 31°58' E 120°26'792769.4
2017-Mar-21 02:30N 31°16' E 121°44'791320.9
2017-Mar-21 02:26N 31°60' E 120°27'582330.6
2017-Mar-21 02:25N 31°29' E 121°25'10169.4
2017-Mar-21 02:21N 31°36' E 121°16'1047.6
2017-Mar-21 02:09N 31°29' E 121°25'015.8
2017-Mar-21 02:08N 31°29' E 121°25'460797.7
2017-Mar-21 01:33N 24°25' E 118°04'456102603.7
2017-Mar-21 01:33N 31°17' E 121°44'7940382.6
2017-Mar-21 01:33N 31°58' E 120°26'491805.0
2017-Mar-21 01:31N 31°38' E 121°18'9660.8
2017-Mar-21 01:31N 31°30' E 121°22'2176.2
2017-Mar-21 01:30N 31°29' E 121°25'0 0.1
2017-Mar-21 01:24N 31°29' E 121°25'024.6
2017-Mar-21 01:23N 31°29' E 121°25'0 2.6
2017-Mar-21 01:19N 31°29' E 121°25'460607.8
2017-Mar-21 00:33N 24°25' E 118°04'466419076.8
2017-Mar-21 00:33N 31°38' E 121°18'115419.4
2017-Mar-21 00:33N 31°29' E 121°25'132165.4
2017-Mar-21 00:33N 31°21' E 121°37'13695.4
2017-Mar-21 00:32N 31°29' E 121°25'0 2.7
2017-Mar-21 00:28N 31°29' E 121°25'2162.8
2017-Mar-21 00:27N 31°30' E 121°22'388.4
2017-Mar-21 00:25N 31°30' E 121°25'015.8
2017-Mar-21 00:24N 31°29' E 121°25'460548.8
2017-Mar-20 23:33N 24°25' E 118°04'46091994.2
2017-Mar-20 23:33N 31°29' E 121°25'0 1.9
2017-Mar-20 23:29N 31°29' E 121°25'10177.9
2017-Mar-20 23:25N 31°38' E 121°18'112268.6
2017-Mar-20 23:25N 31°29' E 121°25'0 1.5
2017-Mar-20 23:20N 31°29' E 121°25'14371.9
2017-Mar-20 23:17N 31°39' E 121°13'465634.7
2017-Mar-20 22:34N 24°25' E 118°04'460184061.9
2017-Mar-20 22:33N 31°29' E 121°25'105363.9
2017-Mar-20 22:33N 31°38' E 121°18'11176.1
2017-Mar-20 22:30N 31°30' E 121°25'141206.5
2017-Mar-20 22:29N 31°39' E 121°13'14118.6
2017-Mar-20 22:22N 31°29' E 121°25'0 3.6
2017-Mar-20 22:14N 31°29' E 121°25'460663.8
2017-Mar-20 21:33N 24°25' E 118°04'46622056.3
2017-Mar-20 21:31N 31°38' E 121°18'11217.5
2017-Mar-20 21:28N 31°29' E 121°25'0 4.9
2017-Mar-20 21:26N 31°30' E 121°25'065.9
2017-Mar-20 21:26N 31°29' E 121°25'0 4.1
2017-Mar-20 21:24N 31°29' E 121°25'141092.1
2017-Mar-20 21:23N 31°39' E 121°13'4 5.1
2017-Mar-20 20:33N 31°38' E 121°18'466335259.5
2017-Mar-20 20:33N 24°25' E 118°04'4606205.8
2017-Mar-20 20:29N 31°29' E 121°25'0324.0
2017-Mar-20 20:29N 31°29' E 121°25'012.1
2017-Mar-20 20:28N 31°29' E 121°25'53871212151.6
2017-Mar-20 20:27N 49°18' W 123°02'538834389.0
2017-Mar-20 20:18N 31°36' E 121°18'937.2
2017-Mar-20 20:04N 31°29' E 121°25'3 6.7
2017-Mar-20 19:33N 31°32' E 121°22'462276962.8
2017-Mar-20 19:33N 24°25' E 118°04'59001011488.8
2017-Mar-20 19:33N 49°18' W 123°02'53881293029.1
2017-Mar-20 19:33N 31°29' E 121°25'0774.1
2017-Mar-20 19:33N 31°29' E 121°25'020.1
2017-Mar-20 19:32N 31°29' E 121°25'10294.9
2017-Mar-20 19:30N 31°38' E 121°18'484.3
2017-Mar-20 19:27N 31°39' E 121°13'14125.0
2017-Mar-20 19:20N 31°29' E 121°25'0 1.8
2017-Mar-20 19:16N 31°29' E 121°25'460651.1
2017-Mar-20 18:33N 24°25' E 118°04'46082767.6
2017-Mar-20 18:33N 31°28' E 121°28'3283.3
2017-Mar-20 18:32N 31°29' E 121°25'11643.3
2017-Mar-20 18:31N 31°38' E 121°18'4185.2
2017-Mar-20 18:30N 31°40' E 121°13'143248.6
2017-Mar-20 18:30N 31°29' E 121°25'034.1
2017-Mar-20 18:29N 31°29' E 121°25'1293.1
2017-Mar-20 18:21N 31°22' E 121°36'12307.7
2017-Mar-20 18:19N 31°29' E 121°25'1114.0
2017-Mar-20 17:33N 31°38' E 121°18'466419091.8
2017-Mar-20 17:33N 24°25' E 118°04'46020199.4
2017-Mar-20 17:32N 31°29' E 121°25'055.8
2017-Mar-20 17:32N 31°29' E 121°25'010.5
2017-Mar-20 17:31N 31°29' E 121°25'19247.0
2017-Mar-20 17:26N 31°19' E 121°43'191551.2
2017-Mar-20 17:26N 31°29' E 121°25'14523.9
2017-Mar-20 17:24N 31°40' E 121°13'15265.8
2017-Mar-20 17:21N 31°29' E 121°25'460582.6
2017-Mar-20 16:33N 24°25' E 118°04'45658661.6
2017-Mar-20 16:33N 31°18' E 121°44'303880.9
2017-Mar-20 16:32N 31°38' E 121°18'11440.9
2017-Mar-20 16:31N 31°29' E 121°25'0 2.3
2017-Mar-20 16:28N 31°29' E 121°25'14656.4
2017-Mar-20 16:26N 31°40' E 121°13'15357.3
2017-Mar-20 16:24N 31°29' E 121°25'460543.2
2017-Mar-20 15:33N 24°25' E 118°04'46027162.0
2017-Mar-20 15:32N 31°29' E 121°25'12260.0
2017-Mar-20 15:29N 31°22' E 121°36'2310186.1
2017-Mar-20 15:29N 31°38' E 121°18'114219.0
2017-Mar-20 15:29N 31°29' E 121°25'040.6
2017-Mar-20 15:29N 31°29' E 121°25'141997.9
2017-Mar-20 15:28N 31°40' E 121°13'337.6
2017-Mar-20 15:24N 31°41' E 121°10'17186.1
2017-Mar-20 15:19N 31°29' E 121°25'28127.6
2017-Mar-20 15:06N 31°19' E 120°55'441817.3
2017-Mar-20 14:33N 24°25' E 118°04'46043579.2
2017-Mar-20 14:33N 31°29' E 121°25'022.0
2017-Mar-20 14:32N 31°29' E 121°25'265440.1
2017-Mar-20 14:31N 31°20' E 120°57'256983.0
2017-Mar-20 14:31N 31°38' E 121°18'41281.5
2017-Mar-20 14:31N 31°40' E 121°13'1594.7
2017-Mar-20 14:22N 31°29' E 121°25'1490.9
2017-Mar-20 14:12N 31°39' E 121°13'465713.3
2017-Mar-20 13:33N 24°25' E 118°04'46562000.3
2017-Mar-20 13:33N 31°39' E 121°13'4392.6
2017-Mar-20 13:32N 31°38' E 121°18'115409.5
2017-Mar-20 13:32N 31°29' E 121°25'017.5
2017-Mar-20 13:32N 31°29' E 121°25'4926537347.7
2017-Mar-20 13:31S 20°14' E 057°21'4926213654.0
2017-Mar-20 13:30N 31°29' E 121°25'15243.1
2017-Mar-20 13:26N 31°40' E 121°13'49155556.9
2017-Mar-20 12:33S 20°09' E 057°27'45121804791.6
2017-Mar-20 12:33N 24°25' E 118°04'460207044.1
2017-Mar-20 12:33N 31°29' E 121°25'14254.6
2017-Mar-20 12:29N 31°40' E 121°13'151537.3
2017-Mar-20 12:29N 31°29' E 121°25'11035.3
2017-Mar-20 12:29N 31°28' E 121°25'115.5
2017-Mar-20 12:25N 31°29' E 121°25'11117.7
2017-Mar-20 12:19N 31°38' E 121°18'111024.4
2017-Mar-20 12:19N 31°29' E 121°25'460611.5
2017-Mar-20 11:34N 24°25' E 118°04'466279602.9
2017-Mar-20 11:33N 31°40' E 121°14'110.7
2017-Mar-20 11:30N 31°40' E 121°13'462.5
2017-Mar-20 11:26N 31°38' E 121°18'111996.6
2017-Mar-20 11:26N 31°29' E 121°25'062.6
2017-Mar-20 11:26N 31°29' E 121°25'093.9
2017-Mar-20 11:26N 31°29' E 121°25'0 5.7
2017-Mar-20 11:24N 31°29' E 121°25'127.7
2017-Mar-20 11:22N 31°28' E 121°25'459573.1
2017-Mar-20 10:33N 24°25' E 118°04'4668736.9
2017-Mar-20 10:30N 31°40' E 121°13'1526149.7
2017-Mar-20 10:30N 31°29' E 121°25'1374.5
2017-Mar-20 10:30N 31°28' E 121°25'1275.2
2017-Mar-20 10:30N 31°29' E 121°25'111145.8
2017-Mar-20 10:29N 31°38' E 121°18'101511.1
2017-Mar-20 10:29N 31°29' E 121°25'20763.9
2017-Mar-20 10:27N 31°10' E 121°28'14475.0
2017-Mar-20 10:25N 31°24' E 121°31'827.2
2017-Mar-20 10:09N 31°29' E 121°25'5899.2
2017-Mar-20 09:33N 31°58' E 120°26'4919439.8
2017-Mar-20 09:33N 31°38' E 121°18'114817.3
2017-Mar-20 09:33N 31°29' E 121°25'460828476.4
2017-Mar-20 09:33N 24°25' E 118°04'45927555.7
2017-Mar-20 09:32N 31°28' E 121°25'157.6
2017-Mar-20 09:31N 31°29' E 121°25'0 4.2
2017-Mar-20 09:29N 31°29' E 121°25'075.2
2017-Mar-20 09:29N 31°30' E 121°25'17105.9
2017-Mar-20 09:19N 31°13' E 121°30'11123.1
2017-Mar-20 09:14N 31°24' E 121°31'6596.9
2017-Mar-20 08:33N 31°58' E 120°26'470338720.1
2017-Mar-20 08:33N 24°25' E 118°04'457274068.7
2017-Mar-20 08:33N 31°24' E 121°31'92800.3
2017-Mar-20 08:33N 31°15' E 121°31'261880.5
2017-Mar-20 08:32N 31°38' E 121°18'101632.5
2017-Mar-20 08:32N 31°29' E 121°25'077.2
2017-Mar-20 08:32N 31°29' E 121°25'7447.4
2017-Mar-20 08:31N 31°24' E 121°31'7211.7
2017-Mar-20 08:29N 31°29' E 121°25'1415.1
2017-Mar-20 07:34N 31°21' E 121°38'457149600.4
2017-Mar-20 07:33N 24°25' E 118°04'47049812.4
2017-Mar-20 07:33N 31°58' E 120°26'442188.4
2017-Mar-20 07:32N 31°40' E 121°13'4905.1
2017-Mar-20 07:31N 31°38' E 121°18'1861.7
2017-Mar-20 07:14N 31°24' E 121°31'19284.2
2017-Mar-20 07:10N 31°38' E 121°15'465765.4
2017-Mar-20 06:33N 24°25' E 118°04'47065139.3
2017-Mar-20 06:33N 31°58' E 120°26'4911675.6
2017-Mar-20 06:33N 31°38' E 121°18'22304.0
2017-Mar-20 06:33N 31°36' E 121°18'9558.1
2017-Mar-20 06:32N 31°29' E 121°25'0 6.4
2017-Mar-20 06:27N 31°29' E 121°25'0 0.8
2017-Mar-20 06:17N 31°29' E 121°25'760.4
2017-Mar-20 06:09N 31°24' E 121°31'2236.4
2017-Mar-20 05:33N 31°40' E 121°13'466335499.2
2017-Mar-20 05:33N 24°25' E 118°04'46069005.0
2017-Mar-20 05:33N 31°29' E 121°25'1787.3
2017-Mar-20 05:33N 31°28' E 121°25'5915142.0
2017-Mar-20 05:33N 31°58' E 120°26'538004.8
2017-Mar-20 05:32N 31°32' E 121°20'121008.7
2017-Mar-20 05:31N 31°23' E 121°30'18495.8
2017-Mar-20 05:29N 31°38' E 121°18'11482.3
2017-Mar-20 05:28N 31°29' E 121°25'0 5.7
2017-Mar-20 05:26N 31°29' E 121°25'460526.5
2017-Mar-20 04:33N 24°25' E 118°04'470112906.7
2017-Mar-20 04:33N 31°58' E 120°26'493725.9
2017-Mar-20 04:32N 31°38' E 121°18'11403.8
2017-Mar-20 04:31N 31°29' E 121°25'5487.7
2017-Mar-20 04:30N 31°31' E 121°20'1096.2
2017-Mar-20 04:24N 31°40' E 121°13'20445.0
2017-Mar-20 04:21N 31°26' E 121°29'458579.0
2017-Mar-20 03:34N 24°25' E 118°04'46071949.4
2017-Mar-20 03:33N 31°29' E 121°25'1110.6
2017-Mar-20 03:33N 31°29' E 121°25'026.1
2017-Mar-20 03:32N 31°29' E 121°25'11199.1
2017-Mar-20 03:28N 31°22' E 121°36'26803.4
2017-Mar-20 03:26N 31°40' E 121°13'4117.4
2017-Mar-20 03:24N 31°38' E 121°18'1164.5
2017-Mar-20 03:14N 31°29' E 121°25'0205.3
2017-Mar-20 03:14N 31°29' E 121°25'16115.0
2017-Mar-20 03:06N 31°20' E 121°40'2036.3
2017-Mar-20 02:33N 31°32' E 121°21'52377.6
2017-Mar-20 02:33N 31°29' E 121°25'163709.0
2017-Mar-20 02:33N 31°21' E 121°42'459236009.1
2017-Mar-20 02:33N 24°25' E 118°04'46027162.7
2017-Mar-20 02:32N 31°29' E 121°25'11302.4
2017-Mar-20 02:30N 31°38' E 121°18'11220.7
2017-Mar-20 02:27N 31°29' E 121°25'14196.9
2017-Mar-20 02:22N 31°40' E 121°13'26576.7
2017-Mar-20 02:20N 31°22' E 121°36'457593.6
2017-Mar-20 01:33N 24°25' E 118°04'463166821.2
2017-Mar-20 01:33N 31°36' E 121°17'285516.1
2017-Mar-20 01:33N 31°21' E 121°44'122465.8
2017-Mar-20 01:33N 31°24' E 121°31'183218.5
2017-Mar-20 01:32N 31°38' E 121°18'222939.5
2017-Mar-20 01:32N 31°22' E 121°36'121840.9
2017-Mar-20 01:31N 31°29' E 121°25'014.9
2017-Mar-20 01:31N 31°29' E 121°25'14362.7
2017-Mar-20 01:29N 31°40' E 121°13'152613.4
2017-Mar-20 01:28N 31°29' E 121°25'517.3
2017-Mar-20 01:12N 31°32' E 121°21'5224.4
2017-Mar-20 01:11N 31°29' E 121°25'460730.2
2017-Mar-20 00:33N 24°25' E 118°04'465104633.8
2017-Mar-20 00:33N 31°39' E 121°13'309921.2
2017-Mar-20 00:33N 31°21' E 121°42'27534.4
2017-Mar-20 00:30N 31°38' E 121°18'222489.6
2017-Mar-20 00:29N 31°22' E 121°36'121578.4
2017-Mar-20 00:29N 31°29' E 121°25'056.3
2017-Mar-20 00:29N 31°29' E 121°25'018.5
2017-Mar-20 00:28N 31°29' E 121°25'15420.0
2017-Mar-20 00:26N 31°40' E 121°13'14244.9
2017-Mar-20 00:22N 31°29' E 121°25'19128.9
2017-Mar-20 00:13N 31°43' E 121°08'467699.9
2017-Mar-19 23:33N 24°25' E 118°04'45721104.1
2017-Mar-19 23:32N 31°22' E 121°36'263149.8
2017-Mar-19 23:31N 31°40' E 121°13'14624.0
2017-Mar-19 23:30N 31°29' E 121°25'161386.9
2017-Mar-19 23:29N 31°20' E 121°40'16147.1
2017-Mar-19 23:23N 31°29' E 121°25'8226.0
2017-Mar-19 23:21N 31°24' E 121°31'181574.5
2017-Mar-19 23:20N 31°38' E 121°18'56912.9
2017-Mar-19 23:16N 31°01' E 122°07'46485.7
2017-Mar-19 23:11N 31°29' E 121°25'1320.2
2017-Mar-19 22:33N 31°22' E 121°37'4571646355.5
2017-Mar-19 22:33N 24°25' E 118°04'451202983.8
2017-Mar-19 22:33N 31°04' E 122°02'481282.8
2017-Mar-19 22:31N 31°34' E 121°19'7390.1
2017-Mar-19 22:30N 31°29' E 121°25'111514.6
2017-Mar-19 22:29N 31°38' E 121°18'181344.2
2017-Mar-19 22:29N 31°24' E 121°31'5714.4
2017-Mar-19 22:28N 31°22' E 121°36'12275.4
2017-Mar-19 22:26N 31°29' E 121°25'7 8.3
2017-Mar-19 21:33N 31°24' E 121°31'457411735.3
2017-Mar-19 21:33N 24°25' E 118°04'451180568.3
2017-Mar-19 21:33N 31°07' E 121°55'341059.3
2017-Mar-19 21:31N 31°30' E 121°25'10590.5
2017-Mar-19 21:30N 31°38' E 121°18'10439.5
2017-Mar-19 21:29N 31°29' E 121°25'0 2.8
2017-Mar-19 21:19N 31°29' E 121°25'1114.1
2017-Mar-19 20:33N 31°38' E 121°18'466419124.3
2017-Mar-19 20:33N 24°25' E 118°04'453543485.2
2017-Mar-19 20:33N 31°11' E 121°50'281395.8
2017-Mar-19 20:32N 31°29' E 121°25'8147.9
2017-Mar-19 20:29N 31°24' E 121°31'6118328745.2
2017-Mar-19 20:28N 33°28' W 117°42'612095384.2
2017-Mar-19 20:24N 31°30' E 121°25'0 2.2
2017-Mar-19 20:13N 31°29' E 121°25'20230.5
2017-Mar-19 20:08N 31°43' E 121°08'1016.7
2017-Mar-19 19:33N 31°38' E 121°18'466335295.5
2017-Mar-19 19:33N 24°25' E 118°04'455136421.3
2017-Mar-19 19:33N 31°15' E 121°46'372250.5
2017-Mar-19 19:32N 31°39' E 121°14'31104.5
2017-Mar-19 19:32N 31°41' E 121°10'17447.2
2017-Mar-19 19:30N 31°29' E 121°25'8140.3
2017-Mar-19 19:26N 31°24' E 121°31'611880386.7
2017-Mar-19 19:22N 33°28' W 117°42'6120333845.1
2017-Mar-19 19:21N 31°29' E 121°25'021.1
2017-Mar-19 19:20N 31°29' E 121°25'0 0.1
2017-Mar-19 18:33N 31°29' E 121°25'1816576.2
2017-Mar-19 18:33N 31°18' E 121°42'196742.2
2017-Mar-19 18:33N 31°29' E 121°25'135673.2
2017-Mar-19 18:33N 31°39' E 121°14'465239220.4
2017-Mar-19 18:33N 24°25' E 118°04'46667059.1
2017-Mar-19 18:32N 31°38' E 121°18'3273.4
2017-Mar-19 18:32N 31°35' E 121°18'22568.8
2017-Mar-19 18:29N 31°15' E 121°30'15313.4
2017-Mar-19 18:26N 31°29' E 121°25'0 5.9
2017-Mar-19 18:23N 31°30' E 121°25'7152.0
2017-Mar-19 18:20N 31°24' E 121°31'611890270.3
2017-Mar-19 18:16N 33°28' W 117°42'65469241.5
2017-Mar-19 17:33N 24°25' E 118°04'45832946.4
2017-Mar-19 17:33N 31°22' E 121°38'2280229.0
2017-Mar-19 17:33N 31°36' E 121°18'7991.4
2017-Mar-19 17:32N 31°31' E 121°24'81006.0
2017-Mar-19 17:32N 31°38' E 121°18'106266.9
2017-Mar-19 17:32N 31°29' E 121°25'0 4.5
2017-Mar-19 17:30N 31°29' E 121°25'612145430.5
2017-Mar-19 17:22N 33°28' W 117°42'611878382.7
2017-Mar-19 17:17N 31°24' E 121°31'114.3
2017-Mar-19 17:15N 31°24' E 121°31'1 1.9
2017-Mar-19 16:33N 31°25' E 121°31'177728.7
2017-Mar-19 16:33N 31°38' E 121°18'46698605.7
2017-Mar-19 16:33N 24°25' E 118°04'46283137.1
2017-Mar-19 16:32N 31°33' E 121°21'5794.8
2017-Mar-19 16:32N 31°29' E 121°25'012.7
2017-Mar-19 16:31N 31°29' E 121°25'0173.1
2017-Mar-19 16:31N 31°29' E 121°25'6121127364.5
2017-Mar-19 16:28N 33°28' W 117°42'612086063.8
2017-Mar-19 16:24N 31°29' E 121°25'215.5
2017-Mar-19 16:16N 31°28' E 121°27'313.4
2017-Mar-19 16:04N 31°27' E 121°29'4 7.9
2017-Mar-19 15:33N 31°29' E 121°25'67367.9
2017-Mar-19 15:33N 31°25' E 121°31'65718.4
2017-Mar-19 15:33N 31°29' E 121°25'2258.7
2017-Mar-19 15:33N 31°30' E 121°23'079.2
2017-Mar-19 15:33N 31°30' E 121°23'970.2
2017-Mar-19 15:25N 31°38' E 121°18'86750.7
2017-Mar-19 15:25N 31°31' E 121°21'3399.4
2017-Mar-19 15:24N 31°29' E 121°25'0 1.1
2017-Mar-19 15:17N 31°29' E 121°25'6121400619.7
2017-Mar-19 15:16N 33°28' W 117°42'612050883.8
2017-Mar-19 15:09N 31°29' E 121°25'460785.3
2017-Mar-19 14:34N 24°25' E 118°04'462415605.7
2017-Mar-19 14:33N 31°33' E 121°19'32273.9
2017-Mar-19 14:33N 31°35' E 121°17'9752.2
2017-Mar-19 14:33N 31°29' E 121°25'156.5
2017-Mar-19 14:31N 31°28' E 121°25'5230.8
2017-Mar-19 14:30N 31°32' E 121°21'41625.1
2017-Mar-19 14:30N 31°29' E 121°25'6121191600.8
2017-Mar-19 14:28N 33°28' W 117°42'6120147876.1
2017-Mar-19 14:25N 31°29' E 121°25'9136.8
2017-Mar-19 14:21N 31°36' E 121°17'2 3.0
2017-Mar-19 13:33N 31°38' E 121°15'464417922.1
2017-Mar-19 13:33N 24°25' E 118°04'466839160.3
2017-Mar-19 13:33N 31°41' E 121°09'1810602.8
2017-Mar-19 13:33N 31°29' E 121°25'141736.9
2017-Mar-19 13:33N 31°39' E 121°12'14446.0
2017-Mar-19 13:31N 31°29' E 121°25'111186.0
2017-Mar-19 13:30N 31°38' E 121°18'1186.4
2017-Mar-19 13:23N 31°29' E 121°25'162.2
2017-Mar-19 13:22N 31°28' E 121°25'612163867.8
2017-Mar-19 13:16N 33°28' W 117°42'65469230.7
2017-Mar-19 12:33N 24°25' E 118°04'45939362.7
2017-Mar-19 12:33N 31°28' E 121°25'146.1
2017-Mar-19 12:31N 31°29' E 121°25'036.9
2017-Mar-19 12:31N 31°30' E 121°25'11264.4
2017-Mar-19 12:28N 31°38' E 121°18'11187.4
2017-Mar-19 12:25N 31°29' E 121°25'6121125193.6
2017-Mar-19 12:22N 33°28' W 117°42'65468106.6
2017-Mar-19 11:34N 24°25' E 118°04'46039428.8
2017-Mar-19 11:33N 31°29' E 121°25'0 9.4
2017-Mar-19 11:31N 31°29' E 121°25'050.1
2017-Mar-19 11:31N 31°29' E 121°25'1105.3
2017-Mar-19 11:30N 31°28' E 121°25'6121180609.7
2017-Mar-19 11:28N 33°28' W 117°42'6121137732.9
2017-Mar-19 11:25N 31°38' E 121°18'466539.0
2017-Mar-19 10:33N 24°25' E 118°04'46698608.7
2017-Mar-19 10:33N 31°38' E 121°18'11464.0
2017-Mar-19 10:32N 31°30' E 121°25'612095380.7
2017-Mar-19 10:28N 33°28' W 117°42'6120319330.3
2017-Mar-19 10:27N 31°29' E 121°25'0 2.5
2017-Mar-19 10:24N 31°29' E 121°25'460548.6
2017-Mar-19 09:33N 24°25' E 118°04'466279406.2
2017-Mar-19 09:33N 31°38' E 121°18'10246.2
2017-Mar-19 09:31N 31°29' E 121°25'110.0
2017-Mar-19 09:23N 31°28' E 121°25'1 4.7
2017-Mar-19 09:06N 31°29' E 121°25'1018.3
2017-Mar-19 08:33N 31°37' E 121°17'10439.0
2017-Mar-19 08:32N 31°30' E 121°25'612036061.5
2017-Mar-19 08:22N 33°28' W 117°42'6121361217.7
2017-Mar-19 08:21N 31°29' E 121°25'143.7
2017-Mar-19 08:19N 31°28' E 121°25'160.8
2017-Mar-19 08:18N 31°30' E 121°25'460622.7
2017-Mar-19 07:33N 24°25' E 118°04'46051766.4
2017-Mar-19 07:33N 31°29' E 121°25'5355.4
2017-Mar-19 07:32N 31°33' E 121°21'54534.2
2017-Mar-19 07:32N 31°30' E 121°25'0 1.9
2017-Mar-19 07:22N 31°29' E 121°25'111.9
2017-Mar-19 07:15N 31°28' E 121°25'17457.2
2017-Mar-19 07:13N 31°41' E 121°11'1523.6
2017-Mar-19 06:33N 31°30' E 121°24'46038541.2
2017-Mar-19 06:32N 24°25' E 118°04'4703038.1
2017-Mar-19 06:23N 31°58' E 120°24'50740.1
2017-Mar-19 06:19N 31°37' E 121°17'10303.0
2017-Mar-19 06:17N 31°29' E 121°25'1 7.6
2017-Mar-19 06:07N 31°28' E 121°25'59106.5
2017-Mar-19 05:33N 31°58' E 120°26'5813044.4
2017-Mar-19 05:33N 31°29' E 121°25'091.6
2017-Mar-19 05:33N 31°29' E 121°25'460207115.6
2017-Mar-19 05:33N 24°25' E 118°04'4607427.6
2017-Mar-19 05:29N 31°29' E 121°25'4802.5
2017-Mar-19 05:29N 31°32' E 121°21'6122579937.9
2017-Mar-19 05:28N 33°28' W 117°42'6121154086.6
2017-Mar-19 05:26N 31°28' E 121°25'223.7
2017-Mar-19 05:21N 31°30' E 121°24'460582.1
2017-Mar-19 04:33N 24°25' E 118°04'459183692.4
2017-Mar-19 04:33N 31°28' E 121°25'153.8
2017-Mar-19 04:31N 31°29' E 121°27'256.6
2017-Mar-19 04:30N 31°29' E 121°25'018.0
2017-Mar-19 04:29N 31°29' E 121°25'1100.0
2017-Mar-19 04:29N 31°30' E 121°24'6121667715.4
2017-Mar-19 04:28N 33°28' W 117°42'6121165669.7
2017-Mar-19 04:26N 31°29' E 121°25'460527.2
2017-Mar-19 03:33N 24°25' E 118°04'46016564.1
2017-Mar-19 03:32N 31°29' E 121°25'1643.8
2017-Mar-19 03:32N 31°28' E 121°25'5431.9
2017-Mar-19 03:31N 31°26' E 121°31'6250.7
2017-Mar-19 03:29N 31°29' E 121°25'166.3
2017-Mar-19 03:29N 31°30' E 121°24'6121489653.9
2017-Mar-19 03:28N 33°28' W 117°42'6120109615.5
2017-Mar-19 03:25N 31°29' E 121°25'460535.4
2017-Mar-19 02:33N 24°25' E 118°04'46097437.2
2017-Mar-19 02:33N 31°29' E 121°25'146.3
2017-Mar-19 02:32N 31°30' E 121°24'126.4
2017-Mar-19 02:30N 31°29' E 121°25'0 5.8
2017-Mar-19 02:27N 31°29' E 121°25'151255.1
2017-Mar-19 02:26N 31°15' E 121°29'1444.1
2017-Mar-19 02:07N 31°28' E 121°25'1 2.3
2017-Mar-19 01:33N 31°29' E 121°25'1144.3
2017-Mar-19 01:33N 31°30' E 121°24'1790.3
2017-Mar-19 01:33N 31°29' E 121°25'336947.7
2017-Mar-19 01:33N 31°06' E 120°58'42967208.5
2017-Mar-19 01:32N 24°25' E 118°04'46015780.2
2017-Mar-19 01:31N 31°29' E 121°25'71117.1
2017-Mar-19 01:30N 31°33' E 121°19'46719567.3
2017-Mar-19 01:29N 24°17' E 118°10'4541272.3
2017-Mar-19 01:07N 31°15' E 121°30'151255.0
2017-Mar-19 01:07N 31°30' E 121°25'461828.2
2017-Mar-19 00:33N 24°23' E 118°07'3281.0
2017-Mar-19 00:33N 24°25' E 118°04'460138092.7
2017-Mar-19 00:33N 31°30' E 121°24'144.0
2017-Mar-19 00:32N 31°29' E 121°25'194.3
2017-Mar-19 00:31N 31°28' E 121°25'144.2
2017-Mar-19 00:29N 31°29' E 121°25'134140.1
2017-Mar-19 00:29N 31°38' E 121°14'6124400861.0
2017-Mar-19 00:28N 33°28' W 117°42'612781094.4
2017-Mar-19 00:23N 31°12' E 121°29'18644.0
2017-Mar-19 00:22N 31°29' E 121°25'460572.1
2017-Mar-18 23:34N 24°25' E 118°04'65442.2
2017-Mar-18 23:33N 24°24' E 117°58'46345049.8
2017-Mar-18 23:33N 31°29' E 121°25'132.0
2017-Mar-18 23:31N 31°30' E 121°24'236.8
2017-Mar-18 23:28N 31°28' E 121°25'130.6
2017-Mar-18 23:26N 31°29' E 121°25'0 8.5
2017-Mar-18 23:24N 31°29' E 121°25'460547.4
2017-Mar-18 22:33N 24°25' E 118°04'46066241.3
2017-Mar-18 22:33N 31°29' E 121°25'46442806.7
2017-Mar-18 22:32N 24°26' E 117°50'46423850.6
2017-Mar-18 22:31N 31°29' E 121°24'1125.5
2017-Mar-18 22:31N 31°28' E 121°25'143.0
2017-Mar-18 22:29N 31°29' E 121°25'0 0.8
2017-Mar-18 22:13N 31°30' E 121°25'460703.0
2017-Mar-18 21:33N 24°25' E 118°04'46075283.3
2017-Mar-18 21:33N 31°29' E 121°25'81312.2
2017-Mar-18 21:33N 31°24' E 121°32'8178.0
2017-Mar-18 21:30N 31°29' E 121°25'146.4
2017-Mar-18 21:28N 31°28' E 121°25'140.8
2017-Mar-18 21:26N 31°30' E 121°25'121.3
2017-Mar-18 21:24N 31°30' E 121°24'114.2
2017-Mar-18 21:21N 31°30' E 121°25'460584.2
2017-Mar-18 20:34N 24°25' E 118°04'46026294.0
2017-Mar-18 20:32N 31°29' E 121°25'1808.3
2017-Mar-18 20:32N 31°28' E 121°25'1685.6
2017-Mar-18 20:32N 31°30' E 121°25'017.2
2017-Mar-18 20:31N 31°29' E 121°25'1 7.1
2017-Mar-18 20:25N 31°30' E 121°24'460527.3
2017-Mar-18 19:33N 24°25' E 118°04'460828527.5
2017-Mar-18 19:33N 31°30' E 121°25'018.1
2017-Mar-18 19:32N 31°29' E 121°25'143.7
2017-Mar-18 19:30N 31°28' E 121°25'238.8
2017-Mar-18 19:27N 31°30' E 121°24'117.1
2017-Mar-18 19:24N 31°29' E 121°25'460544.6
2017-Mar-18 18:33N 24°25' E 118°04'45925435.2
2017-Mar-18 18:32N 31°28' E 121°25'155.7
2017-Mar-18 18:31N 31°29' E 121°25'138.5
2017-Mar-18 18:30N 31°30' E 121°24'158.5
2017-Mar-18 18:29N 31°29' E 121°25'0 4.9
2017-Mar-18 18:26N 31°30' E 121°25'1641.7
2017-Mar-18 18:04N 31°14' E 121°29'718536.4
2017-Mar-18 18:03N 31°58' E 120°24'470950.6
2017-Mar-18 17:33N 24°25' E 118°04'4707231.0
2017-Mar-18 17:30N 31°58' E 120°24'59921.6
2017-Mar-18 17:26N 31°30' E 121°25'0 5.6
2017-Mar-18 17:24N 31°29' E 121°25'131.0
2017-Mar-18 17:22N 31°30' E 121°24'138.9
2017-Mar-18 17:21N 31°30' E 121°25'0 6.0
2017-Mar-18 17:19N 31°29' E 121°25'460607.9
2017-Mar-18 16:33N 24°25' E 118°04'46038521.2
2017-Mar-18 16:33N 31°29' E 121°25'132.5
2017-Mar-18 16:31N 31°30' E 121°24'1115.4
2017-Mar-18 16:31N 31°29' E 121°25'147.7
2017-Mar-18 16:29N 31°28' E 121°25'1159.3
2017-Mar-18 16:29N 31°29' E 121°25'460499.7
2017-Mar-18 15:34N 24°25' E 118°04'459206661.4
2017-Mar-18 15:33N 31°28' E 121°25'144.7
2017-Mar-18 15:32N 31°29' E 121°25'151.1
2017-Mar-18 15:31N 31°30' E 121°24'125.2
2017-Mar-18 15:29N 31°29' E 121°25'0 6.1
2017-Mar-18 15:27N 31°29' E 121°25'460519.3
2017-Mar-18 14:34N 24°25' E 118°04'47434147.3
2017-Mar-18 14:33N 32°03' E 120°25'611421.2
2017-Mar-18 14:30N 31°29' E 121°25'1307.3
2017-Mar-18 14:30N 31°28' E 121°25'124.2
2017-Mar-18 14:27N 31°29' E 121°25'123.7
2017-Mar-18 14:25N 31°30' E 121°24'1 6.4
2017-Mar-18 14:18N 31°29' E 121°25'13109.3
2017-Mar-18 14:11N 31°22' E 121°37'457729.0
2017-Mar-18 13:33N 24°25' E 118°04'46020719.3
2017-Mar-18 13:32N 31°31' E 121°22'385.6
2017-Mar-18 13:30N 31°29' E 121°25'097.6
2017-Mar-18 13:30N 31°29' E 121°25'1148.6
2017-Mar-18 13:29N 31°28' E 121°25'127.6
2017-Mar-18 13:27N 31°29' E 121°25'0 1.9
2017-Mar-18 13:21N 31°30' E 121°25'1 5.4
2017-Mar-18 13:14N 31°30' E 121°24'460685.4
2017-Mar-18 12:33N 24°25' E 118°04'46012748.5
2017-Mar-18 12:31N 31°30' E 121°24'137.4
2017-Mar-18 12:30N 31°29' E 121°25'0427.0
2017-Mar-18 12:30N 31°29' E 121°25'102094.4
2017-Mar-18 12:29N 31°36' E 121°16'11530.6
2017-Mar-18 12:28N 31°28' E 121°25'1 4.8
2017-Mar-18 12:13N 31°29' E 121°25'460699.4
2017-Mar-18 11:33N 24°25' E 118°04'457273913.3
2017-Mar-18 11:33N 31°19' E 121°42'18987.7
2017-Mar-18 11:32N 31°29' E 121°25'016.0
2017-Mar-18 11:32N 31°29' E 121°25'114.6
2017-Mar-18 11:29N 31°30' E 121°24'22329.9
2017-Mar-18 11:29N 31°28' E 121°25'123.1
2017-Mar-18 11:25N 31°30' E 121°25'11452.0
2017-Mar-18 11:24N 31°23' E 121°34'10227.6
2017-Mar-18 11:21N 31°30' E 121°25'460583.2
2017-Mar-18 10:34N 24°25' E 118°04'45635684.2
2017-Mar-18 10:33N 31°17' E 121°46'2211349.8
2017-Mar-18 10:33N 31°29' E 121°25'145.5
2017-Mar-18 10:31N 31°28' E 121°25'1269.8
2017-Mar-18 10:31N 31°30' E 121°25'0 2.2
2017-Mar-18 10:28N 31°29' E 121°25'134.1
2017-Mar-18 10:27N 31°30' E 121°24'129.5
2017-Mar-18 10:25N 31°29' E 121°25'460537.8
2017-Mar-18 09:34N 24°25' E 118°04'45760929.1
2017-Mar-18 09:33N 31°20' E 121°39'9230.8
2017-Mar-18 09:31N 31°23' E 121°30'89683.3
2017-Mar-18 09:31N 31°29' E 121°25'4647913.0
2017-Mar-18 09:27N 24°26' E 117°50'1313.8
2017-Mar-18 08:33N 24°25' E 118°04'4572521.0
2017-Mar-18 08:22N 31°21' E 121°40'169408.5
2017-Mar-18 08:22N 31°29' E 121°25'91177.7
2017-Mar-18 08:21N 31°23' E 121°33'960.1
2017-Mar-18 08:12N 31°29' E 121°25'0 2.5
2017-Mar-18 08:08N 31°30' E 121°25'120.1
2017-Mar-18 08:05N 31°30' E 121°24'460865.9
2017-Mar-18 07:33N 24°25' E 118°04'47153033.4
2017-Mar-18 07:33N 31°59' E 120°27'7911435.6
2017-Mar-18 07:32N 31°17' E 121°45'222005.9
2017-Mar-18 07:32N 31°29' E 121°25'181646.2
2017-Mar-18 07:31N 31°12' E 121°29'44920735.2
2017-Mar-18 07:30N 24°26' E 117°50'4644540.4
2017-Mar-18 07:24N 31°30' E 121°24'22112.8
2017-Mar-18 07:12N 31°45' E 121°06'11181.1
2017-Mar-18 07:08N 31°38' E 121°15'11185.3
2017-Mar-18 07:05N 31°29' E 121°25'1833.9
2017-Mar-18 06:33N 31°19' E 121°41'4571644233.6
2017-Mar-18 06:33N 24°25' E 118°04'46634252.5
2017-Mar-18 06:32N 31°41' E 121°11'151288.6
2017-Mar-18 06:32N 31°30' E 121°24'5209.2
2017-Mar-18 06:30N 31°34' E 121°20'112.9
2017-Mar-18 06:26N 31°35' E 121°19'7113.1
2017-Mar-18 06:22N 31°30' E 121°25'0 9.1
2017-Mar-18 06:20N 31°29' E 121°25'1 5.4
2017-Mar-18 06:05N 31°28' E 121°25'459861.1
2017-Mar-18 05:33N 24°25' E 118°04'4631667325.8
2017-Mar-18 05:33N 31°35' E 121°19'212372.9
2017-Mar-18 05:33N 31°21' E 121°38'14367.2
2017-Mar-18 05:31N 31°30' E 121°24'1231.6
2017-Mar-18 05:30N 31°29' E 121°25'0 4.8
2017-Mar-18 05:29N 31°29' E 121°25'165.4
2017-Mar-18 05:28N 31°28' E 121°25'9707.4
2017-Mar-18 05:27N 31°23' E 121°34'1054.9
2017-Mar-18 05:16N 31°29' E 121°25'460654.1
2017-Mar-18 04:33N 24°25' E 118°04'45742214.6
2017-Mar-18 04:33N 31°24' E 121°32'9995.6
2017-Mar-18 04:32N 31°30' E 121°25'177.2
2017-Mar-18 04:31N 31°29' E 121°26'1452.4
2017-Mar-18 04:31N 31°29' E 121°25'122.8
2017-Mar-18 04:29N 31°30' E 121°24'1176.1
2017-Mar-18 04:29N 31°29' E 121°25'0 1.4
2017-Mar-18 04:20N 31°29' E 121°25'111.4
2017-Mar-18 04:14N 31°30' E 121°24'460677.6
2017-Mar-18 03:33N 24°25' E 118°04'46027139.7
2017-Mar-18 03:32N 31°29' E 121°24'81910.5
2017-Mar-18 03:32N 31°24' E 121°32'81581.1
2017-Mar-18 03:32N 31°29' E 121°25'042.9
2017-Mar-18 03:32N 31°29' E 121°25'1109.8
2017-Mar-18 03:31N 31°30' E 121°24'110.7
2017-Mar-18 03:25N 31°29' E 121°25'139.9
2017-Mar-18 03:23N 31°30' E 121°24'4643231.6
2017-Mar-18 03:15N 24°26' E 117°50'4565490.6
2017-Mar-18 03:10N 31°17' E 121°34'452742.6
2017-Mar-18 02:33N 24°25' E 118°04'46313889.4
2017-Mar-18 02:31N 31°35' E 121°17'81911.3
2017-Mar-18 02:31N 31°29' E 121°25'118.1
2017-Mar-18 02:29N 31°30' E 121°24'0 4.4
2017-Mar-18 02:24N 31°30' E 121°24'460544.1
2017-Mar-18 01:33N 24°25' E 118°04'46055213.1
2017-Mar-18 01:33N 31°29' E 121°25'026.7
2017-Mar-18 01:32N 31°29' E 121°25'167.7
2017-Mar-18 01:32N 31°30' E 121°24'012.1
2017-Mar-18 01:30N 31°30' E 121°24'1 8.2
2017-Mar-18 01:22N 31°29' E 121°25'460565.4
2017-Mar-18 00:34N 24°25' E 118°04'13430.8
2017-Mar-18 00:32N 24°26' E 117°50'464167068.3
2017-Mar-18 00:32N 31°30' E 121°24'127.1
2017-Mar-18 00:30N 31°29' E 121°25'175.4
2017-Mar-18 00:29N 31°30' E 121°24'045.6
2017-Mar-18 00:29N 31°30' E 121°24'232314.5
2017-Mar-18 00:28N 31°08' E 121°28'22260.4
2017-Mar-18 00:23N 31°29' E 121°25'0 5.6
2017-Mar-18 00:21N 31°29' E 121°25'460583.9
2017-Mar-17 23:33N 24°25' E 118°04'46218918.1
2017-Mar-17 23:32N 31°34' E 121°18'71574.0
2017-Mar-17 23:32N 31°29' E 121°25'143.3
2017-Mar-17 23:30N 31°30' E 121°24'012.9
2017-Mar-17 23:29N 31°30' E 121°24'117.2
2017-Mar-17 23:26N 31°29' E 121°25'4641511.7
2017-Mar-17 23:07N 24°26' E 117°50'1322.2
2017-Mar-17 22:33N 24°25' E 118°04'46122405.3
2017-Mar-17 22:32N 31°30' E 121°24'131297.8
2017-Mar-17 22:32N 31°39' E 121°13'14633.6
2017-Mar-17 22:30N 31°29' E 121°25'130.1
2017-Mar-17 22:28N 31°28' E 121°26'139.2
2017-Mar-17 22:26N 31°29' E 121°25'1111.0
2017-Mar-17 22:25N 31°30' E 121°24'1562.6
2017-Mar-17 22:11N 31°41' E 121°12'1625.2
2017-Mar-17 21:34N 31°29' E 121°25'460184138.4
2017-Mar-17 21:33N 24°25' E 118°04'461150723.5
2017-Mar-17 21:33N 31°30' E 121°24'15727.3
2017-Mar-17 21:32N 31°41' E 121°12'15311.8
2017-Mar-17 21:29N 31°30' E 121°24'1 3.4
2017-Mar-17 21:14N 31°30' E 121°25'0 2.8
2017-Mar-17 21:08N 31°29' E 121°25'460800.8
2017-Mar-17 20:33N 24°25' E 118°04'46564395.8
2017-Mar-17 20:33N 31°38' E 121°15'111472.5
2017-Mar-17 20:32N 31°30' E 121°24'0 7.8
2017-Mar-17 20:31N 31°30' E 121°24'18336.4
2017-Mar-17 20:27N 31°42' E 121°09'19473.9
2017-Mar-17 20:25N 31°29' E 121°25'0 0.7
2017-Mar-17 20:14N 31°29' E 121°25'016.2
2017-Mar-17 20:13N 31°30' E 121°25'1185.5
2017-Mar-17 20:05N 31°20' E 121°33'455871.0
2017-Mar-17 19:33N 24°25' E 118°04'460118372.7
2017-Mar-17 19:33N 31°29' E 121°25'464151820.7
2017-Mar-17 19:33N 24°26' E 117°50'468153300.5
2017-Mar-17 19:33N 31°38' E 121°15'63073.2
2017-Mar-17 19:33N 31°34' E 121°20'5310.5
2017-Mar-17 19:32N 31°30' E 121°24'9302.2
2017-Mar-17 19:30N 31°23' E 121°30'93861.6
2017-Mar-17 19:30N 31°30' E 121°24'1 9.2
2017-Mar-17 19:24N 31°30' E 121°25'0 2.9
2017-Mar-17 19:17N 31°29' E 121°25'141444.4
2017-Mar-17 19:17N 31°39' E 121°13'11172.1
2017-Mar-17 19:13N 31°31' E 121°22'17116.2
2017-Mar-17 19:04N 31°17' E 121°34'3058.8
2017-Mar-17 18:33N 31°41' E 121°11'466419765.0
2017-Mar-17 18:33N 24°25' E 118°04'4571646891.5
2017-Mar-17 18:33N 31°21' E 121°39'1510607.8
2017-Mar-17 18:33N 31°29' E 121°25'0 4.5
2017-Mar-17 18:31N 31°29' E 121°25'15516.7
2017-Mar-17 18:30N 31°15' E 121°30'17597.6
2017-Mar-17 18:28N 31°31' E 121°22'1187.2
2017-Mar-17 18:27N 31°30' E 121°24'017.4
2017-Mar-17 18:27N 31°30' E 121°24'142.8
2017-Mar-17 18:24N 31°30' E 121°26'915560.4
2017-Mar-17 18:24N 31°22' E 121°30'868.1
2017-Mar-17 18:17N 31°14' E 121°30'161476.2
2017-Mar-17 18:17N 31°30' E 121°25'460636.3
2017-Mar-17 17:33N 24°25' E 118°04'46192104.6
2017-Mar-17 17:33N 31°30' E 121°24'1244394.0
2017-Mar-17 17:33N 31°20' E 121°33'204286.4
2017-Mar-17 17:33N 31°36' E 121°17'102503.6
2017-Mar-17 17:33N 31°29' E 121°27'131036.9
2017-Mar-17 17:32N 31°21' E 121°38'14678.5
2017-Mar-17 17:31N 31°29' E 121°25'151536.4
2017-Mar-17 17:30N 31°15' E 121°31'162628.0
2017-Mar-17 17:30N 31°30' E 121°24'117.5
2017-Mar-17 17:27N 31°29' E 121°25'0109.7
2017-Mar-17 17:27N 31°30' E 121°25'21167.3
2017-Mar-17 17:19N 31°17' E 121°45'14171.0
2017-Mar-17 17:14N 31°25' E 121°31'458671.9
2017-Mar-17 16:33N 24°25' E 118°04'45991712.0
2017-Mar-17 16:33N 31°25' E 121°31'1017803.3
2017-Mar-17 16:33N 31°32' E 121°23'2236.3
2017-Mar-17 16:33N 31°30' E 121°24'231153.7
2017-Mar-17 16:31N 31°17' E 121°46'121698.6
2017-Mar-17 16:31N 31°23' E 121°35'112696.8
2017-Mar-17 16:31N 31°30' E 121°24'184.5
2017-Mar-17 16:30N 31°29' E 121°25'571754.2
2017-Mar-17 16:28N 31°58' E 120°26'581699.4
2017-Mar-17 16:26N 31°29' E 121°25'014.2
2017-Mar-17 16:25N 31°29' E 121°25'221112.3
2017-Mar-17 16:24N 31°17' E 121°46'12228.0
2017-Mar-17 16:21N 31°15' E 121°32'7158.8
2017-Mar-17 16:18N 31°22' E 121°30'455609.4
2017-Mar-17 15:33N 24°25' E 118°04'4581648491.2
2017-Mar-17 15:33N 31°20' E 121°42'1730560.8
2017-Mar-17 15:33N 31°29' E 121°25'8385.2
2017-Mar-17 15:32N 31°24' E 121°32'93896.9
2017-Mar-17 15:32N 31°15' E 121°32'15783.8
2017-Mar-17 15:31N 31°29' E 121°25'194.2
2017-Mar-17 15:30N 31°30' E 121°24'2311918.4
2017-Mar-17 15:30N 31°17' E 121°46'221584.9
2017-Mar-17 15:29N 31°29' E 121°25'221617.8
2017-Mar-17 15:28N 31°17' E 121°46'231870.5
2017-Mar-17 15:28N 31°30' E 121°24'2425.9
2017-Mar-17 14:33N 31°16' E 121°46'456109329.9
2017-Mar-17 14:33N 24°25' E 118°04'462332719.0
2017-Mar-17 14:33N 31°34' E 121°19'291193.0
2017-Mar-17 14:32N 31°17' E 121°46'0 4.3
2017-Mar-17 14:32N 31°17' E 121°46'251612.4
2017-Mar-17 14:31N 31°31' E 121°23'2109.9
2017-Mar-17 14:30N 31°30' E 121°24'144.2
2017-Mar-17 14:29N 31°29' E 121°25'128.9
2017-Mar-17 14:27N 31°30' E 121°24'234.5
2017-Mar-17 14:23N 31°29' E 121°26'1492.7
2017-Mar-17 14:23N 31°29' E 121°25'16404.4
2017-Mar-17 14:20N 31°15' E 121°32'450573.2
2017-Mar-17 13:33N 24°25' E 118°04'454544366.0
2017-Mar-17 13:33N 31°12' E 121°50'294302.4
2017-Mar-17 13:33N 31°30' E 121°24'232582.1
2017-Mar-17 13:32N 31°17' E 121°46'223076.2
2017-Mar-17 13:32N 31°29' E 121°25'2280006.0
2017-Mar-17 13:32N 31°17' E 121°46'124690.5
2017-Mar-17 13:32N 31°15' E 121°33'19491.0
2017-Mar-17 13:29N 31°32' E 121°21'3207.2
2017-Mar-17 13:29N 31°30' E 121°24'1153.3
2017-Mar-17 13:28N 31°29' E 121°25'0 5.8
2017-Mar-17 13:26N 31°29' E 121°25'435.7
2017-Mar-17 13:19N 31°32' E 121°21'2026.1
2017-Mar-17 12:33N 31°20' E 121°40'457411504.3
2017-Mar-17 12:33N 24°25' E 118°04'461552691.1
2017-Mar-17 12:33N 31°30' E 121°24'188.2
2017-Mar-17 12:33N 31°29' E 121°25'3219402.6
2017-Mar-17 12:33N 31°09' E 121°54'321201.6
2017-Mar-17 12:31N 31°29' E 121°25'223339.4
2017-Mar-17 12:31N 31°17' E 121°46'233218.4
2017-Mar-17 12:30N 31°30' E 121°24'16490.7
2017-Mar-17 12:28N 31°15' E 121°33'24503.9
2017-Mar-17 12:25N 31°36' E 121°17'92610.8
2017-Mar-17 12:25N 31°29' E 121°25'10190.5
2017-Mar-17 12:22N 31°36' E 121°17'2834.0
2017-Mar-17 11:33N 31°19' E 121°42'182124.1
2017-Mar-17 11:33N 31°07' E 121°58'45285703.6
2017-Mar-17 11:32N 24°25' E 118°04'45726998.1
2017-Mar-17 11:31N 31°24' E 121°32'880.2
2017-Mar-17 11:25N 31°29' E 121°25'152922.9
2017-Mar-17 11:25N 31°15' E 121°33'15289.6
2017-Mar-17 11:22N 31°29' E 121°25'122.3
2017-Mar-17 11:19N 31°30' E 121°24'118.4
2017-Mar-17 11:15N 31°30' E 121°25'148.5
2017-Mar-17 11:14N 31°30' E 121°24'16465.6
2017-Mar-17 11:12N 31°41' E 121°11'26926.5
2017-Mar-17 11:10N 31°24' E 121°35'459743.2
2017-Mar-17 10:33N 24°25' E 118°04'45050664.1
2017-Mar-17 10:33N 31°16' E 121°33'92627.2
2017-Mar-17 10:33N 31°24' E 121°35'107306.1
2017-Mar-17 10:33N 31°29' E 121°25'104179.2
2017-Mar-17 10:32N 31°23' E 121°34'11202.0
2017-Mar-17 10:29N 31°30' E 121°24'1111.1
2017-Mar-17 10:29N 31°30' E 121°25'245.8
2017-Mar-17 10:25N 31°31' E 121°23'2414.7
2017-Mar-17 10:25N 31°29' E 121°25'1 4.5
2017-Mar-17 10:11N 31°30' E 121°24'460727.7
2017-Mar-17 09:34N 24°25' E 118°04'46018403.4
2017-Mar-17 09:32N 31°29' E 121°25'183.3
2017-Mar-17 09:31N 31°30' E 121°24'149.2
2017-Mar-17 09:30N 31°30' E 121°25'139.6
2017-Mar-17 09:29N 31°30' E 121°24'111640.9
2017-Mar-17 09:28N 31°24' E 121°35'9127.5
2017-Mar-17 09:24N 31°16' E 121°33'153982.4
2017-Mar-17 09:24N 31°29' E 121°25'1040.0
2017-Mar-17 09:10N 31°21' E 121°30'455757.3
2017-Mar-17 08:34N 24°25' E 118°04'460828637.5
2017-Mar-17 08:33N 31°30' E 121°24'028.3
2017-Mar-17 08:33N 31°30' E 121°24'142.3
2017-Mar-17 08:32N 31°29' E 121°25'2213.4
2017-Mar-17 08:31N 31°31' E 121°22'266.2
2017-Mar-17 08:29N 31°29' E 121°25'0 3.2
2017-Mar-17 08:25N 31°30' E 121°25'10129.2
2017-Mar-17 08:20N 31°24' E 121°35'465583.6
2017-Mar-17 07:33N 24°15' E 118°13'132256.2
2017-Mar-17 07:32N 24°25' E 118°04'46021523.7
2017-Mar-17 07:31N 31°30' E 121°24'191095.8
2017-Mar-17 07:30N 31°43' E 121°08'351163.0
2017-Mar-17 07:28N 31°15' E 121°33'181225.0
2017-Mar-17 07:27N 31°31' E 121°22'3398.2
2017-Mar-17 07:27N 31°30' E 121°25'0 9.8
2017-Mar-17 07:25N 31°29' E 121°25'137.2
2017-Mar-17 07:23N 31°30' E 121°24'11622.8
2017-Mar-17 07:22N 31°38' E 121°15'465571.9
2017-Mar-17 06:34N 24°25' E 118°04'465239266.4
2017-Mar-17 06:33N 31°38' E 121°15'121198.5
2017-Mar-17 06:33N 31°29' E 121°25'6296.0
2017-Mar-17 06:32N 31°34' E 121°20'6378.3
2017-Mar-17 06:31N 31°29' E 121°25'1589.3
2017-Mar-17 06:30N 31°30' E 121°24'0 9.2
2017-Mar-17 06:29N 31°30' E 121°24'18787.5
2017-Mar-17 06:27N 31°28' E 121°45'19356.3
2017-Mar-17 06:24N 31°13' E 121°30'17465.0
2017-Mar-17 06:22N 31°30' E 121°25'338.2
2017-Mar-17 06:18N 31°31' E 121°22'4642338.0
2017-Mar-17 06:06N 24°26' E 117°51'465856.7
2017-Mar-17 05:33N 31°33' E 121°21'47733.8
2017-Mar-17 05:33N 31°29' E 121°25'460828689.2
2017-Mar-17 05:33N 24°25' E 118°04'461150977.2
2017-Mar-17 05:33N 31°30' E 121°25'124.0
2017-Mar-17 05:31N 31°30' E 121°25'136.7
2017-Mar-17 05:30N 31°30' E 121°24'91199.6
2017-Mar-17 05:29N 31°23' E 121°30'7122.2
2017-Mar-17 05:26N 31°15' E 121°33'16367.0
2017-Mar-17 05:23N 31°30' E 121°24'153.1
2017-Mar-17 05:22N 31°29' E 121°25'2 8.6
2017-Mar-17 05:05N 31°31' E 121°22'461873.3
2017-Mar-17 04:34N 24°25' E 118°04'46053430.7
2017-Mar-17 04:33N 31°28' E 121°28'4522.8
2017-Mar-17 04:33N 31°30' E 121°24'173361.0
2017-Mar-17 04:32N 31°21' E 121°41'1761351.9
2017-Mar-17 04:32N 31°30' E 121°24'1143.6
2017-Mar-17 04:32N 31°30' E 121°25'155539.5
2017-Mar-17 04:32N 31°16' E 121°33'151134.7
2017-Mar-17 04:31N 31°29' E 121°25'17659.6
2017-Mar-17 04:29N 31°29' E 121°45'17425.4
2017-Mar-17 04:27N 31°29' E 121°25'759.8
2017-Mar-17 04:20N 31°25' E 121°31'17115.8
2017-Mar-17 04:11N 31°36' E 121°17'10266.4
2017-Mar-17 04:09N 31°30' E 121°25'460783.3
2017-Mar-17 03:33N 24°25' E 118°04'457329061.7
2017-Mar-17 03:33N 31°24' E 121°31'162997.6
2017-Mar-17 03:33N 31°15' E 121°47'12827.7
2017-Mar-17 03:32N 31°16' E 121°33'91625.2
2017-Mar-17 03:32N 31°24' E 121°34'101421.0
2017-Mar-17 03:31N 31°30' E 121°24'175.0
2017-Mar-17 03:31N 31°29' E 121°25'172781.9
2017-Mar-17 03:30N 31°29' E 121°45'121411.1
2017-Mar-17 03:30N 31°17' E 121°44'222084.0
2017-Mar-17 03:29N 31°30' E 121°24'1162.2
2017-Mar-17 03:29N 31°29' E 121°25'2143.0
2017-Mar-17 03:28N 31°31' E 121°23'46316356.3
2017-Mar-17 03:26N 24°21' E 118°07'4182954.2
2017-Mar-17 03:18N 30°27' E 121°53'416559.9
2017-Mar-17 02:33N 24°25' E 118°04'456109380.8
2017-Mar-17 02:33N 31°17' E 121°44'211637.3
2017-Mar-17 02:32N 31°29' E 121°25'303612.5
2017-Mar-17 02:32N 31°10' E 121°52'171012.6
2017-Mar-17 02:30N 31°16' E 121°33'573853.8
2017-Mar-17 02:30N 30°21' E 121°53'57858.1
2017-Mar-17 02:26N 31°17' E 121°34'163829.5
2017-Mar-17 02:25N 31°30' E 121°24'161182.6
2017-Mar-17 02:25N 31°15' E 121°33'1518555.8
2017-Mar-17 02:24N 31°29' E 121°25'1730600.4
2017-Mar-17 02:24N 31°29' E 121°45'18842.6
2017-Mar-17 02:23N 31°30' E 121°24'4248.1
2017-Mar-17 02:22N 31°27' E 121°28'345.5
2017-Mar-17 02:18N 31°29' E 121°25'2237.2
2017-Mar-17 02:17N 31°28' E 121°26'0 1.7
2017-Mar-17 02:04N 31°28' E 121°26'2039.3
2017-Mar-17 01:33N 31°16' E 121°45'2342121.5
2017-Mar-17 01:33N 31°30' E 121°23'460414348.7
2017-Mar-17 01:33N 24°25' E 118°04'460331467.0
2017-Mar-17 01:33N 31°29' E 121°25'31100.4
2017-Mar-17 01:33N 31°31' E 121°21'3656.5
2017-Mar-17 01:33N 31°29' E 121°25'353805.4
2017-Mar-17 01:32N 31°08' E 121°57'364529.9
2017-Mar-17 01:32N 31°30' E 121°23'1813275.0
2017-Mar-17 01:32N 31°13' E 121°30'184389.8
2017-Mar-17 01:31N 31°30' E 121°24'809975.2
2017-Mar-17 01:31N 30°14' E 121°55'649628.2
2017-Mar-17 01:30N 31°16' E 121°33'16331.2
2017-Mar-17 01:28N 31°30' E 121°24'110.3
2017-Mar-17 01:23N 31°29' E 121°25'211.3
2017-Mar-17 01:10N 31°31' E 121°23'4 6.7
2017-Mar-17 00:34N 31°34' E 121°19'144687.9
2017-Mar-17 00:33N 31°23' E 121°30'45682097.1
2017-Mar-17 00:33N 24°25' E 118°04'464208744.7
2017-Mar-17 00:33N 31°36' E 121°16'2631059.9
2017-Mar-17 00:33N 31°20' E 121°40'172761.5
2017-Mar-17 00:32N 31°30' E 121°24'876547.0
2017-Mar-17 00:32N 30°08' E 121°57'865363.2
2017-Mar-17 00:31N 31°29' E 121°25'15879.6
2017-Mar-17 00:30N 31°16' E 121°33'103879.2
2017-Mar-17 00:29N 31°07' E 121°28'241796.4
2017-Mar-17 00:29N 31°31' E 121°23'2154.3
2017-Mar-17 00:28N 31°30' E 121°24'8411.8
2017-Mar-17 00:27N 31°35' E 121°17'9117.1
2017-Mar-17 00:22N 31°29' E 121°25'19141.0
2017-Mar-17 00:14N 31°19' E 121°43'19467.8
2017-Mar-17 00:12N 31°29' E 121°25'0 3.9
2017-Mar-17 00:09N 31°30' E 121°25'915.0
2017-Mar-16 23:33N 31°24' E 121°33'45854907.9
2017-Mar-16 23:33N 24°25' E 118°04'461165789.0
2017-Mar-16 23:32N 31°30' E 121°24'1149.5
2017-Mar-16 23:32N 31°29' E 121°25'151042.7
2017-Mar-16 23:31N 31°40' E 121°12'126312.6
2017-Mar-16 23:31N 31°31' E 121°23'1715239.7
2017-Mar-16 23:31N 31°21' E 121°39'15687.6
2017-Mar-16 23:30N 31°29' E 121°25'1393.9
2017-Mar-16 23:30N 31°30' E 121°24'12574.6
2017-Mar-16 23:28N 31°38' E 121°14'13619.7
2017-Mar-16 23:27N 31°29' E 121°25'101337.0
2017-Mar-16 23:27N 31°24' E 121°35'68317.1
2017-Mar-16 23:14N 31°58' E 120°26'77475.2
2017-Mar-16 23:04N 31°03' E 121°29'437842.4
2017-Mar-16 22:33N 24°25' E 118°04'45055867.3
2017-Mar-16 22:33N 31°15' E 121°32'7118239.7
2017-Mar-16 22:32N 31°58' E 120°26'571956.9
2017-Mar-16 22:31N 31°30' E 121°24'103060.1
2017-Mar-16 22:30N 31°24' E 121°33'10380.2
2017-Mar-16 22:29N 31°30' E 121°24'1352.3
2017-Mar-16 22:29N 31°29' E 121°25'0 3.9
2017-Mar-16 22:24N 31°29' E 121°25'0 9.5
2017-Mar-16 22:23N 31°29' E 121°25'1069.2
2017-Mar-16 22:14N 31°24' E 121°35'459662.5
2017-Mar-16 21:33N 24°25' E 118°04'4609920.6
2017-Mar-16 21:30N 31°29' E 121°25'16542.4
2017-Mar-16 21:28N 31°15' E 121°32'161962.9
2017-Mar-16 21:28N 31°30' E 121°24'070.3
2017-Mar-16 21:27N 31°30' E 121°24'1113313.0
2017-Mar-16 21:27N 31°24' E 121°35'68914.4
2017-Mar-16 21:23N 31°58' E 120°26'57636.6
2017-Mar-16 21:17N 31°29' E 121°25'222.9
2017-Mar-16 21:11N 31°31' E 121°22'5740888.3
2017-Mar-16 21:11N 31°58' E 120°24'470752.3
2017-Mar-16 20:33N 24°25' E 118°04'4616553.2
2017-Mar-16 20:29N 31°30' E 121°24'568838.1
2017-Mar-16 20:29N 31°58' E 120°26'572401.1
2017-Mar-16 20:27N 31°30' E 121°24'1139043.0
2017-Mar-16 20:27N 31°24' E 121°35'10928.7
2017-Mar-16 20:27N 31°29' E 121°25'0 3.3
2017-Mar-16 20:24N 31°29' E 121°25'2111.2
2017-Mar-16 20:22N 31°31' E 121°22'18217.4
2017-Mar-16 20:17N 31°15' E 121°32'29148.4
2017-Mar-16 20:06N 31°39' E 121°13'465863.2
2017-Mar-16 19:33N 24°25' E 118°04'46740967.8
2017-Mar-16 19:33N 31°41' E 121°13'14557.6
2017-Mar-16 19:31N 31°30' E 121°24'1317.6
2017-Mar-16 19:31N 31°29' E 121°25'101588.1
2017-Mar-16 19:31N 31°24' E 121°35'11632.2
2017-Mar-16 19:30N 31°30' E 121°24'125.0
2017-Mar-16 19:28N 31°29' E 121°25'57878.9
2017-Mar-16 19:24N 31°58' E 120°26'471558.4
2017-Mar-16 18:33N 24°25' E 118°04'46157207.6
2017-Mar-16 18:33N 31°31' E 121°22'2303.7
2017-Mar-16 18:32N 31°30' E 121°25'127.7
2017-Mar-16 18:30N 31°30' E 121°24'73135.9
2017-Mar-16 18:30N 31°35' E 121°18'184964.9
2017-Mar-16 18:30N 31°24' E 121°35'10309.4
2017-Mar-16 18:28N 31°30' E 121°25'168022.3
2017-Mar-16 18:28N 31°14' E 121°29'372.7
2017-Mar-16 18:26N 31°15' E 121°32'161157.7
2017-Mar-16 18:25N 31°30' E 121°24'57598.5
2017-Mar-16 18:19N 31°58' E 120°26'238.3
2017-Mar-16 18:16N 31°58' E 120°24'591297.7
2017-Mar-16 18:13N 31°29' E 121°25'181886.0
2017-Mar-16 18:13N 31°42' E 121°09'467713.3
2017-Mar-16 17:33N 24°25' E 118°04'46646591.5
2017-Mar-16 17:33N 31°40' E 121°13'1410345.9
2017-Mar-16 17:33N 31°29' E 121°25'152643.3
2017-Mar-16 17:32N 31°40' E 121°13'258882.0
2017-Mar-16 17:32N 31°24' E 121°35'23886.8
2017-Mar-16 17:31N 31°39' E 121°14'13714.0
2017-Mar-16 17:30N 31°30' E 121°25'161255.0
2017-Mar-16 17:29N 31°15' E 121°32'17485.3
2017-Mar-16 17:27N 31°30' E 121°24'197.0
2017-Mar-16 17:26N 31°29' E 121°25'1 5.4
2017-Mar-16 17:18N 31°30' E 121°24'133334.3
2017-Mar-16 17:18N 31°20' E 121°33'693262.8
2017-Mar-16 17:16N 31°58' E 120°26'462684.5
2017-Mar-16 17:15N 31°38' E 121°15'465667.2
2017-Mar-16 16:34N 24°25' E 118°04'46342755.7
2017-Mar-16 16:33N 31°35' E 121°19'2395.1
2017-Mar-16 16:33N 31°37' E 121°18'244831.7
2017-Mar-16 16:32N 31°15' E 121°31'151826.2
2017-Mar-16 16:32N 31°30' E 121°25'101382.3
2017-Mar-16 16:31N 31°24' E 121°35'1018245.1
2017-Mar-16 16:31N 31°29' E 121°25'91247.4
2017-Mar-16 16:31N 31°24' E 121°33'10969.2
2017-Mar-16 16:30N 31°30' E 121°24'054.1
2017-Mar-16 16:30N 31°30' E 121°24'8609.3
2017-Mar-16 16:29N 31°35' E 121°18'2267.4
2017-Mar-16 16:29N 31°37' E 121°17'10143.9
2017-Mar-16 16:25N 31°29' E 121°25'212.9
2017-Mar-16 16:14N 31°31' E 121°22'55644.1
2017-Mar-16 16:09N 31°58' E 120°26'5085.4
2017-Mar-16 15:33N 31°35' E 121°19'52539.7
2017-Mar-16 15:33N 31°32' E 121°23'2035742.6
2017-Mar-16 15:33N 31°19' E 121°41'45753051.2
2017-Mar-16 15:33N 24°25' E 118°04'462138450.4
2017-Mar-16 15:33N 31°32' E 121°20'4765.4
2017-Mar-16 15:32N 31°30' E 121°24'8567.4
2017-Mar-16 15:31N 31°37' E 121°18'72253.7
2017-Mar-16 15:31N 31°31' E 121°23'3655.8
2017-Mar-16 15:31N 31°29' E 121°25'5817308.7
2017-Mar-16 15:31N 31°58' E 120°26'5734094.5
2017-Mar-16 15:31N 31°30' E 121°24'16178.9
2017-Mar-16 15:25N 31°15' E 121°31'15664.5
2017-Mar-16 15:24N 31°29' E 121°25'10394.2
2017-Mar-16 15:22N 31°24' E 121°35'10145.5
2017-Mar-16 15:18N 31°29' E 121°25'460615.1
2017-Mar-16 14:33N 24°25' E 118°04'465557595.5
2017-Mar-16 14:33N 31°37' E 121°18'51633.9
2017-Mar-16 14:33N 31°33' E 121°21'247061.1
2017-Mar-16 14:33N 31°18' E 121°43'201491.2
2017-Mar-16 14:32N 31°30' E 121°24'41387.4
2017-Mar-16 14:32N 31°32' E 121°20'2117.1
2017-Mar-16 14:31N 31°31' E 121°23'2111.1
2017-Mar-16 14:30N 31°30' E 121°24'1118993.1
2017-Mar-16 14:30N 31°24' E 121°35'10639.1
2017-Mar-16 14:29N 31°29' E 121°25'0 6.6
2017-Mar-16 14:27N 31°29' E 121°25'0 1.7
2017-Mar-16 14:24N 31°29' E 121°25'583771.0
2017-Mar-16 14:23N 31°58' E 120°26'57723.6
2017-Mar-16 14:18N 31°30' E 121°24'16441.4
2017-Mar-16 14:16N 31°15' E 121°31'13139.4
2017-Mar-16 14:10N 31°28' E 121°27'459741.2
2017-Mar-16 13:33N 24°25' E 118°04'46147376.0
2017-Mar-16 13:33N 31°30' E 121°24'0110.6
2017-Mar-16 13:33N 31°30' E 121°24'1118964.4
2017-Mar-16 13:33N 31°23' E 121°34'1468.5
2017-Mar-16 13:32N 31°24' E 121°35'101036.5
2017-Mar-16 13:32N 31°29' E 121°25'154.8
2017-Mar-16 13:31N 31°30' E 121°24'14195.7
2017-Mar-16 13:31N 31°29' E 121°25'91235.8
2017-Mar-16 13:30N 31°37' E 121°18'51017.5
2017-Mar-16 13:30N 31°32' E 121°20'5493.2
2017-Mar-16 13:29N 31°29' E 121°25'58207590.4
2017-Mar-16 13:29N 31°58' E 120°26'551274.1
2017-Mar-16 13:27N 31°31' E 121°22'17296.7
2017-Mar-16 13:23N 31°15' E 121°31'449539.4
2017-Mar-16 12:33N 24°25' E 118°04'461184446.5
2017-Mar-16 12:33N 31°32' E 121°20'153590.3
2017-Mar-16 12:33N 31°24' E 121°35'106016.6
2017-Mar-16 12:33N 31°29' E 121°25'151652.0
2017-Mar-16 12:32N 31°15' E 121°31'2225837.8
2017-Mar-16 12:32N 31°34' E 121°18'382.3
2017-Mar-16 12:30N 31°37' E 121°18'497694.9
2017-Mar-16 12:30N 31°58' E 120°26'583397.0
2017-Mar-16 12:29N 31°30' E 121°25'0 3.5
2017-Mar-16 12:26N 31°29' E 121°25'144.7
2017-Mar-16 12:25N 31°30' E 121°24'1636.2
2017-Mar-16 12:24N 31°29' E 121°25'156.4
2017-Mar-16 12:24N 31°30' E 121°24'461548.0
2017-Mar-16 11:33N 24°25' E 118°04'46539870.9
2017-Mar-16 11:33N 31°39' E 121°13'4423.7
2017-Mar-16 11:32N 31°37' E 121°18'58771.9
2017-Mar-16 11:32N 31°32' E 121°20'1553689.5
2017-Mar-16 11:32N 31°24' E 121°35'92829.4
2017-Mar-16 11:32N 31°15' E 121°31'1518143.9
2017-Mar-16 11:32N 31°29' E 121°25'1116.1
2017-Mar-16 11:31N 31°30' E 121°24'163.4
2017-Mar-16 11:30N 31°29' E 121°25'0 4.0
2017-Mar-16 11:27N 31°29' E 121°25'140.6
2017-Mar-16 11:26N 31°30' E 121°24'016.2
2017-Mar-16 11:25N 31°30' E 121°24'461539.6
2017-Mar-16 10:33N 24°25' E 118°04'461150912.6
2017-Mar-16 10:33N 31°32' E 121°20'192568.2
2017-Mar-16 10:33N 31°15' E 121°31'163799.0
2017-Mar-16 10:33N 31°30' E 121°24'131.6
2017-Mar-16 10:31N 31°29' E 121°25'9435.0
2017-Mar-16 10:30N 31°37' E 121°18'814958.7
2017-Mar-16 10:30N 31°30' E 121°24'1192.2
2017-Mar-16 10:30N 31°30' E 121°24'126.3
2017-Mar-16 10:28N 31°29' E 121°25'1233.6
2017-Mar-16 10:08N 31°20' E 121°33'12258.3
2017-Mar-16 10:05N 31°30' E 121°25'460870.6
2017-Mar-16 09:33N 24°25' E 118°04'46011750.7
2017-Mar-16 09:31N 31°29' E 121°25'0 7.5
2017-Mar-16 09:30N 31°29' E 121°25'0575.7
2017-Mar-16 09:30N 31°30' E 121°25'151405.8
2017-Mar-16 09:29N 31°15' E 121°31'93397.3
2017-Mar-16 09:29N 31°24' E 121°35'11647.2
2017-Mar-16 09:28N 31°30' E 121°24'051.3
2017-Mar-16 09:28N 31°30' E 121°24'016.4
2017-Mar-16 09:27N 31°30' E 121°24'8892.5
2017-Mar-16 09:26N 31°37' E 121°18'17335.4
2017-Mar-16 09:23N 31°23' E 121°31'10108.1
2017-Mar-16 09:17N 31°31' E 121°22'212.2
2017-Mar-16 09:05N 31°32' E 121°20'2 4.5
2017-Mar-16 08:33N 31°31' E 121°22'461236992.7
2017-Mar-16 08:33N 24°25' E 118°04'46518389.3
2017-Mar-16 08:31N 31°37' E 121°18'51969.5
2017-Mar-16 08:31N 31°32' E 121°20'41333.3
2017-Mar-16 08:31N 31°30' E 121°24'1179.9
2017-Mar-16 08:31N 31°30' E 121°25'101653.3
2017-Mar-16 08:30N 31°24' E 121°35'2517.9
2017-Mar-16 08:30N 31°22' E 121°36'4920300213.9
2017-Mar-16 08:29S 20°09' E 057°29'4916376518.9
2017-Mar-16 08:28N 31°30' E 121°24'16579.9
2017-Mar-16 08:26N 31°15' E 121°31'15677.0
2017-Mar-16 08:25N 31°29' E 121°25'197.3
2017-Mar-16 08:25N 31°30' E 121°24'1 9.1
2017-Mar-16 08:19N 31°30' E 121°25'14172.9
2017-Mar-16 08:14N 31°17' E 121°34'5 7.1
2017-Mar-16 07:33N 31°22' E 121°36'457548754.5
2017-Mar-16 07:33N 24°25' E 118°04'46023340.3
2017-Mar-16 07:32N 31°30' E 121°25'018.2
2017-Mar-16 07:31N 31°29' E 121°25'1202.1
2017-Mar-16 07:31N 31°30' E 121°24'1546.6
2017-Mar-16 07:31N 31°30' E 121°25'9704.5
2017-Mar-16 07:30N 31°37' E 121°18'1969159.4
2017-Mar-16 07:30N 31°24' E 121°35'11404.0
2017-Mar-16 07:29N 31°30' E 121°24'2143.0
2017-Mar-16 07:28N 31°31' E 121°22'156.7
2017-Mar-16 07:26N 31°30' E 121°24'161706.1
2017-Mar-16 07:26N 31°15' E 121°31'789.5
2017-Mar-16 07:21N 31°22' E 121°30'456573.6
2017-Mar-16 06:33N 24°25' E 118°04'465278894.2
2017-Mar-16 06:33N 31°37' E 121°18'2115248.9
2017-Mar-16 06:33N 31°23' E 121°36'111591.6
2017-Mar-16 06:33N 31°28' E 121°25'11427.4
2017-Mar-16 06:31N 31°22' E 121°36'13902.6
2017-Mar-16 06:30N 31°30' E 121°24'13635.2
2017-Mar-16 06:29N 31°40' E 121°13'143269.1
2017-Mar-16 06:29N 31°30' E 121°24'160.4
2017-Mar-16 06:28N 31°29' E 121°25'0 2.1
2017-Mar-16 06:22N 31°30' E 121°25'0 6.6
2017-Mar-16 06:19N 31°29' E 121°25'2208.2
2017-Mar-16 06:18N 31°31' E 121°22'461619.0
2017-Mar-16 05:33N 24°25' E 118°04'463208491.6
2017-Mar-16 05:33N 31°35' E 121°19'294674.8
2017-Mar-16 05:33N 31°17' E 121°45'11432.5
2017-Mar-16 05:31N 31°24' E 121°35'11666.3
2017-Mar-16 05:30N 31°30' E 121°24'1108.7
2017-Mar-16 05:30N 31°29' E 121°25'16215.3
2017-Mar-16 05:25N 31°14' E 121°29'20361.2
2017-Mar-16 05:22N 31°32' E 121°20'176106.7
2017-Mar-16 05:22N 31°22' E 121°36'21361.0
2017-Mar-16 05:18N 31°37' E 121°18'972.1
2017-Mar-16 05:11N 31°30' E 121°25'115.1
2017-Mar-16 05:05N 31°28' E 121°25'459866.3
2017-Mar-16 04:34N 24°25' E 118°04'45654754.1
2017-Mar-16 04:33N 31°18' E 121°44'214120.9
2017-Mar-16 04:33N 31°30' E 121°25'13463.9
2017-Mar-16 04:31N 31°22' E 121°36'178710.8
2017-Mar-16 04:31N 31°32' E 121°20'151352.3
2017-Mar-16 04:30N 31°24' E 121°35'1120046.1
2017-Mar-16 04:30N 31°30' E 121°24'289.4
2017-Mar-16 04:29N 31°28' E 121°25'138.5
2017-Mar-16 04:27N 31°29' E 121°25'122.5
2017-Mar-16 04:25N 31°30' E 121°24'176.8
2017-Mar-16 04:24N 31°29' E 121°25'024.7
2017-Mar-16 04:24N 31°29' E 121°25'0 4.5
2017-Mar-16 04:23N 31°30' E 121°25'994.3
2017-Mar-16 04:17N 31°37' E 121°18'24127.1
2017-Mar-16 04:06N 31°15' E 121°31'449834.4
2017-Mar-16 03:33N 24°25' E 118°04'4578756.7
2017-Mar-16 03:30N 31°22' E 121°36'81086.1
2017-Mar-16 03:30N 31°15' E 121°31'2518255.2
2017-Mar-16 03:30N 31°38' E 121°17'6477.7
2017-Mar-16 03:29N 31°32' E 121°20'5311.4
2017-Mar-16 03:28N 31°29' E 121°25'162236.2
2017-Mar-16 03:28N 31°20' E 121°40'167189.0
2017-Mar-16 03:27N 31°29' E 121°25'1105.2
2017-Mar-16 03:27N 31°28' E 121°25'2498.0
2017-Mar-16 03:27N 31°30' E 121°24'5714745.2
2017-Mar-16 03:26N 32°00' E 120°27'581006.2
2017-Mar-16 03:23N 31°29' E 121°25'101158.0
2017-Mar-16 03:22N 31°24' E 121°35'11130.9
2017-Mar-16 03:17N 31°30' E 121°24'72212.6
2017-Mar-16 03:17N 31°26' E 121°31'25313.1
2017-Mar-16 03:12N 31°09' E 121°10'436670.2
2017-Mar-16 02:33N 24°25' E 118°04'466129061.2
2017-Mar-16 02:33N 31°40' E 121°11'1614259.8
2017-Mar-16 02:33N 31°29' E 121°25'109240.6
2017-Mar-16 02:33N 31°23' E 121°34'21500.8
2017-Mar-16 02:33N 31°22' E 121°36'814661.8
2017-Mar-16 02:33N 31°15' E 121°31'156819.4
2017-Mar-16 02:33N 31°29' E 121°25'179.1
2017-Mar-16 02:32N 31°30' E 121°24'4347.7
2017-Mar-16 02:31N 31°32' E 121°20'15147.5
2017-Mar-16 02:25N 31°24' E 121°35'11218.4
2017-Mar-16 02:22N 31°30' E 121°24'313.0
2017-Mar-16 02:09N 31°28' E 121°26'273.4
2017-Mar-16 02:08N 31°29' E 121°25'460797.6
2017-Mar-16 01:33N 24°25' E 118°04'459550359.1
2017-Mar-16 01:33N 31°24' E 121°35'1322684.5
2017-Mar-16 01:33N 31°31' E 121°22'174736.5
2017-Mar-16 01:33N 31°15' E 121°31'16254.3
2017-Mar-16 01:29N 31°30' E 121°24'1432.4
2017-Mar-16 01:29N 31°29' E 121°25'1101.2
2017-Mar-16 01:29N 31°30' E 121°24'129.5
2017-Mar-16 01:27N 31°29' E 121°25'126137.6
2017-Mar-16 01:27N 31°22' E 121°36'7356.6
2017-Mar-16 01:26N 31°15' E 121°33'202751.2
2017-Mar-16 01:25N 31°32' E 121°20'6278.1
2017-Mar-16 01:24N 31°28' E 121°25'1 6.1
2017-Mar-16 01:12N 31°29' E 121°25'460717.8
2017-Mar-16 00:33N 24°25' E 118°04'4611657889.8
2017-Mar-16 00:33N 31°30' E 121°24'151.2
2017-Mar-16 00:32N 31°29' E 121°25'054.8
2017-Mar-16 00:32N 31°29' E 121°25'151326.6
2017-Mar-16 00:31N 31°15' E 121°31'245046.7
2017-Mar-16 00:31N 31°36' E 121°17'191619.4
2017-Mar-16 00:30N 31°24' E 121°35'15816.3
2017-Mar-16 00:29N 31°32' E 121°20'6629.8
2017-Mar-16 00:29N 31°28' E 121°25'2153.7
2017-Mar-16 00:28N 31°30' E 121°24'1 8.9
2017-Mar-16 00:22N 31°29' E 121°25'58216.4
2017-Mar-16 00:06N 31°58' E 120°25'470873.0
2017-Mar-15 23:33N 24°25' E 118°04'460552344.7
2017-Mar-15 23:33N 31°29' E 121°25'51111.2
2017-Mar-15 23:33N 31°32' E 121°20'194085.1
2017-Mar-15 23:33N 31°15' E 121°31'702165.6
2017-Mar-15 23:31N 31°58' E 120°25'575276.8
2017-Mar-15 23:30N 31°30' E 121°24'021.2
2017-Mar-15 23:30N 31°30' E 121°24'2105.0
2017-Mar-15 23:29N 31°28' E 121°25'176.5
2017-Mar-15 23:28N 31°29' E 121°25'10483.3
2017-Mar-15 23:26N 31°24' E 121°35'10176.0
2017-Mar-15 23:23N 31°29' E 121°25'0 0.7
2017-Mar-15 23:08N 31°30' E 121°25'0 0.3
2017-Mar-15 22:33N 31°29' E 121°25'4601656669.1
2017-Mar-15 22:33N 24°25' E 118°04'44944919.1
2017-Mar-15 22:33N 31°15' E 121°31'16390.0
2017-Mar-15 22:30N 31°30' E 121°24'111210.3
2017-Mar-15 22:30N 31°24' E 121°35'103606.4
2017-Mar-15 22:30N 31°29' E 121°25'5539.1
2017-Mar-15 22:29N 31°32' E 121°20'4831.3
2017-Mar-15 22:29N 31°30' E 121°24'256.8
2017-Mar-15 22:27N 31°31' E 121°23'222.8
2017-Mar-15 22:21N 31°30' E 121°25'0 4.4
2017-Mar-15 22:18N 31°29' E 121°25'110.6
2017-Mar-15 22:11N 31°28' E 121°25'6 9.6
2017-Mar-15 21:34N 31°32' E 121°20'4775.3
2017-Mar-15 21:33N 31°30' E 121°24'461110523.3
2017-Mar-15 21:33N 24°25' E 118°04'459550352.9
2017-Mar-15 21:33N 31°24' E 121°35'95668.9
2017-Mar-15 21:33N 31°15' E 121°31'17579.0
2017-Mar-15 21:31N 31°31' E 121°23'2511.6
2017-Mar-15 21:31N 31°29' E 121°25'018.3
2017-Mar-15 21:30N 31°30' E 121°25'1289.3
2017-Mar-15 21:30N 31°28' E 121°25'1256.8
2017-Mar-15 21:29N 31°29' E 121°25'1154.2
2017-Mar-15 21:29N 31°30' E 121°24'1 4.2
2017-Mar-15 21:20N 31°30' E 121°25'460594.1
2017-Mar-15 20:33N 24°25' E 118°04'461331796.3
2017-Mar-15 20:33N 31°31' E 121°22'17707.9
2017-Mar-15 20:32N 31°15' E 121°31'199972.7
2017-Mar-15 20:32N 31°32' E 121°20'41501.0
2017-Mar-15 20:32N 31°30' E 121°24'248.9
2017-Mar-15 20:29N 31°28' E 121°25'9706.3
2017-Mar-15 20:28N 31°24' E 121°35'11368.3
2017-Mar-15 20:26N 31°30' E 121°24'141858.0
2017-Mar-15 20:26N 31°25' E 121°08'154528.4
2017-Mar-15 20:26N 31°29' E 121°25'010.2
2017-Mar-15 20:25N 31°30' E 121°25'0 4.1
2017-Mar-15 20:20N 31°29' E 121°25'1 0.9
2017-Mar-15 19:33N 31°30' E 121°24'1190.8
2017-Mar-15 19:33N 31°29' E 121°25'460207080.9
2017-Mar-15 19:32N 24°25' E 118°04'45934397.9
2017-Mar-15 19:32N 31°24' E 121°35'9706.3
2017-Mar-15 19:31N 31°28' E 121°25'64389.2
2017-Mar-15 19:31N 31°32' E 121°20'5274.6
2017-Mar-15 19:30N 31°29' E 121°25'152890.6
2017-Mar-15 19:29N 31°15' E 121°31'15573.2
2017-Mar-15 19:28N 31°30' E 121°25'1242.1
2017-Mar-15 19:27N 31°30' E 121°24'1561.7
2017-Mar-15 19:27N 31°31' E 121°22'461514.1
2017-Mar-15 18:34N 24°25' E 118°04'449101068.0
2017-Mar-15 18:33N 31°15' E 121°31'194992.5
2017-Mar-15 18:33N 31°32' E 121°20'4517.6
2017-Mar-15 18:33N 31°30' E 121°24'149.8
2017-Mar-15 18:32N 31°29' E 121°25'0 5.8
2017-Mar-15 18:30N 31°29' E 121°25'1133.6
2017-Mar-15 18:30N 31°28' E 121°25'91202.5
2017-Mar-15 18:29N 31°24' E 121°35'11542.1
2017-Mar-15 18:28N 31°30' E 121°24'15489.6
2017-Mar-15 18:26N 31°41' E 121°11'14271.0
2017-Mar-15 18:23N 31°31' E 121°22'1852.4
2017-Mar-15 18:03N 31°14' E 121°29'1733.7
2017-Mar-15 17:33N 31°30' E 121°24'461184207.0
2017-Mar-15 17:33N 24°25' E 118°04'4491617088.8
2017-Mar-15 17:33N 31°15' E 121°31'15578.8
2017-Mar-15 17:32N 31°30' E 121°25'5403.7
2017-Mar-15 17:31N 31°32' E 121°20'157741.0
2017-Mar-15 17:31N 31°24' E 121°35'96495.7
2017-Mar-15 17:31N 31°28' E 121°25'9193.2
2017-Mar-15 17:28N 31°35' E 121°18'8445.2
2017-Mar-15 17:27N 31°29' E 121°25'226.9
2017-Mar-15 17:21N 31°31' E 121°22'2110.8
2017-Mar-15 17:21N 31°30' E 121°24'154.7
2017-Mar-15 17:20N 31°29' E 121°25'460598.5
2017-Mar-15 16:34N 24°25' E 118°04'46018012.8
2017-Mar-15 16:32N 31°29' E 121°25'10806.7
2017-Mar-15 16:31N 31°24' E 121°35'112797.9
2017-Mar-15 16:31N 31°30' E 121°24'224.4
2017-Mar-15 16:26N 31°28' E 121°25'1950.3
2017-Mar-15 16:26N 31°29' E 121°25'130.5
2017-Mar-15 16:24N 31°30' E 121°25'145.7
2017-Mar-15 16:23N 31°30' E 121°25'5432.5
2017-Mar-15 16:22N 31°32' E 121°20'484.3
2017-Mar-15 16:19N 31°30' E 121°24'16117.0
2017-Mar-15 16:11N 31°15' E 121°31'17158.0
2017-Mar-15 16:04N 31°31' E 121°22'461866.7
2017-Mar-15 15:33N 24°25' E 118°04'46123716.0
2017-Mar-15 15:31N 31°32' E 121°20'192103.6
2017-Mar-15 15:31N 31°15' E 121°31'91999.2
2017-Mar-15 15:31N 31°24' E 121°35'10838.7
2017-Mar-15 15:30N 31°29' E 121°25'1334.0
2017-Mar-15 15:30N 31°30' E 121°24'281.4
2017-Mar-15 15:28N 31°29' E 121°25'56100251.8
2017-Mar-15 15:28N 32°01' E 120°32'5532993.8
2017-Mar-15 15:28N 31°29' E 121°25'158.3
2017-Mar-15 15:27N 31°30' E 121°24'154.4
2017-Mar-15 15:26N 31°29' E 121°25'3 7.1
2017-Mar-15 15:05N 31°31' E 121°23'461887.2
2017-Mar-15 14:33N 24°25' E 118°04'44985114.0
2017-Mar-15 14:33N 31°15' E 121°31'15658.4
2017-Mar-15 14:32N 31°29' E 121°25'5283.5
2017-Mar-15 14:31N 31°32' E 121°20'4407.9
2017-Mar-15 14:30N 31°30' E 121°24'111733.4
2017-Mar-15 14:30N 31°24' E 121°35'10183.7
2017-Mar-15 14:26N 31°30' E 121°24'010.4
2017-Mar-15 14:25N 31°30' E 121°25'112.6
2017-Mar-15 14:22N 31°30' E 121°24'461575.0
2017-Mar-15 13:33N 24°25' E 118°04'460828838.9
2017-Mar-15 13:33N 31°30' E 121°24'111177.1
2017-Mar-15 13:33N 31°24' E 121°35'112049.8
2017-Mar-15 13:33N 31°30' E 121°24'4271.7
2017-Mar-15 13:32N 31°32' E 121°20'4245.6
2017-Mar-15 13:31N 31°29' E 121°24'2309.3
2017-Mar-15 13:30N 31°31' E 121°23'274.8
2017-Mar-15 13:28N 31°29' E 121°25'15383.8
2017-Mar-15 13:26N 31°15' E 121°31'152304.5
2017-Mar-15 13:26N 31°30' E 121°24'0 7.4
2017-Mar-15 13:22N 31°29' E 121°25'0 4.1
2017-Mar-15 13:19N 31°30' E 121°25'0 4.0
2017-Mar-15 13:16N 31°29' E 121°25'460646.6
2017-Mar-15 12:33N 24°25' E 118°04'46253626.4
2017-Mar-15 12:33N 31°33' E 121°19'203201.4
2017-Mar-15 12:32N 31°15' E 121°31'94252.6
2017-Mar-15 12:32N 31°24' E 121°35'104470.3
2017-Mar-15 12:32N 31°29' E 121°25'050.9
2017-Mar-15 12:32N 31°29' E 121°25'1207.2
2017-Mar-15 12:32N 31°30' E 121°24'0126.7
2017-Mar-15 12:31N 31°30' E 121°24'1626.4
2017-Mar-15 12:31N 31°29' E 121°25'192403.7
2017-Mar-15 12:31N 31°42' E 121°08'141018.4
2017-Mar-15 12:30N 31°32' E 121°20'5229.9
2017-Mar-15 12:29N 31°30' E 121°25'460497.6
2017-Mar-15 11:33N 24°25' E 118°04'46016742.3
2017-Mar-15 11:32N 31°29' E 121°25'152098.7
2017-Mar-15 11:31N 31°15' E 121°31'151157.7
2017-Mar-15 11:30N 31°29' E 121°25'118.7
2017-Mar-15 11:28N 31°30' E 121°24'137.2
2017-Mar-15 11:27N 31°29' E 121°25'131155.4
2017-Mar-15 11:26N 31°38' E 121°14'101781.9
2017-Mar-15 11:26N 31°31' E 121°23'23936.8
2017-Mar-15 11:26N 31°30' E 121°25'121.5
2017-Mar-15 11:23N 31°30' E 121°24'4770.6
2017-Mar-15 11:23N 31°32' E 121°20'1599.1
2017-Mar-15 11:14N 31°24' E 121°35'459675.8
2017-Mar-15 10:33N 24°25' E 118°04'46124043.0
2017-Mar-15 10:32N 31°31' E 121°23'285.5
2017-Mar-15 10:30N 31°29' E 121°25'174.4
2017-Mar-15 10:30N 31°30' E 121°24'1452.9
2017-Mar-15 10:30N 31°29' E 121°25'9585641.8
2017-Mar-15 10:30N 30°15' E 122°33'9624743.8
2017-Mar-15 10:29N 31°30' E 121°24'1150.3
2017-Mar-15 10:29N 31°29' E 121°25'071.0
2017-Mar-15 10:29N 31°30' E 121°25'5399.9
2017-Mar-15 10:28N 31°32' E 121°20'14344.1
2017-Mar-15 10:26N 31°42' E 121°08'297367.6
2017-Mar-15 10:25N 31°24' E 121°35'1011.5
2017-Mar-15 09:33N 31°29' E 121°25'460414134.0
2017-Mar-15 09:33N 24°25' E 118°04'46022390.0
2017-Mar-15 09:32N 31°29' E 121°25'15698.4
2017-Mar-15 09:30N 31°15' E 121°31'164120.0
2017-Mar-15 09:30N 31°30' E 121°24'129.0
2017-Mar-15 09:29N 31°30' E 121°24'1036999.3
2017-Mar-15 09:29N 31°24' E 121°35'295728.1
2017-Mar-15 09:28N 31°42' E 121°08'19440.3
2017-Mar-15 09:26N 31°30' E 121°25'5187.3
2017-Mar-15 09:24N 31°32' E 121°20'472.8
2017-Mar-15 09:21N 31°30' E 121°24'268.3
2017-Mar-15 09:19N 31°31' E 121°23'1 1.7
2017-Mar-15 08:33N 31°30' E 121°24'46192103.5
2017-Mar-15 08:33N 24°25' E 118°04'4607815.3
2017-Mar-15 08:29N 31°29' E 121°25'1018203.5
2017-Mar-15 08:29N 31°24' E 121°35'101206.5
2017-Mar-15 08:29N 31°29' E 121°25'191175.2
2017-Mar-15 08:28N 31°42' E 121°08'18902.6
2017-Mar-15 08:27N 31°30' E 121°24'067.9
2017-Mar-15 08:26N 31°30' E 121°24'240.3
2017-Mar-15 08:24N 31°31' E 121°22'17750.8
2017-Mar-15 08:22N 31°15' E 121°31'449552.7
2017-Mar-15 07:34N 24°25' E 118°04'46131882.9
2017-Mar-15 07:33N 31°30' E 121°24'161006.3
2017-Mar-15 07:32N 31°15' E 121°31'17716.0
2017-Mar-15 07:30N 31°31' E 121°22'2133.6
2017-Mar-15 07:29N 31°29' E 121°25'061.7
2017-Mar-15 07:29N 31°30' E 121°24'18425.2
2017-Mar-15 07:26N 31°42' E 121°08'291747.3
2017-Mar-15 07:25N 31°24' E 121°35'10440.1
2017-Mar-15 07:24N 31°29' E 121°25'13615.8
2017-Mar-15 07:24N 31°30' E 121°24'414.8
2017-Mar-15 07:08N 31°32' E 121°20'588.6
2017-Mar-15 07:05N 31°30' E 121°25'460887.4
2017-Mar-15 06:34N 24°25' E 118°04'461829480.9
2017-Mar-15 06:33N 31°31' E 121°22'46442859.7
2017-Mar-15 06:33N 24°26' E 117°51'464128456.7
2017-Mar-15 06:33N 31°30' E 121°24'101697.4
2017-Mar-15 06:32N 31°24' E 121°35'1120064.1
2017-Mar-15 06:32N 31°30' E 121°24'1273.1
2017-Mar-15 06:32N 31°29' E 121°25'113.4
2017-Mar-15 06:29N 31°30' E 121°24'112.8
2017-Mar-15 06:25N 31°29' E 121°25'15998.2
2017-Mar-15 06:24N 31°15' E 121°31'191519.5
2017-Mar-15 06:23N 31°32' E 121°20'5121.0
2017-Mar-15 06:21N 31°30' E 121°25'460578.2
2017-Mar-15 05:33N 24°25' E 118°04'45986899.9
2017-Mar-15 05:33N 31°24' E 121°35'10940.2
2017-Mar-15 05:32N 31°29' E 121°25'0 3.3
2017-Mar-15 05:28N 31°30' E 121°24'010.6
2017-Mar-15 05:26N 31°29' E 121°25'1382.8
2017-Mar-15 05:26N 31°30' E 121°24'010.5
2017-Mar-15 05:24N 31°30' E 121°24'227.5
2017-Mar-15 05:21N 31°31' E 121°22'339.1
2017-Mar-15 05:17N 31°32' E 121°20'19129.9
2017-Mar-15 05:08N 31°15' E 121°31'449787.7
2017-Mar-15 04:34N 24°25' E 118°04'46034521.7
2017-Mar-15 04:33N 31°30' E 121°24'51430.7
2017-Mar-15 04:33N 31°33' E 121°21'5357.1
2017-Mar-15 04:32N 31°29' E 121°25'152386.1
2017-Mar-15 04:31N 31°15' E 121°31'151713.7
2017-Mar-15 04:31N 31°29' E 121°25'10183.3
2017-Mar-15 04:27N 31°24' E 121°35'11295.1
2017-Mar-15 04:25N 31°30' E 121°24'1219.2
2017-Mar-15 04:25N 31°31' E 121°22'21022.7
2017-Mar-15 04:25N 31°30' E 121°24'134.7
2017-Mar-15 04:23N 31°30' E 121°25'19229.5
2017-Mar-15 04:18N 31°42' E 121°08'1453.9
2017-Mar-15 04:03N 31°32' E 121°20'461935.3
2017-Mar-15 03:33N 24°25' E 118°04'46040409.9
2017-Mar-15 03:33N 31°29' E 121°25'192917.1
2017-Mar-15 03:32N 31°42' E 121°08'187038.1
2017-Mar-15 03:32N 31°30' E 121°24'41062.4
2017-Mar-15 03:32N 31°32' E 121°20'5213.7
2017-Mar-15 03:31N 31°30' E 121°24'020.6
2017-Mar-15 03:30N 31°29' E 121°25'2141.5
2017-Mar-15 03:29N 31°31' E 121°22'2176.7
2017-Mar-15 03:29N 31°30' E 121°24'113231.8
2017-Mar-15 03:28N 31°24' E 121°35'1063.0
2017-Mar-15 03:19N 31°29' E 121°25'0 3.1
2017-Mar-15 03:15N 31°30' E 121°25'8325.1
2017-Mar-15 03:13N 31°24' E 121°32'458676.2
2017-Mar-15 02:33N 24°25' E 118°04'44930512.6
2017-Mar-15 02:32N 31°15' E 121°31'151008.4
2017-Mar-15 02:31N 31°29' E 121°25'1137.1
2017-Mar-15 02:31N 31°30' E 121°24'109268.5
2017-Mar-15 02:30N 31°21' E 121°31'112374.5
2017-Mar-15 02:30N 31°30' E 121°24'4515.6
2017-Mar-15 02:30N 31°32' E 121°20'15573.1
2017-Mar-15 02:28N 31°24' E 121°35'10115.8
2017-Mar-15 02:23N 31°30' E 121°25'2179.8
2017-Mar-15 02:22N 31°31' E 121°23'233.5
2017-Mar-15 02:18N 31°29' E 121°25'460624.1
2017-Mar-15 01:33N 24°25' E 118°04'450180092.9
2017-Mar-15 01:33N 31°15' E 121°33'1629581.7
2017-Mar-15 01:33N 31°30' E 121°24'16663.4
2017-Mar-15 01:32N 31°15' E 121°31'197706.7
2017-Mar-15 01:32N 31°32' E 121°20'561.0
2017-Mar-15 01:27N 31°30' E 121°25'011.8
2017-Mar-15 01:26N 31°30' E 121°25'1369.2
2017-Mar-15 01:26N 31°30' E 121°24'168.9
2017-Mar-15 01:25N 31°29' E 121°25'10843.1
2017-Mar-15 01:24N 31°24' E 121°35'10468.2
2017-Mar-15 01:23N 31°29' E 121°25'19208.6
2017-Mar-15 01:18N 31°42' E 121°08'19649.8
2017-Mar-15 01:16N 31°29' E 121°25'460649.5
2017-Mar-15 00:33N 24°25' E 118°04'46075315.2
2017-Mar-15 00:33N 31°29' E 121°25'016.9
2017-Mar-15 00:32N 31°30' E 121°25'1315.0
2017-Mar-15 00:32N 31°30' E 121°24'16599.2
2017-Mar-15 00:30N 31°15' E 121°31'194989.8
2017-Mar-15 00:30N 31°32' E 121°20'231247.9
2017-Mar-15 00:29N 31°10' E 121°28'19365.7
2017-Mar-15 00:26N 31°29' E 121°25'1127.1
2017-Mar-15 00:25N 31°30' E 121°24'11798.5
2017-Mar-15 00:24N 31°24' E 121°35'459539.4
2017-Mar-14 23:33N 24°25' E 118°04'46053452.4
2017-Mar-14 23:33N 31°30' E 121°25'111277.0
2017-Mar-14 23:32N 31°37' E 121°15'122195.3
2017-Mar-14 23:32N 31°29' E 121°25'0 6.8
2017-Mar-14 23:31N 31°29' E 121°25'064.1
2017-Mar-14 23:31N 31°29' E 121°25'261857.2
2017-Mar-14 23:30N 31°03' E 121°28'205976.0
2017-Mar-14 23:30N 31°11' E 121°50'293460.7
2017-Mar-14 23:29N 31°30' E 121°24'16982.6
2017-Mar-14 23:28N 31°15' E 121°31'16469.4
2017-Mar-14 23:26N 31°30' E 121°24'461523.5
2017-Mar-14 22:33N 24°25' E 118°04'46693281.4
2017-Mar-14 22:33N 31°42' E 121°08'2794.0
2017-Mar-14 22:33N 31°41' E 121°10'2797121.8
2017-Mar-14 22:33N 31°24' E 121°35'101117.6
2017-Mar-14 22:33N 31°29' E 121°25'182447.2
2017-Mar-14 22:32N 31°19' E 121°42'183015.0
2017-Mar-14 22:32N 31°29' E 121°25'154187.2
2017-Mar-14 22:31N 31°15' E 121°31'179938.1
2017-Mar-14 22:31N 30°60' E 121°24'30529.9
2017-Mar-14 22:28N 31°30' E 121°25'134.1
2017-Mar-14 22:27N 31°30' E 121°24'114.9
2017-Mar-14 22:25N 31°30' E 121°25'1129.4
2017-Mar-14 22:24N 31°30' E 121°24'1103.6
2017-Mar-14 22:24N 31°29' E 121°25'460550.4
2017-Mar-14 21:33N 24°25' E 118°04'44955761.7
2017-Mar-14 21:33N 31°15' E 121°31'1611530.8
2017-Mar-14 21:33N 31°30' E 121°24'183182.3
2017-Mar-14 21:33N 31°42' E 121°08'295430.2
2017-Mar-14 21:32N 31°24' E 121°35'274252.9
2017-Mar-14 21:32N 30°59' E 121°22'311934.1
2017-Mar-14 21:31N 31°30' E 121°25'0306.4
2017-Mar-14 21:31N 31°29' E 121°25'034.7
2017-Mar-14 21:31N 31°29' E 121°25'21744.8
2017-Mar-14 21:29N 31°43' E 121°06'219518.8
2017-Mar-14 21:29N 31°29' E 121°25'161.2
2017-Mar-14 21:28N 31°30' E 121°24'2 7.3
2017-Mar-14 21:14N 31°31' E 121°23'461676.3
2017-Mar-14 20:33N 24°25' E 118°04'46026312.0
2017-Mar-14 20:32N 31°30' E 121°24'162620.0
2017-Mar-14 20:32N 31°15' E 121°31'1017267.3
2017-Mar-14 20:32N 31°22' E 121°39'148445.4
2017-Mar-14 20:32N 31°29' E 121°25'071.7
2017-Mar-14 20:32N 31°29' E 121°25'034.6
2017-Mar-14 20:31N 31°30' E 121°25'025.5
2017-Mar-14 20:30N 31°30' E 121°24'111.1
2017-Mar-14 20:26N 31°29' E 121°25'319.1
2017-Mar-14 20:18N 31°31' E 121°22'461620.8
2017-Mar-14 19:33N 24°25' E 118°04'46022695.9
2017-Mar-14 19:32N 31°29' E 121°25'163215.4
2017-Mar-14 19:32N 31°20' E 121°40'92241.7
2017-Mar-14 19:32N 31°15' E 121°31'162634.9
2017-Mar-14 19:31N 31°30' E 121°24'1287.3
2017-Mar-14 19:31N 31°30' E 121°24'0 8.4
2017-Mar-14 19:29N 31°29' E 121°25'2205.4
2017-Mar-14 19:28N 31°31' E 121°22'3106.1
2017-Mar-14 19:27N 31°33' E 121°20'5251.0
2017-Mar-14 19:26N 31°30' E 121°24'571298.8
2017-Mar-14 19:23N 31°58' E 120°26'76622.9
2017-Mar-14 19:16N 30°59' E 121°22'431614.1
2017-Mar-14 18:34N 24°25' E 118°04'464417511.5
2017-Mar-14 18:33N 31°36' E 121°16'248016.1
2017-Mar-14 18:33N 31°15' E 121°31'95604.3
2017-Mar-14 18:33N 31°20' E 121°40'1614500.3
2017-Mar-14 18:33N 31°29' E 121°25'053.3
2017-Mar-14 18:33N 31°29' E 121°25'120.1
2017-Mar-14 18:31N 31°30' E 121°24'252.7
2017-Mar-14 18:29N 31°31' E 121°22'321115.2
2017-Mar-14 18:27N 30°59' E 121°22'311433.4
2017-Mar-14 18:26N 31°30' E 121°24'1118.2
2017-Mar-14 18:25N 31°30' E 121°24'112.8
2017-Mar-14 18:20N 31°30' E 121°25'1520.0
2017-Mar-14 17:33N 31°20' E 121°39'1759800.2
2017-Mar-14 17:33N 31°30' E 121°24'461552620.9
2017-Mar-14 17:33N 24°25' E 118°04'449107805.9
2017-Mar-14 17:33N 31°15' E 121°31'153974.1
2017-Mar-14 17:33N 31°30' E 121°24'141004.2
2017-Mar-14 17:32N 31°39' E 121°13'14790.2
2017-Mar-14 17:31N 31°29' E 121°25'2592.2
2017-Mar-14 17:31N 31°31' E 121°22'283.4
2017-Mar-14 17:29N 31°29' E 121°25'20245.0
2017-Mar-14 17:24N 31°10' E 121°28'440.4
2017-Mar-14 17:18N 31°13' E 121°30'34871.2
2017-Mar-14 17:15N 31°42' E 121°08'18311.5
2017-Mar-14 17:12N 31°30' E 121°24'461716.5
2017-Mar-14 16:33N 24°25' E 118°04'4481611960.0
2017-Mar-14 16:33N 31°14' E 121°30'17947.8
2017-Mar-14 16:32N 31°30' E 121°24'121848.4
2017-Mar-14 16:32N 31°23' E 121°35'122411.6
2017-Mar-14 16:32N 31°30' E 121°24'116.0
2017-Mar-14 16:29N 31°29' E 121°25'056.1
2017-Mar-14 16:28N 31°30' E 121°24'0 4.6
2017-Mar-14 16:25N 31°29' E 121°25'224.0
2017-Mar-14 16:19N 31°31' E 121°22'17149.5
2017-Mar-14 16:12N 31°15' E 121°31'449693.4
2017-Mar-14 15:33N 24°25' E 118°04'46027157.2
2017-Mar-14 15:32N 31°29' E 121°25'011.3
2017-Mar-14 15:30N 31°29' E 121°25'128.4
2017-Mar-14 15:28N 31°30' E 121°24'18440.7
2017-Mar-14 15:25N 31°42' E 121°08'1688.1
2017-Mar-14 15:14N 31°31' E 121°22'243.8
2017-Mar-14 15:12N 31°30' E 121°24'127.1
2017-Mar-14 15:10N 31°29' E 121°25'11191.4
2017-Mar-14 15:07N 31°23' E 121°35'11386.9
2017-Mar-14 15:05N 31°30' E 121°25'460877.7
2017-Mar-14 14:34N 24°25' E 118°04'44995127.4
2017-Mar-14 14:33N 31°15' E 121°31'168251.5
2017-Mar-14 14:33N 31°30' E 121°24'138.7
2017-Mar-14 14:32N 31°29' E 121°25'11527.6
2017-Mar-14 14:30N 31°23' E 121°35'11507.9
2017-Mar-14 14:29N 31°29' E 121°25'130.2
2017-Mar-14 14:27N 31°30' E 121°24'122.0
2017-Mar-14 14:25N 31°29' E 121°25'0 2.1
2017-Mar-14 14:17N 31°30' E 121°25'0 7.4
2017-Mar-14 14:15N 31°30' E 121°25'222.2
2017-Mar-14 14:08N 31°31' E 121°23'461795.3
2017-Mar-14 13:33N 24°25' E 118°04'45712968.0
2017-Mar-14 13:31N 31°23' E 121°35'111146.7
2017-Mar-14 13:31N 31°30' E 121°24'1177.9
2017-Mar-14 13:30N 31°29' E 121°25'0210.0
2017-Mar-14 13:30N 31°29' E 121°25'192105.3
2017-Mar-14 13:30N 31°42' E 121°08'181983.8
2017-Mar-14 13:29N 31°30' E 121°24'123.9
2017-Mar-14 13:27N 31°29' E 121°25'228.3
2017-Mar-14 13:22N 31°31' E 121°23'10187.9
2017-Mar-14 13:18N 31°24' E 121°31'886.1
2017-Mar-14 13:13N 31°30' E 121°25'460700.9
2017-Mar-14 12:33N 24°25' E 118°04'46075319.3
2017-Mar-14 12:33N 31°30' E 121°25'124.7
2017-Mar-14 12:32N 31°30' E 121°24'1199.3
2017-Mar-14 12:31N 31°29' E 121°25'0 4.1
2017-Mar-14 12:30N 31°29' E 121°25'4385.2
2017-Mar-14 12:29N 31°27' E 121°28'467.0
2017-Mar-14 12:26N 31°29' E 121°25'116.0
2017-Mar-14 12:21N 31°30' E 121°24'138.3
2017-Mar-14 12:19N 31°31' E 121°23'221.4
2017-Mar-14 12:13N 31°29' E 121°24'1531091.3
2017-Mar-14 12:05N 29°18' E 122°55'391744.5
2017-Mar-14 11:34N 24°25' E 118°04'46133220.5
2017-Mar-14 11:33N 31°32' E 121°20'156140079.1
2017-Mar-14 11:33N 29°20' E 122°55'13611421.4
2017-Mar-14 11:32N 31°15' E 121°31'151072.8
2017-Mar-14 11:31N 31°29' E 121°24'2119.0
2017-Mar-14 11:30N 31°31' E 121°23'2428.2
2017-Mar-14 11:30N 31°30' E 121°24'111794.8
2017-Mar-14 11:29N 31°23' E 121°35'119629.2
2017-Mar-14 11:29N 31°29' E 121°25'1932.4
2017-Mar-14 11:29N 31°30' E 121°24'162.0
2017-Mar-14 11:28N 31°29' E 121°25'0 3.3
2017-Mar-14 11:23N 31°30' E 121°25'1012.6
2017-Mar-14 10:34N 31°24' E 121°35'458117871.1
2017-Mar-14 10:33N 24°25' E 118°04'460127458.1
2017-Mar-14 10:33N 31°29' E 121°25'151110.9
2017-Mar-14 10:32N 31°15' E 121°31'166331.7
2017-Mar-14 10:32N 31°30' E 121°24'121.1
2017-Mar-14 10:30N 31°29' E 121°25'138.1
2017-Mar-14 10:28N 31°30' E 121°24'110.9
2017-Mar-14 10:24N 31°30' E 121°25'022.8
2017-Mar-14 10:23N 31°29' E 121°25'0 4.6
2017-Mar-14 10:21N 31°30' E 121°25'252.6
2017-Mar-14 10:18N 31°31' E 121°23'11155.7
2017-Mar-14 10:14N 31°39' E 121°13'465696.7
2017-Mar-14 09:34N 24°25' E 118°04'4601654549.8
2017-Mar-14 09:34N 31°29' E 121°24'145.5
2017-Mar-14 09:32N 31°30' E 121°24'1238.3
2017-Mar-14 09:32N 31°30' E 121°25'020.6
2017-Mar-14 09:31N 31°29' E 121°25'10544.5
2017-Mar-14 09:30N 31°24' E 121°35'10603.7
2017-Mar-14 09:29N 31°29' E 121°25'241.7
2017-Mar-14 09:25N 31°31' E 121°23'2249.8
2017-Mar-14 09:25N 31°30' E 121°24'16325.6
2017-Mar-14 09:22N 31°15' E 121°31'1552.9
2017-Mar-14 09:05N 31°29' E 121°25'1 1.7
2017-Mar-14 08:34N 31°29' E 121°24'460275758.3
2017-Mar-14 08:33N 24°25' E 118°04'459206330.8
2017-Mar-14 08:33N 31°24' E 121°35'10102.3
2017-Mar-14 08:27N 31°29' E 121°25'1 6.8
2017-Mar-14 08:21N 31°30' E 121°24'2286.0
2017-Mar-14 08:20N 31°31' E 121°22'2106.1
2017-Mar-14 08:19N 31°29' E 121°25'020.1
2017-Mar-14 08:18N 31°29' E 121°24'021.1
2017-Mar-14 08:17N 31°29' E 121°25'170.3
2017-Mar-14 08:16N 31°30' E 121°24'1 1.3
2017-Mar-14 07:33N 31°29' E 121°24'460330910.0
2017-Mar-14 07:33N 24°25' E 118°04'461828911.5
2017-Mar-14 07:33N 31°30' E 121°24'0 4.6
2017-Mar-14 07:30N 31°30' E 121°24'11194.2
2017-Mar-14 07:26N 31°24' E 121°35'10245.4
2017-Mar-14 07:24N 31°29' E 121°25'0 4.0
2017-Mar-14 07:22N 31°29' E 121°25'0 4.3
2017-Mar-14 07:18N 31°30' E 121°25'0 6.1
2017-Mar-14 07:14N 31°30' E 121°24'460685.3
2017-Mar-14 06:33N 24°25' E 118°04'46024740.9
2017-Mar-14 06:32N 31°30' E 121°25'11028.9
2017-Mar-14 06:32N 31°30' E 121°24'10600.8
2017-Mar-14 06:31N 31°37' E 121°16'10672.7
2017-Mar-14 06:30N 31°29' E 121°24'120.7
2017-Mar-14 06:28N 31°29' E 121°25'0 3.5
2017-Mar-14 06:25N 31°29' E 121°25'1119.9
2017-Mar-14 06:24N 31°30' E 121°24'1 9.5
2017-Mar-14 06:21N 31°30' E 121°24'1 1.0
2017-Mar-14 05:33N 31°29' E 121°24'460551529.8
2017-Mar-14 05:33N 24°25' E 118°04'460552368.4
2017-Mar-14 05:33N 31°29' E 121°25'015.2
2017-Mar-14 05:33N 31°29' E 121°25'0145.3
2017-Mar-14 05:33N 31°30' E 121°24'1367.6
2017-Mar-14 05:33N 31°30' E 121°24'11288.3
2017-Mar-14 05:30N 31°24' E 121°35'132983.9
2017-Mar-14 05:30N 31°32' E 121°22'324.7
2017-Mar-14 05:22N 31°30' E 121°25'312.9
2017-Mar-14 05:10N 31°31' E 121°22'120.3
2017-Mar-14 05:06N 31°30' E 121°24'461846.7
2017-Mar-14 04:34N 24°25' E 118°04'45917376.9
2017-Mar-14 04:32N 31°24' E 121°35'911250.7
2017-Mar-14 04:32N 31°15' E 121°31'161812.1
2017-Mar-14 04:31N 31°30' E 121°24'153.2
2017-Mar-14 04:30N 31°31' E 121°22'2414.7
2017-Mar-14 04:29N 31°29' E 121°25'019.9
2017-Mar-14 04:29N 31°30' E 121°24'175667.6
2017-Mar-14 04:29N 31°20' E 121°42'17272.7
2017-Mar-14 04:25N 31°29' E 121°25'111.7
2017-Mar-14 04:21N 31°30' E 121°24'54330070.3
2017-Mar-14 04:20N 22°30' E 120°20'5434209.8
2017-Mar-14 04:12N 31°30' E 121°25'460717.0
2017-Mar-14 03:33N 24°25' E 118°04'46010762.4
2017-Mar-14 03:31N 31°29' E 121°25'127.0
2017-Mar-14 03:30N 31°30' E 121°24'106239.8
2017-Mar-14 03:30N 31°24' E 121°35'10728.9
2017-Mar-14 03:29N 31°29' E 121°25'151307.6
2017-Mar-14 03:28N 31°15' E 121°31'161260.9
2017-Mar-14 03:27N 31°30' E 121°24'038.4
2017-Mar-14 03:27N 31°30' E 121°24'1 4.3
2017-Mar-14 03:16N 31°29' E 121°25'460648.3
2017-Mar-14 02:33N 24°25' E 118°04'46055220.3
2017-Mar-14 02:33N 31°29' E 121°25'153404.5
2017-Mar-14 02:33N 31°15' E 121°31'166211.5
2017-Mar-14 02:32N 31°30' E 121°24'11775.2
2017-Mar-14 02:32N 31°24' E 121°35'11395.0
2017-Mar-14 02:30N 31°30' E 121°24'026.1
2017-Mar-14 02:29N 31°30' E 121°24'112.8
2017-Mar-14 02:24N 31°29' E 121°25'327.0
2017-Mar-14 02:18N 31°31' E 121°23'296.5
2017-Mar-14 02:17N 31°30' E 121°25'4602673.9
2017-Mar-14 02:06N 24°26' E 118°02'2 4.2
2017-Mar-14 01:33N 24°25' E 118°04'45997104.9
2017-Mar-14 01:33N 31°24' E 121°35'104550.9
2017-Mar-14 01:33N 31°29' E 121°25'457117536.5
2017-Mar-14 01:33N 24°28' E 118°04'44624711.8
2017-Mar-14 01:32N 31°15' E 121°31'172141.3
2017-Mar-14 01:31N 31°31' E 121°23'31021.4
2017-Mar-14 01:31N 31°29' E 121°25'197.3
2017-Mar-14 01:30N 31°30' E 121°24'115.4
2017-Mar-14 01:27N 31°30' E 121°25'1 8.9
2017-Mar-14 01:24N 31°30' E 121°24'460548.9
2017-Mar-14 00:33N 24°25' E 118°04'466558710.6
2017-Mar-14 00:33N 31°40' E 121°13'29104134.6
2017-Mar-14 00:33N 31°15' E 121°31'16782.1
2017-Mar-14 00:32N 31°30' E 121°24'1199.5
2017-Mar-14 00:32N 31°29' E 121°25'10971.2
2017-Mar-14 00:31N 31°24' E 121°35'11703.9
2017-Mar-14 00:30N 31°30' E 121°24'1 8.8
2017-Mar-14 00:25N 31°30' E 121°25'250.4
2017-Mar-14 00:22N 31°31' E 121°23'249.1
2017-Mar-14 00:19N 31°29' E 121°25'0 1.5
2017-Mar-14 00:11N 31°30' E 121°25'1524.6
2017-Mar-13 23:33N 31°15' E 121°31'151382.2
2017-Mar-13 23:33N 31°30' E 121°25'10387.8
2017-Mar-13 23:31N 31°24' E 121°35'103594.7
2017-Mar-13 23:31N 31°29' E 121°25'042.7
2017-Mar-13 23:30N 31°29' E 121°25'1340.4
2017-Mar-13 23:30N 31°30' E 121°24'111.9
2017-Mar-13 23:25N 31°30' E 121°25'1104.3
2017-Mar-13 23:25N 31°30' E 121°24'227.9
2017-Mar-13 23:21N 31°31' E 121°23'461577.8
2017-Mar-13 22:33N 24°25' E 118°04'449404311.0
2017-Mar-13 22:33N 31°15' E 121°31'151556.4
2017-Mar-13 22:33N 31°29' E 121°25'2416.6
2017-Mar-13 22:32N 31°31' E 121°23'2154.0
2017-Mar-13 22:32N 31°30' E 121°24'113912.9
2017-Mar-13 22:32N 31°24' E 121°35'11581.6
2017-Mar-13 22:30N 31°30' E 121°24'194.0
2017-Mar-13 22:30N 31°30' E 121°25'039.9
2017-Mar-13 22:29N 31°29' E 121°25'460494.5
2017-Mar-13 21:33N 24°25' E 118°04'4491617244.1
2017-Mar-13 21:33N 31°15' E 121°31'11844.9
2017-Mar-13 21:33N 31°26' E 121°29'518321.4
2017-Mar-13 21:33N 31°29' E 121°25'187.7
2017-Mar-13 21:32N 31°30' E 121°24'146.8
2017-Mar-13 21:31N 31°29' E 121°25'1835.0
2017-Mar-13 21:31N 31°30' E 121°24'129.5
2017-Mar-13 21:29N 31°30' E 121°25'578567.7
2017-Mar-13 21:29N 31°59' E 120°27'556179.8
2017-Mar-13 21:28N 31°31' E 121°23'212.8
2017-Mar-13 21:17N 31°30' E 121°25'460632.6
2017-Mar-13 20:33N 24°25' E 118°04'460331558.1
2017-Mar-13 20:33N 31°30' E 121°24'1212.3
2017-Mar-13 20:33N 31°30' E 121°23'172705.1
2017-Mar-13 20:33N 31°15' E 121°31'15463.9
2017-Mar-13 20:31N 31°29' E 121°25'0 4.6
2017-Mar-13 20:28N 31°29' E 121°25'023.7
2017-Mar-13 20:27N 31°29' E 121°25'112.1
2017-Mar-13 20:23N 31°30' E 121°24'267.7
2017-Mar-13 20:21N 31°31' E 121°22'461582.1
2017-Mar-13 19:34N 24°25' E 118°04'449808660.9
2017-Mar-13 19:34N 31°15' E 121°31'224625.8
2017-Mar-13 19:33N 31°34' E 121°18'7923.3
2017-Mar-13 19:33N 31°30' E 121°25'018.2
2017-Mar-13 19:32N 31°29' E 121°25'012.3
2017-Mar-13 19:31N 31°29' E 121°25'1227.3
2017-Mar-13 19:30N 31°30' E 121°24'026.9
2017-Mar-13 19:30N 31°30' E 121°24'137.4
2017-Mar-13 19:29N 31°29' E 121°24'1111.8
2017-Mar-13 18:34N 31°37' E 121°16'4641671912.5
2017-Mar-13 18:34N 24°25' E 118°04'449539081.4
2017-Mar-13 18:33N 31°15' E 121°31'161400.0
2017-Mar-13 18:33N 31°30' E 121°24'171200.6
2017-Mar-13 18:32N 31°42' E 121°10'181260.7
2017-Mar-13 18:31N 31°30' E 121°25'059.2
2017-Mar-13 18:31N 31°30' E 121°24'113.8
2017-Mar-13 18:27N 31°30' E 121°24'130.0
2017-Mar-13 18:25N 31°29' E 121°25'213.1
2017-Mar-13 18:14N 31°31' E 121°22'461678.3
2017-Mar-13 17:33N 24°25' E 118°04'46124745.3
2017-Mar-13 17:32N 31°30' E 121°24'188249.2
2017-Mar-13 17:32N 31°43' E 121°08'31501.6
2017-Mar-13 17:32N 31°41' E 121°10'172714.6
2017-Mar-13 17:32N 31°30' E 121°24'1607.0
2017-Mar-13 17:32N 31°30' E 121°24'12568.0
2017-Mar-13 17:30N 31°38' E 121°14'131707.3
2017-Mar-13 17:30N 31°30' E 121°25'151020.5
2017-Mar-13 17:29N 31°15' E 121°31'15603.5
2017-Mar-13 17:27N 31°29' E 121°25'2 8.3
2017-Mar-13 17:10N 31°31' E 121°22'4 6.8
2017-Mar-13 16:33N 31°34' E 121°19'4631665948.9
2017-Mar-13 16:33N 24°25' E 118°04'461414755.3
2017-Mar-13 16:33N 31°31' E 121°22'103339.1
2017-Mar-13 16:33N 31°39' E 121°15'188.2
2017-Mar-13 16:33N 31°38' E 121°14'2749110.6
2017-Mar-13 16:33N 31°15' E 121°31'16518.4
2017-Mar-13 16:31N 31°30' E 121°24'156.6
2017-Mar-13 16:30N 31°29' E 121°25'0 7.1
2017-Mar-13 16:28N 31°30' E 121°24'115.3
2017-Mar-13 16:26N 31°30' E 121°24'1 6.3
2017-Mar-13 16:18N 31°30' E 121°25'1 1.1
2017-Mar-13 15:33N 31°30' E 121°24'461184216.0
2017-Mar-13 15:33N 24°25' E 118°04'46366644.9
2017-Mar-13 15:32N 31°34' E 121°19'225974.0
2017-Mar-13 15:32N 31°15' E 121°31'153910.1
2017-Mar-13 15:32N 31°29' E 121°25'0 9.9
2017-Mar-13 15:30N 31°29' E 121°25'159.1
2017-Mar-13 15:29N 31°30' E 121°26'13757.7
2017-Mar-13 15:28N 31°38' E 121°14'1286.1
2017-Mar-13 15:19N 31°30' E 121°24'126.5
2017-Mar-13 15:18N 31°30' E 121°24'1622.1
2017-Mar-13 14:34N 31°41' E 121°11'466839236.4
2017-Mar-13 14:33N 24°25' E 118°04'460110515.3
2017-Mar-13 14:33N 31°31' E 121°22'21197.4
2017-Mar-13 14:33N 31°29' E 121°25'152594.9
2017-Mar-13 14:33N 31°15' E 121°31'161752.3
2017-Mar-13 14:32N 31°30' E 121°24'0333.2
2017-Mar-13 14:32N 31°30' E 121°24'1139.7
2017-Mar-13 14:32N 31°29' E 121°25'0 7.8
2017-Mar-13 14:29N 31°30' E 121°25'240.4
2017-Mar-13 14:25N 31°31' E 121°23'16300.2
2017-Mar-13 14:22N 31°42' E 121°10'467574.4
2017-Mar-13 13:33N 24°25' E 118°04'466129142.1
2017-Mar-13 13:33N 31°41' E 121°11'1619329.2
2017-Mar-13 13:33N 31°29' E 121°25'1114.0
2017-Mar-13 13:33N 31°30' E 121°24'112.0
2017-Mar-13 13:28N 31°30' E 121°23'195.0
2017-Mar-13 13:27N 31°31' E 121°23'272.2
2017-Mar-13 13:25N 31°29' E 121°25'036.3
2017-Mar-13 13:25N 31°30' E 121°25'14146.4
2017-Mar-13 13:19N 31°40' E 121°14'13945.5
2017-Mar-13 13:18N 31°30' E 121°24'461599.1
2017-Mar-13 12:32N 24°25' E 118°04'461552623.3
2017-Mar-13 12:32N 31°30' E 121°24'12741.1
2017-Mar-13 12:31N 31°39' E 121°14'131214.5
2017-Mar-13 12:31N 31°30' E 121°25'1325.7
2017-Mar-13 12:31N 31°30' E 121°24'13652.7
2017-Mar-13 12:29N 31°39' E 121°14'1424711.6
2017-Mar-13 12:29N 31°29' E 121°25'0 7.5
2017-Mar-13 12:27N 31°29' E 121°25'59394.1
2017-Mar-13 12:18N 31°58' E 120°24'721093.7
2017-Mar-13 12:14N 31°15' E 121°32'9283.9
2017-Mar-13 12:12N 31°23' E 121°31'457708.9
2017-Mar-13 11:34N 24°25' E 118°04'460331154.0
2017-Mar-13 11:33N 31°30' E 121°23'1443.1
2017-Mar-13 11:33N 31°29' E 121°25'083.5
2017-Mar-13 11:33N 31°30' E 121°25'112072.1
2017-Mar-13 11:33N 31°38' E 121°16'11335.7
2017-Mar-13 11:31N 31°30' E 121°25'582877.2
2017-Mar-13 11:30N 31°58' E 120°25'561503.3
2017-Mar-13 11:27N 31°31' E 121°23'360.1
2017-Mar-13 11:25N 31°29' E 121°25'1144.7
2017-Mar-13 11:24N 31°30' E 121°24'0 8.1
2017-Mar-13 11:22N 31°30' E 121°24'163779.7
2017-Mar-13 11:22N 31°41' E 121°11'467577.1
2017-Mar-13 10:33N 24°25' E 118°04'459826760.1
2017-Mar-13 10:33N 31°31' E 121°18'51757.6
2017-Mar-13 10:33N 31°36' E 121°18'501163.2
2017-Mar-13 10:31N 31°58' E 120°25'583515.6
2017-Mar-13 10:30N 31°30' E 121°24'1162.4
2017-Mar-13 10:29N 31°30' E 121°23'2191.7
2017-Mar-13 10:29N 31°29' E 121°25'011.5
2017-Mar-13 10:27N 31°30' E 121°25'2718.2
2017-Mar-13 10:26N 31°31' E 121°23'167.6
2017-Mar-13 10:25N 31°30' E 121°24'1282.5
2017-Mar-13 10:16N 31°39' E 121°13'45320.9
2017-Mar-13 10:08N 32°00' E 120°27'473824.4
2017-Mar-13 09:33N 24°25' E 118°04'443113944.2
2017-Mar-13 09:33N 31°16' E 121°11'183562.6
2017-Mar-13 09:33N 31°30' E 121°25'0493.7
2017-Mar-13 09:33N 31°29' E 121°25'1719935.9
2017-Mar-13 09:33N 31°41' E 121°11'1711899.3
2017-Mar-13 09:33N 31°29' E 121°25'141196.7
2017-Mar-13 09:32N 31°39' E 121°13'91024.6
2017-Mar-13 09:31N 31°31' E 121°18'31070.3
2017-Mar-13 09:31N 31°33' E 121°20'5490.3
2017-Mar-13 09:31N 31°30' E 121°24'136.6
2017-Mar-13 09:29N 31°30' E 121°23'57566.9
2017-Mar-13 09:23N 31°58' E 120°25'578980.7
2017-Mar-13 09:23N 31°30' E 121°24'461555.8
2017-Mar-13 08:33N 24°25' E 118°04'443228029.2
2017-Mar-13 08:33N 31°17' E 121°09'1969805.7
2017-Mar-13 08:33N 31°35' E 121°18'6688.3
2017-Mar-13 08:33N 31°31' E 121°22'040.4
2017-Mar-13 08:32N 31°31' E 121°22'2367.4
2017-Mar-13 08:32N 31°29' E 121°25'1197.3
2017-Mar-13 08:31N 31°30' E 121°23'1114.8
2017-Mar-13 08:31N 31°30' E 121°24'115.8
2017-Mar-13 08:27N 31°29' E 121°25'1 9.4
2017-Mar-13 08:21N 31°30' E 121°24'31178.5
2017-Mar-13 08:11N 30°59' E 121°22'311080.1
2017-Mar-13 08:09N 31°29' E 121°24'1 0.9
2017-Mar-13 07:34N 31°30' E 121°24'4601657646.8
2017-Mar-13 07:34N 24°25' E 118°04'442122480.8
2017-Mar-13 07:33N 31°17' E 121°06'231336.5
2017-Mar-13 07:32N 31°39' E 121°13'13677.8
2017-Mar-13 07:31N 31°30' E 121°23'162240.8
2017-Mar-13 07:31N 31°41' E 121°11'16997.2
2017-Mar-13 07:30N 31°29' E 121°24'0 0.8
2017-Mar-13 07:15N 31°29' E 121°25'124.7
2017-Mar-13 07:12N 31°30' E 121°23'111.3
2017-Mar-13 07:08N 31°30' E 121°24'460796.2
2017-Mar-13 06:34N 24°25' E 118°04'4368177.3
2017-Mar-13 06:30N 31°01' E 121°29'293717.1
2017-Mar-13 06:30N 31°30' E 121°23'0 5.6
2017-Mar-13 06:27N 31°30' E 121°23'144.6
2017-Mar-13 06:26N 31°29' E 121°25'170.3
2017-Mar-13 06:25N 31°30' E 121°24'15409.4
2017-Mar-13 06:23N 31°41' E 121°11'16991.9
2017-Mar-13 06:22N 31°30' E 121°24'1 4.8
2017-Mar-13 06:11N 31°30' E 121°25'0 5.2
2017-Mar-13 06:06N 31°30' E 121°24'460845.0
2017-Mar-13 05:33N 24°25' E 118°04'46129605.6
2017-Mar-13 05:33N 31°30' E 121°24'084.7
2017-Mar-13 05:32N 31°30' E 121°24'15255.6
2017-Mar-13 05:29N 31°41' E 121°11'172291.2
2017-Mar-13 05:28N 31°30' E 121°25'1177.6
2017-Mar-13 05:28N 31°30' E 121°23'191.0
2017-Mar-13 05:27N 31°29' E 121°25'22424.4
2017-Mar-13 05:24N 31°08' E 121°28'221101.9
2017-Mar-13 05:23N 31°30' E 121°23'112.9
2017-Mar-13 05:17N 31°30' E 121°24'21145.1
2017-Mar-13 05:08N 31°45' E 121°06'468798.1
2017-Mar-13 04:33N 24°25' E 118°04'46130702.7
2017-Mar-13 04:32N 31°30' E 121°24'151539.6
2017-Mar-13 04:32N 31°41' E 121°11'11222.3
2017-Mar-13 04:32N 31°41' E 121°11'151549.8
2017-Mar-13 04:31N 31°30' E 121°24'1651.5
2017-Mar-13 04:31N 31°30' E 121°24'010.8
2017-Mar-13 04:29N 31°30' E 121°25'22863.8
2017-Mar-13 04:29N 31°30' E 121°23'0 2.6
2017-Mar-13 04:24N 31°30' E 121°23'18831.6
2017-Mar-13 04:22N 31°13' E 121°30'17987.8
2017-Mar-13 04:21N 31°29' E 121°25'1 1.3
2017-Mar-13 03:33N 31°30' E 121°24'461414467.3
2017-Mar-13 03:33N 24°25' E 118°04'463333302.2
2017-Mar-13 03:33N 31°34' E 121°19'7386.6
2017-Mar-13 03:32N 31°29' E 121°25'163287.1
2017-Mar-13 03:32N 31°41' E 121°11'32385.2
2017-Mar-13 03:27N 31°15' E 121°32'1659.4
2017-Mar-13 03:10N 31°30' E 121°23'130.6
2017-Mar-13 03:08N 31°30' E 121°25'133.9
2017-Mar-13 03:06N 31°30' E 121°24'189.3
2017-Mar-13 03:05N 31°30' E 121°23'0 0.4
2017-Mar-13 02:33N 31°30' E 121°23'4601655724.4
2017-Mar-13 02:33N 24°25' E 118°04'46040402.2
2017-Mar-13 02:33N 31°29' E 121°25'1173.1
2017-Mar-13 02:32N 31°30' E 121°23'1254.1
2017-Mar-13 02:32N 31°30' E 121°24'2650.7
2017-Mar-13 02:32N 31°29' E 121°26'282.7
2017-Mar-13 02:30N 31°30' E 121°24'1138.4
2017-Mar-13 02:30N 31°29' E 121°25'0 0.5
2017-Mar-13 02:10N 31°30' E 121°25'0468.5
2017-Mar-13 02:10N 31°29' E 121°24'111939.3
2017-Mar-13 02:09N 31°21' E 121°32'13387.4
2017-Mar-13 02:07N 31°31' E 121°22'16288.2
2017-Mar-13 02:04N 31°42' E 121°09'  

Dump ship's entire track history